<?xml version="1.0" encoding="UTF-8" standalone="no" ?>
<gpx xmlns="http://www.topografix.com/GPX/1/1" xmlns:xsi="http://www.w3.org/2001/XMLSchema-instance" xsi:schemaLocation="http://www.topografix.com/GPX/1/1 http://www.topografix.com/GPX/1/1/gpx.xsd" version="1.1" creator="VisuGPX - https://www.visugpx.com">
  <metadata>
    <name>2018-04-21 ALARIC (aude) château de Miramont</name>
    <desc><![CDATA[2018-04-21 ALARIC (aude) château de Miramont depuis CAPENDU.
Excellent balisage]]></desc>
  </metadata>
  <trk>
    <name><![CDATA[2018-04-21 17:32:47]]></name>
    <trkseg>
      <trkpt lat="43.18531" lon="2.55763">
        <ele>67.43</ele>
        <time>2018-04-21T08:01:59Z</time>
      </trkpt>
      <trkpt lat="43.18531" lon="2.55766">
        <ele>70.31</ele>
        <time>2018-04-21T08:02:06Z</time>
      </trkpt>
      <trkpt lat="43.18531" lon="2.55765">
        <ele>73.2</ele>
        <time>2018-04-21T08:02:18Z</time>
      </trkpt>
      <trkpt lat="43.18531" lon="2.55768">
        <ele>74.64</ele>
        <time>2018-04-21T08:02:30Z</time>
      </trkpt>
      <trkpt lat="43.18524" lon="2.55768">
        <ele>75.12</ele>
        <time>2018-04-21T08:02:38Z</time>
      </trkpt>
      <trkpt lat="43.18514" lon="2.55759">
        <ele>75.6</ele>
        <time>2018-04-21T08:02:52Z</time>
      </trkpt>
      <trkpt lat="43.18506" lon="2.55755">
        <ele>75.6</ele>
        <time>2018-04-21T08:03:04Z</time>
      </trkpt>
      <trkpt lat="43.18497" lon="2.55751">
        <ele>76.08</ele>
        <time>2018-04-21T08:03:18Z</time>
      </trkpt>
      <trkpt lat="43.18496" lon="2.55745">
        <ele>76.08</ele>
        <time>2018-04-21T08:03:31Z</time>
      </trkpt>
      <trkpt lat="43.18495" lon="2.55745">
        <ele>75.6</ele>
        <time>2018-04-21T08:03:34Z</time>
      </trkpt>
      <trkpt lat="43.18489" lon="2.55764">
        <ele>77.52</ele>
        <time>2018-04-21T08:03:48Z</time>
      </trkpt>
      <trkpt lat="43.18483" lon="2.55782">
        <ele>76.56</ele>
        <time>2018-04-21T08:04:03Z</time>
      </trkpt>
      <trkpt lat="43.18478" lon="2.55798">
        <ele>77.52</ele>
        <time>2018-04-21T08:04:17Z</time>
      </trkpt>
      <trkpt lat="43.18464" lon="2.55811">
        <ele>78</ele>
        <time>2018-04-21T08:04:31Z</time>
      </trkpt>
      <trkpt lat="43.18442" lon="2.55808">
        <ele>78.48</ele>
        <time>2018-04-21T08:04:47Z</time>
      </trkpt>
      <trkpt lat="43.18428" lon="2.55802">
        <ele>79.93</ele>
        <time>2018-04-21T08:05:03Z</time>
      </trkpt>
      <trkpt lat="43.18419" lon="2.55798">
        <ele>80.41</ele>
        <time>2018-04-21T08:05:14Z</time>
      </trkpt>
      <trkpt lat="43.18404" lon="2.55796">
        <ele>81.37</ele>
        <time>2018-04-21T08:05:28Z</time>
      </trkpt>
      <trkpt lat="43.18385" lon="2.55789">
        <ele>82.33</ele>
        <time>2018-04-21T08:05:44Z</time>
      </trkpt>
      <trkpt lat="43.18379" lon="2.55789">
        <ele>82.81</ele>
        <time>2018-04-21T08:05:50Z</time>
      </trkpt>
      <trkpt lat="43.18365" lon="2.55798">
        <ele>83.77</ele>
        <time>2018-04-21T08:06:06Z</time>
      </trkpt>
      <trkpt lat="43.1835" lon="2.558">
        <ele>84.25</ele>
        <time>2018-04-21T08:06:19Z</time>
      </trkpt>
      <trkpt lat="43.1834" lon="2.55814">
        <ele>85.21</ele>
        <time>2018-04-21T08:06:32Z</time>
      </trkpt>
      <trkpt lat="43.18335" lon="2.55832">
        <ele>86.18</ele>
        <time>2018-04-21T08:06:44Z</time>
      </trkpt>
      <trkpt lat="43.18335" lon="2.55842">
        <ele>86.66</ele>
        <time>2018-04-21T08:06:53Z</time>
      </trkpt>
      <trkpt lat="43.18333" lon="2.55847">
        <ele>87.14</ele>
        <time>2018-04-21T08:06:57Z</time>
      </trkpt>
      <trkpt lat="43.18326" lon="2.55848">
        <ele>87.14</ele>
        <time>2018-04-21T08:07:01Z</time>
      </trkpt>
      <trkpt lat="43.18315" lon="2.5585">
        <ele>87.62</ele>
        <time>2018-04-21T08:07:08Z</time>
      </trkpt>
      <trkpt lat="43.18297" lon="2.55845">
        <ele>87.62</ele>
        <time>2018-04-21T08:07:24Z</time>
      </trkpt>
      <trkpt lat="43.18293" lon="2.55843">
        <ele>87.62</ele>
        <time>2018-04-21T08:07:28Z</time>
      </trkpt>
      <trkpt lat="43.18275" lon="2.55837">
        <ele>87.14</ele>
        <time>2018-04-21T08:07:45Z</time>
      </trkpt>
      <trkpt lat="43.18266" lon="2.55828">
        <ele>86.18</ele>
        <time>2018-04-21T08:07:54Z</time>
      </trkpt>
      <trkpt lat="43.18257" lon="2.55821">
        <ele>86.66</ele>
        <time>2018-04-21T08:08:04Z</time>
      </trkpt>
      <trkpt lat="43.18247" lon="2.55812">
        <ele>86.66</ele>
        <time>2018-04-21T08:08:19Z</time>
      </trkpt>
      <trkpt lat="43.18237" lon="2.55814">
        <ele>87.14</ele>
        <time>2018-04-21T08:08:35Z</time>
      </trkpt>
      <trkpt lat="43.18234" lon="2.55814">
        <ele>87.14</ele>
        <time>2018-04-21T08:08:38Z</time>
      </trkpt>
      <trkpt lat="43.18229" lon="2.55812">
        <ele>87.62</ele>
        <time>2018-04-21T08:08:43Z</time>
      </trkpt>
      <trkpt lat="43.18212" lon="2.55811">
        <ele>88.1</ele>
        <time>2018-04-21T08:08:57Z</time>
      </trkpt>
      <trkpt lat="43.18199" lon="2.55812">
        <ele>88.58</ele>
        <time>2018-04-21T08:09:09Z</time>
      </trkpt>
      <trkpt lat="43.18192" lon="2.55811">
        <ele>89.06</ele>
        <time>2018-04-21T08:09:15Z</time>
      </trkpt>
      <trkpt lat="43.1819" lon="2.55809">
        <ele>89.06</ele>
        <time>2018-04-21T08:09:17Z</time>
      </trkpt>
      <trkpt lat="43.18176" lon="2.5581">
        <ele>89.54</ele>
        <time>2018-04-21T08:09:29Z</time>
      </trkpt>
      <trkpt lat="43.18166" lon="2.5581">
        <ele>90.02</ele>
        <time>2018-04-21T08:09:39Z</time>
      </trkpt>
      <trkpt lat="43.18149" lon="2.55811">
        <ele>90.98</ele>
        <time>2018-04-21T08:09:52Z</time>
      </trkpt>
      <trkpt lat="43.18148" lon="2.55811">
        <ele>90.98</ele>
        <time>2018-04-21T08:09:53Z</time>
      </trkpt>
      <trkpt lat="43.18132" lon="2.55812">
        <ele>90.98</ele>
        <time>2018-04-21T08:10:08Z</time>
      </trkpt>
      <trkpt lat="43.18129" lon="2.5581">
        <ele>91.46</ele>
        <time>2018-04-21T08:10:15Z</time>
      </trkpt>
      <trkpt lat="43.18123" lon="2.55813">
        <ele>91.94</ele>
        <time>2018-04-21T08:10:20Z</time>
      </trkpt>
      <trkpt lat="43.1811" lon="2.55815">
        <ele>91.94</ele>
        <time>2018-04-21T08:10:33Z</time>
      </trkpt>
      <trkpt lat="43.18106" lon="2.55816">
        <ele>91.94</ele>
        <time>2018-04-21T08:10:37Z</time>
      </trkpt>
      <trkpt lat="43.18097" lon="2.55815">
        <ele>91.94</ele>
        <time>2018-04-21T08:10:51Z</time>
      </trkpt>
      <trkpt lat="43.18097" lon="2.55815">
        <ele>91.94</ele>
        <time>2018-04-21T08:11:05Z</time>
      </trkpt>
      <trkpt lat="43.18096" lon="2.55815">
        <ele>91.94</ele>
        <time>2018-04-21T08:11:41Z</time>
      </trkpt>
      <trkpt lat="43.18088" lon="2.5582">
        <ele>92.42</ele>
        <time>2018-04-21T08:12:02Z</time>
      </trkpt>
      <trkpt lat="43.18073" lon="2.55822">
        <ele>91.94</ele>
        <time>2018-04-21T08:12:16Z</time>
      </trkpt>
      <trkpt lat="43.18061" lon="2.55821">
        <ele>92.42</ele>
        <time>2018-04-21T08:12:29Z</time>
      </trkpt>
      <trkpt lat="43.18056" lon="2.55822">
        <ele>92.42</ele>
        <time>2018-04-21T08:12:40Z</time>
      </trkpt>
      <trkpt lat="43.18041" lon="2.55825">
        <ele>92.9</ele>
        <time>2018-04-21T08:12:53Z</time>
      </trkpt>
      <trkpt lat="43.18032" lon="2.55826">
        <ele>92.9</ele>
        <time>2018-04-21T08:13:03Z</time>
      </trkpt>
      <trkpt lat="43.18023" lon="2.55826">
        <ele>93.39</ele>
        <time>2018-04-21T08:13:15Z</time>
      </trkpt>
      <trkpt lat="43.17991" lon="2.55829">
        <ele>95.31</ele>
        <time>2018-04-21T08:13:46Z</time>
      </trkpt>
      <trkpt lat="43.17986" lon="2.55828">
        <ele>95.31</ele>
        <time>2018-04-21T08:13:55Z</time>
      </trkpt>
      <trkpt lat="43.17971" lon="2.55825">
        <ele>95.79</ele>
        <time>2018-04-21T08:14:09Z</time>
      </trkpt>
      <trkpt lat="43.1797" lon="2.55826">
        <ele>95.79</ele>
        <time>2018-04-21T08:14:10Z</time>
      </trkpt>
      <trkpt lat="43.17965" lon="2.55827">
        <ele>96.75</ele>
        <time>2018-04-21T08:14:20Z</time>
      </trkpt>
      <trkpt lat="43.17943" lon="2.55834">
        <ele>98.19</ele>
        <time>2018-04-21T08:14:39Z</time>
      </trkpt>
      <trkpt lat="43.17927" lon="2.55835">
        <ele>99.63</ele>
        <time>2018-04-21T08:14:53Z</time>
      </trkpt>
      <trkpt lat="43.17925" lon="2.55835">
        <ele>100.11</ele>
        <time>2018-04-21T08:14:55Z</time>
      </trkpt>
      <trkpt lat="43.17923" lon="2.55836">
        <ele>100.11</ele>
        <time>2018-04-21T08:14:57Z</time>
      </trkpt>
      <trkpt lat="43.17916" lon="2.55837">
        <ele>100.6</ele>
        <time>2018-04-21T08:15:03Z</time>
      </trkpt>
      <trkpt lat="43.17898" lon="2.55838">
        <ele>102.04</ele>
        <time>2018-04-21T08:15:19Z</time>
      </trkpt>
      <trkpt lat="43.17891" lon="2.55837">
        <ele>102.04</ele>
        <time>2018-04-21T08:15:30Z</time>
      </trkpt>
      <trkpt lat="43.17886" lon="2.55835">
        <ele>102.52</ele>
        <time>2018-04-21T08:15:55Z</time>
      </trkpt>
      <trkpt lat="43.17883" lon="2.55835">
        <ele>102.52</ele>
        <time>2018-04-21T08:16:04Z</time>
      </trkpt>
      <trkpt lat="43.17866" lon="2.55836">
        <ele>103.96</ele>
        <time>2018-04-21T08:16:21Z</time>
      </trkpt>
      <trkpt lat="43.17862" lon="2.55835">
        <ele>104.44</ele>
        <time>2018-04-21T08:16:24Z</time>
      </trkpt>
      <trkpt lat="43.17845" lon="2.55829">
        <ele>105.4</ele>
        <time>2018-04-21T08:16:38Z</time>
      </trkpt>
      <trkpt lat="43.17828" lon="2.55821">
        <ele>106.36</ele>
        <time>2018-04-21T08:16:53Z</time>
      </trkpt>
      <trkpt lat="43.17815" lon="2.55815">
        <ele>107.32</ele>
        <time>2018-04-21T08:17:05Z</time>
      </trkpt>
      <trkpt lat="43.17807" lon="2.5581">
        <ele>108.29</ele>
        <time>2018-04-21T08:17:13Z</time>
      </trkpt>
      <trkpt lat="43.1779" lon="2.55795">
        <ele>108.77</ele>
        <time>2018-04-21T08:17:29Z</time>
      </trkpt>
      <trkpt lat="43.17775" lon="2.55785">
        <ele>109.25</ele>
        <time>2018-04-21T08:17:43Z</time>
      </trkpt>
      <trkpt lat="43.17758" lon="2.55779">
        <ele>109.73</ele>
        <time>2018-04-21T08:17:57Z</time>
      </trkpt>
      <trkpt lat="43.17743" lon="2.55771">
        <ele>110.69</ele>
        <time>2018-04-21T08:18:11Z</time>
      </trkpt>
      <trkpt lat="43.17727" lon="2.55766">
        <ele>111.65</ele>
        <time>2018-04-21T08:18:25Z</time>
      </trkpt>
      <trkpt lat="43.17711" lon="2.55761">
        <ele>112.61</ele>
        <time>2018-04-21T08:18:39Z</time>
      </trkpt>
      <trkpt lat="43.17694" lon="2.55757">
        <ele>112.61</ele>
        <time>2018-04-21T08:18:53Z</time>
      </trkpt>
      <trkpt lat="43.17679" lon="2.55752">
        <ele>113.57</ele>
        <time>2018-04-21T08:19:05Z</time>
      </trkpt>
      <trkpt lat="43.17677" lon="2.55752">
        <ele>113.57</ele>
        <time>2018-04-21T08:19:07Z</time>
      </trkpt>
      <trkpt lat="43.17664" lon="2.55745">
        <ele>114.05</ele>
        <time>2018-04-21T08:19:18Z</time>
      </trkpt>
      <trkpt lat="43.17647" lon="2.55746">
        <ele>115.01</ele>
        <time>2018-04-21T08:19:32Z</time>
      </trkpt>
      <trkpt lat="43.17629" lon="2.55743">
        <ele>115.98</ele>
        <time>2018-04-21T08:19:47Z</time>
      </trkpt>
      <trkpt lat="43.17622" lon="2.55742">
        <ele>115.5</ele>
        <time>2018-04-21T08:19:53Z</time>
      </trkpt>
      <trkpt lat="43.17606" lon="2.5573">
        <ele>114.53</ele>
        <time>2018-04-21T08:20:09Z</time>
      </trkpt>
      <trkpt lat="43.17598" lon="2.55724">
        <ele>114.53</ele>
        <time>2018-04-21T08:20:17Z</time>
      </trkpt>
      <trkpt lat="43.17592" lon="2.55718">
        <ele>114.53</ele>
        <time>2018-04-21T08:20:23Z</time>
      </trkpt>
      <trkpt lat="43.17579" lon="2.55705">
        <ele>115.5</ele>
        <time>2018-04-21T08:20:38Z</time>
      </trkpt>
      <trkpt lat="43.17571" lon="2.55708">
        <ele>115.5</ele>
        <time>2018-04-21T08:21:50Z</time>
      </trkpt>
      <trkpt lat="43.17564" lon="2.55706">
        <ele>115.5</ele>
        <time>2018-04-21T08:22:07Z</time>
      </trkpt>
      <trkpt lat="43.17547" lon="2.55705">
        <ele>114.05</ele>
        <time>2018-04-21T08:22:22Z</time>
      </trkpt>
      <trkpt lat="43.17531" lon="2.55703">
        <ele>113.09</ele>
        <time>2018-04-21T08:22:35Z</time>
      </trkpt>
      <trkpt lat="43.17515" lon="2.55699">
        <ele>113.09</ele>
        <time>2018-04-21T08:22:50Z</time>
      </trkpt>
      <trkpt lat="43.17498" lon="2.55699">
        <ele>114.05</ele>
        <time>2018-04-21T08:23:05Z</time>
      </trkpt>
      <trkpt lat="43.1748" lon="2.55699">
        <ele>115.01</ele>
        <time>2018-04-21T08:23:19Z</time>
      </trkpt>
      <trkpt lat="43.17475" lon="2.55699">
        <ele>115.01</ele>
        <time>2018-04-21T08:23:24Z</time>
      </trkpt>
      <trkpt lat="43.1747" lon="2.55699">
        <ele>115.5</ele>
        <time>2018-04-21T08:23:28Z</time>
      </trkpt>
      <trkpt lat="43.17454" lon="2.55699">
        <ele>117.42</ele>
        <time>2018-04-21T08:23:44Z</time>
      </trkpt>
      <trkpt lat="43.17444" lon="2.55699">
        <ele>117.9</ele>
        <time>2018-04-21T08:23:54Z</time>
      </trkpt>
      <trkpt lat="43.17427" lon="2.55699">
        <ele>118.86</ele>
        <time>2018-04-21T08:24:09Z</time>
      </trkpt>
      <trkpt lat="43.17419" lon="2.55699">
        <ele>119.34</ele>
        <time>2018-04-21T08:24:16Z</time>
      </trkpt>
      <trkpt lat="43.17403" lon="2.55698">
        <ele>119.82</ele>
        <time>2018-04-21T08:24:30Z</time>
      </trkpt>
      <trkpt lat="43.17397" lon="2.55697">
        <ele>120.3</ele>
        <time>2018-04-21T08:24:36Z</time>
      </trkpt>
      <trkpt lat="43.17384" lon="2.557">
        <ele>120.78</ele>
        <time>2018-04-21T08:24:48Z</time>
      </trkpt>
      <trkpt lat="43.17368" lon="2.55704">
        <ele>121.26</ele>
        <time>2018-04-21T08:25:03Z</time>
      </trkpt>
      <trkpt lat="43.17353" lon="2.55706">
        <ele>121.74</ele>
        <time>2018-04-21T08:25:17Z</time>
      </trkpt>
      <trkpt lat="43.17342" lon="2.55708">
        <ele>122.22</ele>
        <time>2018-04-21T08:25:28Z</time>
      </trkpt>
      <trkpt lat="43.17326" lon="2.55714">
        <ele>121.74</ele>
        <time>2018-04-21T08:25:44Z</time>
      </trkpt>
      <trkpt lat="43.17321" lon="2.55721">
        <ele>121.74</ele>
        <time>2018-04-21T08:25:57Z</time>
      </trkpt>
      <trkpt lat="43.17316" lon="2.55723">
        <ele>122.22</ele>
        <time>2018-04-21T08:26:05Z</time>
      </trkpt>
      <trkpt lat="43.17312" lon="2.55729">
        <ele>122.22</ele>
        <time>2018-04-21T08:26:10Z</time>
      </trkpt>
      <trkpt lat="43.17299" lon="2.5574">
        <ele>123.19</ele>
        <time>2018-04-21T08:26:25Z</time>
      </trkpt>
      <trkpt lat="43.17286" lon="2.55751">
        <ele>124.15</ele>
        <time>2018-04-21T08:26:40Z</time>
      </trkpt>
      <trkpt lat="43.17274" lon="2.55762">
        <ele>126.07</ele>
        <time>2018-04-21T08:26:55Z</time>
      </trkpt>
      <trkpt lat="43.17266" lon="2.55771">
        <ele>127.03</ele>
        <time>2018-04-21T08:27:08Z</time>
      </trkpt>
      <trkpt lat="43.17254" lon="2.5578">
        <ele>128.47</ele>
        <time>2018-04-21T08:27:21Z</time>
      </trkpt>
      <trkpt lat="43.17245" lon="2.55789">
        <ele>129.92</ele>
        <time>2018-04-21T08:27:32Z</time>
      </trkpt>
      <trkpt lat="43.17234" lon="2.55799">
        <ele>131.36</ele>
        <time>2018-04-21T08:27:45Z</time>
      </trkpt>
      <trkpt lat="43.17226" lon="2.55808">
        <ele>133.28</ele>
        <time>2018-04-21T08:28:00Z</time>
      </trkpt>
      <trkpt lat="43.17216" lon="2.55816">
        <ele>133.76</ele>
        <time>2018-04-21T08:28:15Z</time>
      </trkpt>
      <trkpt lat="43.17208" lon="2.55822">
        <ele>135.2</ele>
        <time>2018-04-21T08:28:28Z</time>
      </trkpt>
      <trkpt lat="43.17197" lon="2.55827">
        <ele>136.64</ele>
        <time>2018-04-21T08:28:41Z</time>
      </trkpt>
      <trkpt lat="43.17185" lon="2.55833">
        <ele>137.13</ele>
        <time>2018-04-21T08:28:55Z</time>
      </trkpt>
      <trkpt lat="43.17172" lon="2.55839">
        <ele>138.09</ele>
        <time>2018-04-21T08:29:09Z</time>
      </trkpt>
      <trkpt lat="43.1716" lon="2.55847">
        <ele>139.53</ele>
        <time>2018-04-21T08:29:23Z</time>
      </trkpt>
      <trkpt lat="43.1715" lon="2.55851">
        <ele>140.49</ele>
        <time>2018-04-21T08:29:34Z</time>
      </trkpt>
      <trkpt lat="43.1715" lon="2.5585">
        <ele>140.97</ele>
        <time>2018-04-21T08:29:50Z</time>
      </trkpt>
      <trkpt lat="43.17143" lon="2.5585">
        <ele>141.93</ele>
        <time>2018-04-21T08:30:02Z</time>
      </trkpt>
      <trkpt lat="43.17134" lon="2.55855">
        <ele>142.41</ele>
        <time>2018-04-21T08:30:14Z</time>
      </trkpt>
      <trkpt lat="43.17134" lon="2.55855">
        <ele>142.41</ele>
        <time>2018-04-21T08:30:15Z</time>
      </trkpt>
      <trkpt lat="43.17129" lon="2.55855">
        <ele>143.37</ele>
        <time>2018-04-21T08:30:26Z</time>
      </trkpt>
      <trkpt lat="43.17123" lon="2.55851">
        <ele>143.85</ele>
        <time>2018-04-21T08:30:34Z</time>
      </trkpt>
      <trkpt lat="43.1711" lon="2.55846">
        <ele>145.3</ele>
        <time>2018-04-21T08:30:48Z</time>
      </trkpt>
      <trkpt lat="43.17093" lon="2.55844">
        <ele>147.22</ele>
        <time>2018-04-21T08:31:06Z</time>
      </trkpt>
      <trkpt lat="43.17081" lon="2.55842">
        <ele>148.18</ele>
        <time>2018-04-21T08:31:20Z</time>
      </trkpt>
      <trkpt lat="43.17068" lon="2.55835">
        <ele>149.62</ele>
        <time>2018-04-21T08:31:36Z</time>
      </trkpt>
      <trkpt lat="43.17058" lon="2.55824">
        <ele>151.54</ele>
        <time>2018-04-21T08:31:51Z</time>
      </trkpt>
      <trkpt lat="43.17049" lon="2.55813">
        <ele>152.51</ele>
        <time>2018-04-21T08:32:05Z</time>
      </trkpt>
      <trkpt lat="43.17048" lon="2.55813">
        <ele>152.99</ele>
        <time>2018-04-21T08:32:06Z</time>
      </trkpt>
      <trkpt lat="43.17039" lon="2.55814">
        <ele>153.95</ele>
        <time>2018-04-21T08:32:17Z</time>
      </trkpt>
      <trkpt lat="43.17033" lon="2.55819">
        <ele>154.91</ele>
        <time>2018-04-21T08:32:34Z</time>
      </trkpt>
      <trkpt lat="43.17024" lon="2.55831">
        <ele>155.87</ele>
        <time>2018-04-21T08:32:46Z</time>
      </trkpt>
      <trkpt lat="43.17014" lon="2.55832">
        <ele>157.31</ele>
        <time>2018-04-21T08:32:59Z</time>
      </trkpt>
      <trkpt lat="43.17013" lon="2.55831">
        <ele>157.31</ele>
        <time>2018-04-21T08:33:00Z</time>
      </trkpt>
      <trkpt lat="43.17011" lon="2.55829">
        <ele>157.31</ele>
        <time>2018-04-21T08:33:02Z</time>
      </trkpt>
      <trkpt lat="43.17004" lon="2.55812">
        <ele>158.75</ele>
        <time>2018-04-21T08:33:17Z</time>
      </trkpt>
      <trkpt lat="43.16999" lon="2.55796">
        <ele>160.2</ele>
        <time>2018-04-21T08:33:31Z</time>
      </trkpt>
      <trkpt lat="43.16997" lon="2.55791">
        <ele>160.68</ele>
        <time>2018-04-21T08:33:36Z</time>
      </trkpt>
      <trkpt lat="43.16994" lon="2.55786">
        <ele>160.68</ele>
        <time>2018-04-21T08:33:41Z</time>
      </trkpt>
      <trkpt lat="43.1699" lon="2.55768">
        <ele>161.64</ele>
        <time>2018-04-21T08:33:54Z</time>
      </trkpt>
      <trkpt lat="43.16984" lon="2.55751">
        <ele>163.08</ele>
        <time>2018-04-21T08:34:10Z</time>
      </trkpt>
      <trkpt lat="43.16982" lon="2.55738">
        <ele>164.52</ele>
        <time>2018-04-21T08:34:23Z</time>
      </trkpt>
      <trkpt lat="43.16978" lon="2.55727">
        <ele>165.48</ele>
        <time>2018-04-21T08:34:35Z</time>
      </trkpt>
      <trkpt lat="43.1697" lon="2.55722">
        <ele>166.45</ele>
        <time>2018-04-21T08:34:48Z</time>
      </trkpt>
      <trkpt lat="43.16968" lon="2.55719">
        <ele>166.45</ele>
        <time>2018-04-21T08:35:02Z</time>
      </trkpt>
      <trkpt lat="43.16966" lon="2.55697">
        <ele>167.41</ele>
        <time>2018-04-21T08:38:12Z</time>
      </trkpt>
      <trkpt lat="43.16963" lon="2.55672">
        <ele>168.85</ele>
        <time>2018-04-21T08:38:30Z</time>
      </trkpt>
      <trkpt lat="43.16962" lon="2.55655">
        <ele>169.81</ele>
        <time>2018-04-21T08:38:41Z</time>
      </trkpt>
      <trkpt lat="43.1696" lon="2.5565">
        <ele>169.81</ele>
        <time>2018-04-21T08:38:45Z</time>
      </trkpt>
      <trkpt lat="43.16961" lon="2.55627">
        <ele>170.77</ele>
        <time>2018-04-21T08:38:59Z</time>
      </trkpt>
      <trkpt lat="43.16971" lon="2.55601">
        <ele>172.21</ele>
        <time>2018-04-21T08:39:16Z</time>
      </trkpt>
      <trkpt lat="43.1698" lon="2.55584">
        <ele>172.69</ele>
        <time>2018-04-21T08:39:30Z</time>
      </trkpt>
      <trkpt lat="43.16983" lon="2.55579">
        <ele>172.69</ele>
        <time>2018-04-21T08:39:34Z</time>
      </trkpt>
      <trkpt lat="43.16992" lon="2.55557">
        <ele>174.14</ele>
        <time>2018-04-21T08:39:51Z</time>
      </trkpt>
      <trkpt lat="43.1699" lon="2.55536">
        <ele>175.1</ele>
        <time>2018-04-21T08:40:06Z</time>
      </trkpt>
      <trkpt lat="43.16988" lon="2.55532">
        <ele>175.1</ele>
        <time>2018-04-21T08:40:09Z</time>
      </trkpt>
      <trkpt lat="43.16976" lon="2.55517">
        <ele>176.54</ele>
        <time>2018-04-21T08:40:24Z</time>
      </trkpt>
      <trkpt lat="43.16975" lon="2.55517">
        <ele>176.54</ele>
        <time>2018-04-21T08:40:25Z</time>
      </trkpt>
      <trkpt lat="43.16972" lon="2.55516">
        <ele>176.54</ele>
        <time>2018-04-21T08:40:28Z</time>
      </trkpt>
      <trkpt lat="43.16962" lon="2.55512">
        <ele>177.02</ele>
        <time>2018-04-21T08:40:40Z</time>
      </trkpt>
      <trkpt lat="43.16951" lon="2.55512">
        <ele>177.5</ele>
        <time>2018-04-21T08:40:49Z</time>
      </trkpt>
      <trkpt lat="43.16936" lon="2.55522">
        <ele>178.94</ele>
        <time>2018-04-21T08:41:05Z</time>
      </trkpt>
      <trkpt lat="43.16932" lon="2.55542">
        <ele>180.38</ele>
        <time>2018-04-21T08:41:19Z</time>
      </trkpt>
      <trkpt lat="43.16926" lon="2.55566">
        <ele>181.35</ele>
        <time>2018-04-21T08:41:34Z</time>
      </trkpt>
      <trkpt lat="43.16924" lon="2.55572">
        <ele>181.35</ele>
        <time>2018-04-21T08:41:38Z</time>
      </trkpt>
      <trkpt lat="43.16924" lon="2.55575">
        <ele>181.35</ele>
        <time>2018-04-21T08:41:40Z</time>
      </trkpt>
      <trkpt lat="43.1692" lon="2.55588">
        <ele>182.31</ele>
        <time>2018-04-21T08:41:50Z</time>
      </trkpt>
      <trkpt lat="43.16918" lon="2.55604">
        <ele>183.27</ele>
        <time>2018-04-21T08:42:00Z</time>
      </trkpt>
      <trkpt lat="43.16913" lon="2.55629">
        <ele>184.23</ele>
        <time>2018-04-21T08:42:17Z</time>
      </trkpt>
      <trkpt lat="43.16909" lon="2.55638">
        <ele>184.71</ele>
        <time>2018-04-21T08:42:24Z</time>
      </trkpt>
      <trkpt lat="43.16901" lon="2.55651">
        <ele>185.67</ele>
        <time>2018-04-21T08:42:34Z</time>
      </trkpt>
      <trkpt lat="43.1689" lon="2.55671">
        <ele>187.11</ele>
        <time>2018-04-21T08:42:50Z</time>
      </trkpt>
      <trkpt lat="43.1688" lon="2.55681">
        <ele>187.59</ele>
        <time>2018-04-21T08:43:03Z</time>
      </trkpt>
      <trkpt lat="43.16871" lon="2.55692">
        <ele>188.56</ele>
        <time>2018-04-21T08:43:17Z</time>
      </trkpt>
      <trkpt lat="43.16868" lon="2.55699">
        <ele>189.04</ele>
        <time>2018-04-21T08:43:23Z</time>
      </trkpt>
      <trkpt lat="43.16864" lon="2.55716">
        <ele>190</ele>
        <time>2018-04-21T08:43:35Z</time>
      </trkpt>
      <trkpt lat="43.16868" lon="2.55731">
        <ele>190.96</ele>
        <time>2018-04-21T08:43:47Z</time>
      </trkpt>
      <trkpt lat="43.16868" lon="2.55738">
        <ele>191.44</ele>
        <time>2018-04-21T08:43:52Z</time>
      </trkpt>
      <trkpt lat="43.16872" lon="2.55757">
        <ele>192.4</ele>
        <time>2018-04-21T08:44:08Z</time>
      </trkpt>
      <trkpt lat="43.16872" lon="2.55758">
        <ele>192.88</ele>
        <time>2018-04-21T08:44:10Z</time>
      </trkpt>
      <trkpt lat="43.16873" lon="2.55768">
        <ele>193.36</ele>
        <time>2018-04-21T08:44:18Z</time>
      </trkpt>
      <trkpt lat="43.16877" lon="2.55777">
        <ele>193.84</ele>
        <time>2018-04-21T08:44:32Z</time>
      </trkpt>
      <trkpt lat="43.16872" lon="2.55784">
        <ele>194.32</ele>
        <time>2018-04-21T08:46:25Z</time>
      </trkpt>
      <trkpt lat="43.16866" lon="2.55781">
        <ele>196.73</ele>
        <time>2018-04-21T08:46:40Z</time>
      </trkpt>
      <trkpt lat="43.16861" lon="2.55779">
        <ele>198.65</ele>
        <time>2018-04-21T08:46:53Z</time>
      </trkpt>
      <trkpt lat="43.16846" lon="2.55771">
        <ele>201.53</ele>
        <time>2018-04-21T08:47:21Z</time>
      </trkpt>
      <trkpt lat="43.16845" lon="2.55769">
        <ele>202.49</ele>
        <time>2018-04-21T08:47:37Z</time>
      </trkpt>
      <trkpt lat="43.16838" lon="2.55769">
        <ele>204.42</ele>
        <time>2018-04-21T08:47:52Z</time>
      </trkpt>
      <trkpt lat="43.16836" lon="2.55765">
        <ele>207.3</ele>
        <time>2018-04-21T08:48:33Z</time>
      </trkpt>
      <trkpt lat="43.16828" lon="2.55762">
        <ele>208.74</ele>
        <time>2018-04-21T08:48:50Z</time>
      </trkpt>
      <trkpt lat="43.16815" lon="2.55748">
        <ele>211.15</ele>
        <time>2018-04-21T08:49:17Z</time>
      </trkpt>
      <trkpt lat="43.16814" lon="2.55745">
        <ele>211.15</ele>
        <time>2018-04-21T08:49:33Z</time>
      </trkpt>
      <trkpt lat="43.16814" lon="2.55744">
        <ele>211.63</ele>
        <time>2018-04-21T08:49:58Z</time>
      </trkpt>
      <trkpt lat="43.16802" lon="2.55736">
        <ele>215.95</ele>
        <time>2018-04-21T08:53:30Z</time>
      </trkpt>
      <trkpt lat="43.16795" lon="2.55727">
        <ele>218.36</ele>
        <time>2018-04-21T08:53:46Z</time>
      </trkpt>
      <trkpt lat="43.16787" lon="2.55718">
        <ele>220.28</ele>
        <time>2018-04-21T08:53:59Z</time>
      </trkpt>
      <trkpt lat="43.16777" lon="2.55705">
        <ele>224.12</ele>
        <time>2018-04-21T08:54:22Z</time>
      </trkpt>
      <trkpt lat="43.16777" lon="2.55704">
        <ele>224.61</ele>
        <time>2018-04-21T08:54:23Z</time>
      </trkpt>
      <trkpt lat="43.16775" lon="2.557">
        <ele>225.57</ele>
        <time>2018-04-21T08:54:28Z</time>
      </trkpt>
      <trkpt lat="43.16771" lon="2.55691">
        <ele>226.05</ele>
        <time>2018-04-21T08:54:40Z</time>
      </trkpt>
      <trkpt lat="43.16764" lon="2.55686">
        <ele>227.01</ele>
        <time>2018-04-21T08:54:51Z</time>
      </trkpt>
      <trkpt lat="43.16759" lon="2.55679">
        <ele>228.45</ele>
        <time>2018-04-21T08:55:04Z</time>
      </trkpt>
      <trkpt lat="43.16751" lon="2.55669">
        <ele>230.37</ele>
        <time>2018-04-21T08:55:16Z</time>
      </trkpt>
      <trkpt lat="43.16746" lon="2.55659">
        <ele>232.3</ele>
        <time>2018-04-21T08:55:28Z</time>
      </trkpt>
      <trkpt lat="43.16743" lon="2.55653">
        <ele>233.74</ele>
        <time>2018-04-21T08:55:36Z</time>
      </trkpt>
      <trkpt lat="43.16742" lon="2.55648">
        <ele>234.7</ele>
        <time>2018-04-21T08:55:41Z</time>
      </trkpt>
      <trkpt lat="43.16734" lon="2.55629">
        <ele>237.58</ele>
        <time>2018-04-21T08:56:07Z</time>
      </trkpt>
      <trkpt lat="43.16728" lon="2.5562">
        <ele>239.02</ele>
        <time>2018-04-21T08:56:20Z</time>
      </trkpt>
      <trkpt lat="43.16719" lon="2.55612">
        <ele>240.95</ele>
        <time>2018-04-21T08:56:33Z</time>
      </trkpt>
      <trkpt lat="43.16717" lon="2.55608">
        <ele>241.91</ele>
        <time>2018-04-21T08:56:38Z</time>
      </trkpt>
      <trkpt lat="43.1671" lon="2.55597">
        <ele>243.35</ele>
        <time>2018-04-21T08:56:52Z</time>
      </trkpt>
      <trkpt lat="43.16706" lon="2.55587">
        <ele>244.79</ele>
        <time>2018-04-21T08:57:04Z</time>
      </trkpt>
      <trkpt lat="43.16701" lon="2.55577">
        <ele>246.23</ele>
        <time>2018-04-21T08:57:17Z</time>
      </trkpt>
      <trkpt lat="43.16697" lon="2.55568">
        <ele>247.68</ele>
        <time>2018-04-21T08:57:29Z</time>
      </trkpt>
      <trkpt lat="43.16696" lon="2.55557">
        <ele>249.6</ele>
        <time>2018-04-21T08:57:43Z</time>
      </trkpt>
      <trkpt lat="43.1669" lon="2.5555">
        <ele>251.52</ele>
        <time>2018-04-21T08:57:56Z</time>
      </trkpt>
      <trkpt lat="43.16684" lon="2.55541">
        <ele>252.96</ele>
        <time>2018-04-21T08:58:09Z</time>
      </trkpt>
      <trkpt lat="43.1668" lon="2.55532">
        <ele>255.37</ele>
        <time>2018-04-21T08:58:23Z</time>
      </trkpt>
      <trkpt lat="43.16676" lon="2.55523">
        <ele>256.81</ele>
        <time>2018-04-21T08:58:35Z</time>
      </trkpt>
      <trkpt lat="43.16674" lon="2.55517">
        <ele>258.73</ele>
        <time>2018-04-21T08:58:48Z</time>
      </trkpt>
      <trkpt lat="43.16663" lon="2.55497">
        <ele>263.06</ele>
        <time>2018-04-21T09:01:46Z</time>
      </trkpt>
      <trkpt lat="43.16659" lon="2.55483">
        <ele>264.5</ele>
        <time>2018-04-21T09:02:02Z</time>
      </trkpt>
      <trkpt lat="43.16655" lon="2.55478">
        <ele>265.94</ele>
        <time>2018-04-21T09:02:16Z</time>
      </trkpt>
      <trkpt lat="43.16656" lon="2.55476">
        <ele>266.42</ele>
        <time>2018-04-21T09:02:34Z</time>
      </trkpt>
      <trkpt lat="43.16647" lon="2.5546">
        <ele>268.35</ele>
        <time>2018-04-21T09:02:48Z</time>
      </trkpt>
      <trkpt lat="43.16641" lon="2.55452">
        <ele>269.79</ele>
        <time>2018-04-21T09:03:01Z</time>
      </trkpt>
      <trkpt lat="43.16634" lon="2.55444">
        <ele>271.23</ele>
        <time>2018-04-21T09:03:16Z</time>
      </trkpt>
      <trkpt lat="43.16628" lon="2.5544">
        <ele>272.19</ele>
        <time>2018-04-21T09:04:00Z</time>
      </trkpt>
      <trkpt lat="43.16627" lon="2.5544">
        <ele>272.67</ele>
        <time>2018-04-21T09:04:02Z</time>
      </trkpt>
      <trkpt lat="43.16618" lon="2.55422">
        <ele>274.59</ele>
        <time>2018-04-21T09:04:28Z</time>
      </trkpt>
      <trkpt lat="43.16615" lon="2.55407">
        <ele>275.07</ele>
        <time>2018-04-21T09:04:40Z</time>
      </trkpt>
      <trkpt lat="43.16612" lon="2.55401">
        <ele>277.96</ele>
        <time>2018-04-21T09:06:19Z</time>
      </trkpt>
      <trkpt lat="43.16607" lon="2.55395">
        <ele>278.92</ele>
        <time>2018-04-21T09:06:30Z</time>
      </trkpt>
      <trkpt lat="43.16604" lon="2.55383">
        <ele>280.84</ele>
        <time>2018-04-21T09:06:42Z</time>
      </trkpt>
      <trkpt lat="43.16602" lon="2.55375">
        <ele>283.25</ele>
        <time>2018-04-21T09:06:58Z</time>
      </trkpt>
      <trkpt lat="43.16602" lon="2.55368">
        <ele>285.17</ele>
        <time>2018-04-21T09:07:12Z</time>
      </trkpt>
      <trkpt lat="43.16601" lon="2.5536">
        <ele>286.61</ele>
        <time>2018-04-21T09:07:24Z</time>
      </trkpt>
      <trkpt lat="43.16598" lon="2.55352">
        <ele>288.53</ele>
        <time>2018-04-21T09:07:37Z</time>
      </trkpt>
      <trkpt lat="43.16595" lon="2.55345">
        <ele>289.97</ele>
        <time>2018-04-21T09:07:50Z</time>
      </trkpt>
      <trkpt lat="43.16594" lon="2.55346">
        <ele>290.94</ele>
        <time>2018-04-21T09:08:01Z</time>
      </trkpt>
      <trkpt lat="43.1659" lon="2.55335">
        <ele>292.38</ele>
        <time>2018-04-21T09:08:13Z</time>
      </trkpt>
      <trkpt lat="43.16587" lon="2.55326">
        <ele>294.3</ele>
        <time>2018-04-21T09:08:25Z</time>
      </trkpt>
      <trkpt lat="43.16584" lon="2.55318">
        <ele>295.74</ele>
        <time>2018-04-21T09:08:38Z</time>
      </trkpt>
      <trkpt lat="43.16578" lon="2.55308">
        <ele>297.18</ele>
        <time>2018-04-21T09:08:50Z</time>
      </trkpt>
      <trkpt lat="43.1657" lon="2.55294">
        <ele>298.15</ele>
        <time>2018-04-21T09:09:05Z</time>
      </trkpt>
      <trkpt lat="43.16565" lon="2.55288">
        <ele>298.63</ele>
        <time>2018-04-21T09:09:11Z</time>
      </trkpt>
      <trkpt lat="43.16559" lon="2.55278">
        <ele>300.07</ele>
        <time>2018-04-21T09:09:25Z</time>
      </trkpt>
      <trkpt lat="43.16553" lon="2.55267">
        <ele>301.51</ele>
        <time>2018-04-21T09:09:39Z</time>
      </trkpt>
      <trkpt lat="43.16545" lon="2.55253">
        <ele>302.95</ele>
        <time>2018-04-21T09:09:55Z</time>
      </trkpt>
      <trkpt lat="43.16541" lon="2.55241">
        <ele>303.91</ele>
        <time>2018-04-21T09:10:06Z</time>
      </trkpt>
      <trkpt lat="43.1654" lon="2.5524">
        <ele>303.91</ele>
        <time>2018-04-21T09:10:08Z</time>
      </trkpt>
      <trkpt lat="43.16535" lon="2.55226">
        <ele>305.84</ele>
        <time>2018-04-21T09:10:23Z</time>
      </trkpt>
      <trkpt lat="43.16529" lon="2.5521">
        <ele>307.28</ele>
        <time>2018-04-21T09:10:39Z</time>
      </trkpt>
      <trkpt lat="43.16525" lon="2.55199">
        <ele>308.72</ele>
        <time>2018-04-21T09:10:51Z</time>
      </trkpt>
      <trkpt lat="43.16525" lon="2.55198">
        <ele>308.72</ele>
        <time>2018-04-21T09:10:52Z</time>
      </trkpt>
      <trkpt lat="43.16518" lon="2.55182">
        <ele>310.16</ele>
        <time>2018-04-21T09:11:07Z</time>
      </trkpt>
      <trkpt lat="43.16514" lon="2.55168">
        <ele>311.6</ele>
        <time>2018-04-21T09:11:22Z</time>
      </trkpt>
      <trkpt lat="43.16507" lon="2.55153">
        <ele>314.01</ele>
        <time>2018-04-21T09:11:38Z</time>
      </trkpt>
      <trkpt lat="43.16502" lon="2.55142">
        <ele>314.97</ele>
        <time>2018-04-21T09:11:53Z</time>
      </trkpt>
      <trkpt lat="43.16497" lon="2.5513">
        <ele>316.41</ele>
        <time>2018-04-21T09:12:06Z</time>
      </trkpt>
      <trkpt lat="43.16491" lon="2.55118">
        <ele>317.85</ele>
        <time>2018-04-21T09:12:19Z</time>
      </trkpt>
      <trkpt lat="43.16487" lon="2.55107">
        <ele>319.78</ele>
        <time>2018-04-21T09:12:32Z</time>
      </trkpt>
      <trkpt lat="43.16482" lon="2.55099">
        <ele>321.7</ele>
        <time>2018-04-21T09:12:46Z</time>
      </trkpt>
      <trkpt lat="43.16477" lon="2.55088">
        <ele>323.14</ele>
        <time>2018-04-21T09:12:58Z</time>
      </trkpt>
      <trkpt lat="43.16473" lon="2.55081">
        <ele>324.58</ele>
        <time>2018-04-21T09:13:10Z</time>
      </trkpt>
      <trkpt lat="43.16466" lon="2.55069">
        <ele>326.5</ele>
        <time>2018-04-21T09:13:24Z</time>
      </trkpt>
      <trkpt lat="43.16459" lon="2.55054">
        <ele>328.43</ele>
        <time>2018-04-21T09:13:39Z</time>
      </trkpt>
      <trkpt lat="43.16453" lon="2.55048">
        <ele>329.39</ele>
        <time>2018-04-21T09:13:50Z</time>
      </trkpt>
      <trkpt lat="43.16436" lon="2.55032">
        <ele>332.27</ele>
        <time>2018-04-21T09:14:14Z</time>
      </trkpt>
      <trkpt lat="43.16432" lon="2.55019">
        <ele>333.23</ele>
        <time>2018-04-21T09:14:27Z</time>
      </trkpt>
      <trkpt lat="43.16426" lon="2.55009">
        <ele>336.6</ele>
        <time>2018-04-21T09:14:39Z</time>
      </trkpt>
      <trkpt lat="43.16422" lon="2.55">
        <ele>337.56</ele>
        <time>2018-04-21T09:14:52Z</time>
      </trkpt>
      <trkpt lat="43.16416" lon="2.5499">
        <ele>339.48</ele>
        <time>2018-04-21T09:15:06Z</time>
      </trkpt>
      <trkpt lat="43.16416" lon="2.54989">
        <ele>339.48</ele>
        <time>2018-04-21T09:15:07Z</time>
      </trkpt>
      <trkpt lat="43.16409" lon="2.54979">
        <ele>341.41</ele>
        <time>2018-04-21T09:15:20Z</time>
      </trkpt>
      <trkpt lat="43.16407" lon="2.54973">
        <ele>342.85</ele>
        <time>2018-04-21T09:15:32Z</time>
      </trkpt>
      <trkpt lat="43.16401" lon="2.54964">
        <ele>343.81</ele>
        <time>2018-04-21T09:15:46Z</time>
      </trkpt>
      <trkpt lat="43.16399" lon="2.54961">
        <ele>343.81</ele>
        <time>2018-04-21T09:15:50Z</time>
      </trkpt>
      <trkpt lat="43.1639" lon="2.54953">
        <ele>345.25</ele>
        <time>2018-04-21T09:16:04Z</time>
      </trkpt>
      <trkpt lat="43.1638" lon="2.54943">
        <ele>345.25</ele>
        <time>2018-04-21T09:16:18Z</time>
      </trkpt>
      <trkpt lat="43.16373" lon="2.54933">
        <ele>347.17</ele>
        <time>2018-04-21T09:16:30Z</time>
      </trkpt>
      <trkpt lat="43.16364" lon="2.54924">
        <ele>348.13</ele>
        <time>2018-04-21T09:16:45Z</time>
      </trkpt>
      <trkpt lat="43.16356" lon="2.54922">
        <ele>348.62</ele>
        <time>2018-04-21T09:16:57Z</time>
      </trkpt>
      <trkpt lat="43.16347" lon="2.54926">
        <ele>350.06</ele>
        <time>2018-04-21T09:17:11Z</time>
      </trkpt>
      <trkpt lat="43.1634" lon="2.54931">
        <ele>351.5</ele>
        <time>2018-04-21T09:17:25Z</time>
      </trkpt>
      <trkpt lat="43.16329" lon="2.54932">
        <ele>352.46</ele>
        <time>2018-04-21T09:17:42Z</time>
      </trkpt>
      <trkpt lat="43.16324" lon="2.54929">
        <ele>352.46</ele>
        <time>2018-04-21T09:17:47Z</time>
      </trkpt>
      <trkpt lat="43.16314" lon="2.54927">
        <ele>351.98</ele>
        <time>2018-04-21T09:17:57Z</time>
      </trkpt>
      <trkpt lat="43.16308" lon="2.54926">
        <ele>351.98</ele>
        <time>2018-04-21T09:18:02Z</time>
      </trkpt>
      <trkpt lat="43.16298" lon="2.54921">
        <ele>351.98</ele>
        <time>2018-04-21T09:18:15Z</time>
      </trkpt>
      <trkpt lat="43.16279" lon="2.54905">
        <ele>353.42</ele>
        <time>2018-04-21T09:25:19Z</time>
      </trkpt>
      <trkpt lat="43.16272" lon="2.54896">
        <ele>354.86</ele>
        <time>2018-04-21T09:25:31Z</time>
      </trkpt>
      <trkpt lat="43.1627" lon="2.54894">
        <ele>354.86</ele>
        <time>2018-04-21T09:25:35Z</time>
      </trkpt>
      <trkpt lat="43.1626" lon="2.54887">
        <ele>356.31</ele>
        <time>2018-04-21T09:25:51Z</time>
      </trkpt>
      <trkpt lat="43.16249" lon="2.54883">
        <ele>357.27</ele>
        <time>2018-04-21T09:26:05Z</time>
      </trkpt>
      <trkpt lat="43.1624" lon="2.5487">
        <ele>356.79</ele>
        <time>2018-04-21T09:26:30Z</time>
      </trkpt>
      <trkpt lat="43.16241" lon="2.54855">
        <ele>355.83</ele>
        <time>2018-04-21T09:26:44Z</time>
      </trkpt>
      <trkpt lat="43.1624" lon="2.54842">
        <ele>355.83</ele>
        <time>2018-04-21T09:26:57Z</time>
      </trkpt>
      <trkpt lat="43.1624" lon="2.54841">
        <ele>355.83</ele>
        <time>2018-04-21T09:26:58Z</time>
      </trkpt>
      <trkpt lat="43.16236" lon="2.54827">
        <ele>355.83</ele>
        <time>2018-04-21T09:27:11Z</time>
      </trkpt>
      <trkpt lat="43.16234" lon="2.5481">
        <ele>355.83</ele>
        <time>2018-04-21T09:27:23Z</time>
      </trkpt>
      <trkpt lat="43.16232" lon="2.54805">
        <ele>355.83</ele>
        <time>2018-04-21T09:27:27Z</time>
      </trkpt>
      <trkpt lat="43.16229" lon="2.54788">
        <ele>355.34</ele>
        <time>2018-04-21T09:27:41Z</time>
      </trkpt>
      <trkpt lat="43.16226" lon="2.54775">
        <ele>355.83</ele>
        <time>2018-04-21T09:27:52Z</time>
      </trkpt>
      <trkpt lat="43.16225" lon="2.54757">
        <ele>355.83</ele>
        <time>2018-04-21T09:28:05Z</time>
      </trkpt>
      <trkpt lat="43.16222" lon="2.54741">
        <ele>356.79</ele>
        <time>2018-04-21T09:28:18Z</time>
      </trkpt>
      <trkpt lat="43.16221" lon="2.54723">
        <ele>356.79</ele>
        <time>2018-04-21T09:28:31Z</time>
      </trkpt>
      <trkpt lat="43.1622" lon="2.54722">
        <ele>356.79</ele>
        <time>2018-04-21T09:28:32Z</time>
      </trkpt>
      <trkpt lat="43.16219" lon="2.54709">
        <ele>355.83</ele>
        <time>2018-04-21T09:28:42Z</time>
      </trkpt>
      <trkpt lat="43.16219" lon="2.54696">
        <ele>355.83</ele>
        <time>2018-04-21T09:28:54Z</time>
      </trkpt>
      <trkpt lat="43.16222" lon="2.54687">
        <ele>356.31</ele>
        <time>2018-04-21T09:29:03Z</time>
      </trkpt>
      <trkpt lat="43.16221" lon="2.5467">
        <ele>356.79</ele>
        <time>2018-04-21T09:29:16Z</time>
      </trkpt>
      <trkpt lat="43.16219" lon="2.54654">
        <ele>357.27</ele>
        <time>2018-04-21T09:29:29Z</time>
      </trkpt>
      <trkpt lat="43.16218" lon="2.5464">
        <ele>358.23</ele>
        <time>2018-04-21T09:29:40Z</time>
      </trkpt>
      <trkpt lat="43.16217" lon="2.54636">
        <ele>358.71</ele>
        <time>2018-04-21T09:29:44Z</time>
      </trkpt>
      <trkpt lat="43.16217" lon="2.54632">
        <ele>358.71</ele>
        <time>2018-04-21T09:29:48Z</time>
      </trkpt>
      <trkpt lat="43.16216" lon="2.54628">
        <ele>358.71</ele>
        <time>2018-04-21T09:29:51Z</time>
      </trkpt>
      <trkpt lat="43.16217" lon="2.5461">
        <ele>359.19</ele>
        <time>2018-04-21T09:30:06Z</time>
      </trkpt>
      <trkpt lat="43.16215" lon="2.54595">
        <ele>359.67</ele>
        <time>2018-04-21T09:30:24Z</time>
      </trkpt>
      <trkpt lat="43.16218" lon="2.54575">
        <ele>360.63</ele>
        <time>2018-04-21T09:30:51Z</time>
      </trkpt>
      <trkpt lat="43.1622" lon="2.54569">
        <ele>361.59</ele>
        <time>2018-04-21T09:31:08Z</time>
      </trkpt>
      <trkpt lat="43.16222" lon="2.54558">
        <ele>362.55</ele>
        <time>2018-04-21T09:31:21Z</time>
      </trkpt>
      <trkpt lat="43.16223" lon="2.54551">
        <ele>363.52</ele>
        <time>2018-04-21T09:31:29Z</time>
      </trkpt>
      <trkpt lat="43.16225" lon="2.5454">
        <ele>364.96</ele>
        <time>2018-04-21T09:31:42Z</time>
      </trkpt>
      <trkpt lat="43.16226" lon="2.54535">
        <ele>365.44</ele>
        <time>2018-04-21T09:31:47Z</time>
      </trkpt>
      <trkpt lat="43.1623" lon="2.54521">
        <ele>366.4</ele>
        <time>2018-04-21T09:32:01Z</time>
      </trkpt>
      <trkpt lat="43.16232" lon="2.54519">
        <ele>366.88</ele>
        <time>2018-04-21T09:32:03Z</time>
      </trkpt>
      <trkpt lat="43.16235" lon="2.54508">
        <ele>367.36</ele>
        <time>2018-04-21T09:32:16Z</time>
      </trkpt>
      <trkpt lat="43.1624" lon="2.54497">
        <ele>369.28</ele>
        <time>2018-04-21T09:32:29Z</time>
      </trkpt>
      <trkpt lat="43.1624" lon="2.54492">
        <ele>370.24</ele>
        <time>2018-04-21T09:32:44Z</time>
      </trkpt>
      <trkpt lat="43.16243" lon="2.54485">
        <ele>370.73</ele>
        <time>2018-04-21T09:33:07Z</time>
      </trkpt>
      <trkpt lat="43.16245" lon="2.54479">
        <ele>372.17</ele>
        <time>2018-04-21T09:33:18Z</time>
      </trkpt>
      <trkpt lat="43.16246" lon="2.54474">
        <ele>373.13</ele>
        <time>2018-04-21T09:33:31Z</time>
      </trkpt>
      <trkpt lat="43.16247" lon="2.54471">
        <ele>375.05</ele>
        <time>2018-04-21T09:33:44Z</time>
      </trkpt>
      <trkpt lat="43.16252" lon="2.54463">
        <ele>376.49</ele>
        <time>2018-04-21T09:34:01Z</time>
      </trkpt>
      <trkpt lat="43.16256" lon="2.54456">
        <ele>377.45</ele>
        <time>2018-04-21T09:34:13Z</time>
      </trkpt>
      <trkpt lat="43.1626" lon="2.54445">
        <ele>378.9</ele>
        <time>2018-04-21T09:34:26Z</time>
      </trkpt>
      <trkpt lat="43.16265" lon="2.5444">
        <ele>381.3</ele>
        <time>2018-04-21T09:34:41Z</time>
      </trkpt>
      <trkpt lat="43.16265" lon="2.54439">
        <ele>381.78</ele>
        <time>2018-04-21T09:34:44Z</time>
      </trkpt>
      <trkpt lat="43.1627" lon="2.54413">
        <ele>383.7</ele>
        <time>2018-04-21T09:35:12Z</time>
      </trkpt>
      <trkpt lat="43.16274" lon="2.54405">
        <ele>383.7</ele>
        <time>2018-04-21T09:35:26Z</time>
      </trkpt>
      <trkpt lat="43.16275" lon="2.54401">
        <ele>383.7</ele>
        <time>2018-04-21T09:36:01Z</time>
      </trkpt>
      <trkpt lat="43.16275" lon="2.54394">
        <ele>384.66</ele>
        <time>2018-04-21T09:36:13Z</time>
      </trkpt>
      <trkpt lat="43.16279" lon="2.54384">
        <ele>385.63</ele>
        <time>2018-04-21T09:36:24Z</time>
      </trkpt>
      <trkpt lat="43.16282" lon="2.54368">
        <ele>386.59</ele>
        <time>2018-04-21T09:36:38Z</time>
      </trkpt>
      <trkpt lat="43.16282" lon="2.54308">
        <ele>392.36</ele>
        <time>2018-04-21T09:37:45Z</time>
      </trkpt>
      <trkpt lat="43.1628" lon="2.54295">
        <ele>393.32</ele>
        <time>2018-04-21T09:37:58Z</time>
      </trkpt>
      <trkpt lat="43.16278" lon="2.54289">
        <ele>395.24</ele>
        <time>2018-04-21T09:38:11Z</time>
      </trkpt>
      <trkpt lat="43.16276" lon="2.54282">
        <ele>396.68</ele>
        <time>2018-04-21T09:38:23Z</time>
      </trkpt>
      <trkpt lat="43.16275" lon="2.54277">
        <ele>397.64</ele>
        <time>2018-04-21T09:38:29Z</time>
      </trkpt>
      <trkpt lat="43.16272" lon="2.54264">
        <ele>399.08</ele>
        <time>2018-04-21T09:38:43Z</time>
      </trkpt>
      <trkpt lat="43.16275" lon="2.54254">
        <ele>400.53</ele>
        <time>2018-04-21T09:38:55Z</time>
      </trkpt>
      <trkpt lat="43.1628" lon="2.54227">
        <ele>403.41</ele>
        <time>2018-04-21T09:39:25Z</time>
      </trkpt>
      <trkpt lat="43.16282" lon="2.54218">
        <ele>404.85</ele>
        <time>2018-04-21T09:39:39Z</time>
      </trkpt>
      <trkpt lat="43.16288" lon="2.54212">
        <ele>407.26</ele>
        <time>2018-04-21T09:39:52Z</time>
      </trkpt>
      <trkpt lat="43.16289" lon="2.54203">
        <ele>408.7</ele>
        <time>2018-04-21T09:40:07Z</time>
      </trkpt>
      <trkpt lat="43.16292" lon="2.54198">
        <ele>410.62</ele>
        <time>2018-04-21T09:40:19Z</time>
      </trkpt>
      <trkpt lat="43.16292" lon="2.54193">
        <ele>411.58</ele>
        <time>2018-04-21T09:40:38Z</time>
      </trkpt>
      <trkpt lat="43.16293" lon="2.54178">
        <ele>416.87</ele>
        <time>2018-04-21T09:41:55Z</time>
      </trkpt>
      <trkpt lat="43.16295" lon="2.54167">
        <ele>418.79</ele>
        <time>2018-04-21T09:42:09Z</time>
      </trkpt>
      <trkpt lat="43.16298" lon="2.54162">
        <ele>419.75</ele>
        <time>2018-04-21T09:42:19Z</time>
      </trkpt>
      <trkpt lat="43.16304" lon="2.54152">
        <ele>420.71</ele>
        <time>2018-04-21T09:42:31Z</time>
      </trkpt>
      <trkpt lat="43.16308" lon="2.54145">
        <ele>422.16</ele>
        <time>2018-04-21T09:42:45Z</time>
      </trkpt>
      <trkpt lat="43.16309" lon="2.54141">
        <ele>423.6</ele>
        <time>2018-04-21T09:43:00Z</time>
      </trkpt>
      <trkpt lat="43.16309" lon="2.54136">
        <ele>424.56</ele>
        <time>2018-04-21T09:43:14Z</time>
      </trkpt>
      <trkpt lat="43.16311" lon="2.54134">
        <ele>426</ele>
        <time>2018-04-21T09:43:27Z</time>
      </trkpt>
      <trkpt lat="43.1631" lon="2.54126">
        <ele>426.96</ele>
        <time>2018-04-21T09:43:44Z</time>
      </trkpt>
      <trkpt lat="43.16309" lon="2.54116">
        <ele>428.4</ele>
        <time>2018-04-21T09:43:57Z</time>
      </trkpt>
      <trkpt lat="43.1631" lon="2.54106">
        <ele>429.85</ele>
        <time>2018-04-21T09:44:09Z</time>
      </trkpt>
      <trkpt lat="43.16309" lon="2.54101">
        <ele>430.81</ele>
        <time>2018-04-21T09:44:20Z</time>
      </trkpt>
      <trkpt lat="43.16308" lon="2.541">
        <ele>430.81</ele>
        <time>2018-04-21T09:44:43Z</time>
      </trkpt>
      <trkpt lat="43.16308" lon="2.54097">
        <ele>430.81</ele>
        <time>2018-04-21T09:44:45Z</time>
      </trkpt>
      <trkpt lat="43.16307" lon="2.54081">
        <ele>433.21</ele>
        <time>2018-04-21T09:45:01Z</time>
      </trkpt>
      <trkpt lat="43.16308" lon="2.54071">
        <ele>434.17</ele>
        <time>2018-04-21T09:45:13Z</time>
      </trkpt>
      <trkpt lat="43.16307" lon="2.54067">
        <ele>434.65</ele>
        <time>2018-04-21T09:45:31Z</time>
      </trkpt>
      <trkpt lat="43.16309" lon="2.54067">
        <ele>434.65</ele>
        <time>2018-04-21T09:45:46Z</time>
      </trkpt>
      <trkpt lat="43.16309" lon="2.54067">
        <ele>434.65</ele>
        <time>2018-04-21T09:46:11Z</time>
      </trkpt>
      <trkpt lat="43.16308" lon="2.54067">
        <ele>434.65</ele>
        <time>2018-04-21T09:46:33Z</time>
      </trkpt>
      <trkpt lat="43.16308" lon="2.54068">
        <ele>435.13</ele>
        <time>2018-04-21T09:47:08Z</time>
      </trkpt>
      <trkpt lat="43.16308" lon="2.54068">
        <ele>434.65</ele>
        <time>2018-04-21T09:47:38Z</time>
      </trkpt>
      <trkpt lat="43.16307" lon="2.54065">
        <ele>435.13</ele>
        <time>2018-04-21T09:47:55Z</time>
      </trkpt>
      <trkpt lat="43.16308" lon="2.54065">
        <ele>434.65</ele>
        <time>2018-04-21T09:48:24Z</time>
      </trkpt>
      <trkpt lat="43.16309" lon="2.54063">
        <ele>435.13</ele>
        <time>2018-04-21T09:48:26Z</time>
      </trkpt>
      <trkpt lat="43.16312" lon="2.54051">
        <ele>436.58</ele>
        <time>2018-04-21T09:48:38Z</time>
      </trkpt>
      <trkpt lat="43.16313" lon="2.54042">
        <ele>437.54</ele>
        <time>2018-04-21T09:48:45Z</time>
      </trkpt>
      <trkpt lat="43.16311" lon="2.54036">
        <ele>438.5</ele>
        <time>2018-04-21T09:48:51Z</time>
      </trkpt>
      <trkpt lat="43.1631" lon="2.5403">
        <ele>438.5</ele>
        <time>2018-04-21T09:48:58Z</time>
      </trkpt>
      <trkpt lat="43.16306" lon="2.54028">
        <ele>438.5</ele>
        <time>2018-04-21T09:49:03Z</time>
      </trkpt>
      <trkpt lat="43.16303" lon="2.54025">
        <ele>438.98</ele>
        <time>2018-04-21T09:49:07Z</time>
      </trkpt>
      <trkpt lat="43.16296" lon="2.54013">
        <ele>440.42</ele>
        <time>2018-04-21T09:49:21Z</time>
      </trkpt>
      <trkpt lat="43.16293" lon="2.54009">
        <ele>440.9</ele>
        <time>2018-04-21T09:49:25Z</time>
      </trkpt>
      <trkpt lat="43.16293" lon="2.54006">
        <ele>441.38</ele>
        <time>2018-04-21T09:49:27Z</time>
      </trkpt>
      <trkpt lat="43.16286" lon="2.53999">
        <ele>442.34</ele>
        <time>2018-04-21T09:49:37Z</time>
      </trkpt>
      <trkpt lat="43.16283" lon="2.53998">
        <ele>442.82</ele>
        <time>2018-04-21T09:49:41Z</time>
      </trkpt>
      <trkpt lat="43.16279" lon="2.53994">
        <ele>443.31</ele>
        <time>2018-04-21T09:49:46Z</time>
      </trkpt>
      <trkpt lat="43.16273" lon="2.53985">
        <ele>445.23</ele>
        <time>2018-04-21T09:49:58Z</time>
      </trkpt>
      <trkpt lat="43.16272" lon="2.53984">
        <ele>444.75</ele>
        <time>2018-04-21T09:49:59Z</time>
      </trkpt>
      <trkpt lat="43.16272" lon="2.53969">
        <ele>446.19</ele>
        <time>2018-04-21T09:50:11Z</time>
      </trkpt>
      <trkpt lat="43.16274" lon="2.53951">
        <ele>447.15</ele>
        <time>2018-04-21T09:50:25Z</time>
      </trkpt>
      <trkpt lat="43.16267" lon="2.5394">
        <ele>449.55</ele>
        <time>2018-04-21T09:50:39Z</time>
      </trkpt>
      <trkpt lat="43.1626" lon="2.53929">
        <ele>451.48</ele>
        <time>2018-04-21T09:50:52Z</time>
      </trkpt>
      <trkpt lat="43.16259" lon="2.53913">
        <ele>453.88</ele>
        <time>2018-04-21T09:51:06Z</time>
      </trkpt>
      <trkpt lat="43.16256" lon="2.53909">
        <ele>454.36</ele>
        <time>2018-04-21T09:51:13Z</time>
      </trkpt>
      <trkpt lat="43.16251" lon="2.53901">
        <ele>455.8</ele>
        <time>2018-04-21T09:51:26Z</time>
      </trkpt>
      <trkpt lat="43.16251" lon="2.53895">
        <ele>455.8</ele>
        <time>2018-04-21T09:52:02Z</time>
      </trkpt>
      <trkpt lat="43.1625" lon="2.53893">
        <ele>456.28</ele>
        <time>2018-04-21T09:52:23Z</time>
      </trkpt>
      <trkpt lat="43.16249" lon="2.53891">
        <ele>456.76</ele>
        <time>2018-04-21T09:52:38Z</time>
      </trkpt>
      <trkpt lat="43.16249" lon="2.53889">
        <ele>456.76</ele>
        <time>2018-04-21T09:52:40Z</time>
      </trkpt>
      <trkpt lat="43.16243" lon="2.53858">
        <ele>460.13</ele>
        <time>2018-04-21T09:53:12Z</time>
      </trkpt>
      <trkpt lat="43.16242" lon="2.53855">
        <ele>460.61</ele>
        <time>2018-04-21T09:53:15Z</time>
      </trkpt>
      <trkpt lat="43.16241" lon="2.53849">
        <ele>461.09</ele>
        <time>2018-04-21T09:53:21Z</time>
      </trkpt>
      <trkpt lat="43.16237" lon="2.53844">
        <ele>461.57</ele>
        <time>2018-04-21T09:53:35Z</time>
      </trkpt>
      <trkpt lat="43.1623" lon="2.53831">
        <ele>463.49</ele>
        <time>2018-04-21T09:53:49Z</time>
      </trkpt>
      <trkpt lat="43.16229" lon="2.5383">
        <ele>463.49</ele>
        <time>2018-04-21T09:53:51Z</time>
      </trkpt>
      <trkpt lat="43.16227" lon="2.53821">
        <ele>463.97</ele>
        <time>2018-04-21T09:54:04Z</time>
      </trkpt>
      <trkpt lat="43.16226" lon="2.53816">
        <ele>464.45</ele>
        <time>2018-04-21T09:54:10Z</time>
      </trkpt>
      <trkpt lat="43.16227" lon="2.53806">
        <ele>465.42</ele>
        <time>2018-04-21T09:54:23Z</time>
      </trkpt>
      <trkpt lat="43.16228" lon="2.53802">
        <ele>465.9</ele>
        <time>2018-04-21T09:54:36Z</time>
      </trkpt>
      <trkpt lat="43.16228" lon="2.53799">
        <ele>465.9</ele>
        <time>2018-04-21T09:54:47Z</time>
      </trkpt>
      <trkpt lat="43.16227" lon="2.53799">
        <ele>465.42</ele>
        <time>2018-04-21T09:55:00Z</time>
      </trkpt>
      <trkpt lat="43.16228" lon="2.53797">
        <ele>465.9</ele>
        <time>2018-04-21T09:55:02Z</time>
      </trkpt>
      <trkpt lat="43.16233" lon="2.53788">
        <ele>467.34</ele>
        <time>2018-04-21T09:55:11Z</time>
      </trkpt>
      <trkpt lat="43.16235" lon="2.53787">
        <ele>467.82</ele>
        <time>2018-04-21T09:55:13Z</time>
      </trkpt>
      <trkpt lat="43.16237" lon="2.53772">
        <ele>469.26</ele>
        <time>2018-04-21T09:55:27Z</time>
      </trkpt>
      <trkpt lat="43.16236" lon="2.53764">
        <ele>470.22</ele>
        <time>2018-04-21T09:55:35Z</time>
      </trkpt>
      <trkpt lat="43.16234" lon="2.53751">
        <ele>470.22</ele>
        <time>2018-04-21T09:55:50Z</time>
      </trkpt>
      <trkpt lat="43.1623" lon="2.5374">
        <ele>469.26</ele>
        <time>2018-04-21T09:56:03Z</time>
      </trkpt>
      <trkpt lat="43.16226" lon="2.53733">
        <ele>468.3</ele>
        <time>2018-04-21T09:56:10Z</time>
      </trkpt>
      <trkpt lat="43.16224" lon="2.53729">
        <ele>468.3</ele>
        <time>2018-04-21T09:56:15Z</time>
      </trkpt>
      <trkpt lat="43.16218" lon="2.53717">
        <ele>467.34</ele>
        <time>2018-04-21T09:56:28Z</time>
      </trkpt>
      <trkpt lat="43.16213" lon="2.53709">
        <ele>466.38</ele>
        <time>2018-04-21T09:56:42Z</time>
      </trkpt>
      <trkpt lat="43.16212" lon="2.53703">
        <ele>465.9</ele>
        <time>2018-04-21T09:56:55Z</time>
      </trkpt>
      <trkpt lat="43.1621" lon="2.53691">
        <ele>463.97</ele>
        <time>2018-04-21T09:57:08Z</time>
      </trkpt>
      <trkpt lat="43.16208" lon="2.53681">
        <ele>463.01</ele>
        <time>2018-04-21T09:57:20Z</time>
      </trkpt>
      <trkpt lat="43.16207" lon="2.53674">
        <ele>463.01</ele>
        <time>2018-04-21T09:57:29Z</time>
      </trkpt>
      <trkpt lat="43.16209" lon="2.53666">
        <ele>462.05</ele>
        <time>2018-04-21T09:57:40Z</time>
      </trkpt>
      <trkpt lat="43.16212" lon="2.5366">
        <ele>460.61</ele>
        <time>2018-04-21T09:57:51Z</time>
      </trkpt>
      <trkpt lat="43.16213" lon="2.53665">
        <ele>461.09</ele>
        <time>2018-04-21T09:58:07Z</time>
      </trkpt>
      <trkpt lat="43.16213" lon="2.53655">
        <ele>459.65</ele>
        <time>2018-04-21T09:58:23Z</time>
      </trkpt>
      <trkpt lat="43.16216" lon="2.53645">
        <ele>457.72</ele>
        <time>2018-04-21T09:58:36Z</time>
      </trkpt>
      <trkpt lat="43.16222" lon="2.53639">
        <ele>455.8</ele>
        <time>2018-04-21T09:58:49Z</time>
      </trkpt>
      <trkpt lat="43.16225" lon="2.53634">
        <ele>453.88</ele>
        <time>2018-04-21T09:59:01Z</time>
      </trkpt>
      <trkpt lat="43.16224" lon="2.53627">
        <ele>452.44</ele>
        <time>2018-04-21T09:59:13Z</time>
      </trkpt>
      <trkpt lat="43.16225" lon="2.53618">
        <ele>450.03</ele>
        <time>2018-04-21T09:59:28Z</time>
      </trkpt>
      <trkpt lat="43.16229" lon="2.5361">
        <ele>449.07</ele>
        <time>2018-04-21T09:59:40Z</time>
      </trkpt>
      <trkpt lat="43.1623" lon="2.5361">
        <ele>447.63</ele>
        <time>2018-04-21T09:59:54Z</time>
      </trkpt>
      <trkpt lat="43.16234" lon="2.53602">
        <ele>445.71</ele>
        <time>2018-04-21T10:00:08Z</time>
      </trkpt>
      <trkpt lat="43.16234" lon="2.536">
        <ele>444.27</ele>
        <time>2018-04-21T10:00:19Z</time>
      </trkpt>
      <trkpt lat="43.16238" lon="2.53594">
        <ele>442.34</ele>
        <time>2018-04-21T10:00:42Z</time>
      </trkpt>
      <trkpt lat="43.16241" lon="2.53591">
        <ele>440.9</ele>
        <time>2018-04-21T10:00:53Z</time>
      </trkpt>
      <trkpt lat="43.16242" lon="2.53589">
        <ele>439.94</ele>
        <time>2018-04-21T10:01:05Z</time>
      </trkpt>
      <trkpt lat="43.16243" lon="2.5357">
        <ele>433.21</ele>
        <time>2018-04-21T10:02:09Z</time>
      </trkpt>
      <trkpt lat="43.16241" lon="2.53565">
        <ele>432.25</ele>
        <time>2018-04-21T10:02:20Z</time>
      </trkpt>
      <trkpt lat="43.16245" lon="2.53561">
        <ele>431.29</ele>
        <time>2018-04-21T10:02:31Z</time>
      </trkpt>
      <trkpt lat="43.16246" lon="2.53557">
        <ele>429.85</ele>
        <time>2018-04-21T10:02:46Z</time>
      </trkpt>
      <trkpt lat="43.16248" lon="2.5355">
        <ele>427.92</ele>
        <time>2018-04-21T10:03:00Z</time>
      </trkpt>
      <trkpt lat="43.16252" lon="2.53542">
        <ele>425.52</ele>
        <time>2018-04-21T10:03:17Z</time>
      </trkpt>
      <trkpt lat="43.16252" lon="2.53533">
        <ele>423.6</ele>
        <time>2018-04-21T10:03:33Z</time>
      </trkpt>
      <trkpt lat="43.1625" lon="2.53527">
        <ele>422.16</ele>
        <time>2018-04-21T10:03:47Z</time>
      </trkpt>
      <trkpt lat="43.16253" lon="2.53518">
        <ele>420.23</ele>
        <time>2018-04-21T10:04:01Z</time>
      </trkpt>
      <trkpt lat="43.1626" lon="2.53513">
        <ele>418.79</ele>
        <time>2018-04-21T10:04:14Z</time>
      </trkpt>
      <trkpt lat="43.16265" lon="2.53506">
        <ele>417.35</ele>
        <time>2018-04-21T10:04:28Z</time>
      </trkpt>
      <trkpt lat="43.16267" lon="2.53502">
        <ele>416.39</ele>
        <time>2018-04-21T10:04:40Z</time>
      </trkpt>
      <trkpt lat="43.1627" lon="2.53497">
        <ele>415.43</ele>
        <time>2018-04-21T10:04:58Z</time>
      </trkpt>
      <trkpt lat="43.16272" lon="2.53483">
        <ele>412.06</ele>
        <time>2018-04-21T10:05:18Z</time>
      </trkpt>
      <trkpt lat="43.16269" lon="2.53481">
        <ele>412.06</ele>
        <time>2018-04-21T10:05:22Z</time>
      </trkpt>
      <trkpt lat="43.16271" lon="2.5347">
        <ele>410.14</ele>
        <time>2018-04-21T10:05:35Z</time>
      </trkpt>
      <trkpt lat="43.16272" lon="2.53467">
        <ele>409.66</ele>
        <time>2018-04-21T10:05:47Z</time>
      </trkpt>
      <trkpt lat="43.16275" lon="2.5346">
        <ele>407.74</ele>
        <time>2018-04-21T10:06:00Z</time>
      </trkpt>
      <trkpt lat="43.16277" lon="2.53447">
        <ele>405.33</ele>
        <time>2018-04-21T10:06:23Z</time>
      </trkpt>
      <trkpt lat="43.1628" lon="2.53437">
        <ele>404.37</ele>
        <time>2018-04-21T10:06:37Z</time>
      </trkpt>
      <trkpt lat="43.16279" lon="2.53429">
        <ele>403.41</ele>
        <time>2018-04-21T10:06:46Z</time>
      </trkpt>
      <trkpt lat="43.16273" lon="2.53413">
        <ele>401.49</ele>
        <time>2018-04-21T10:07:13Z</time>
      </trkpt>
      <trkpt lat="43.16269" lon="2.53411">
        <ele>401.01</ele>
        <time>2018-04-21T10:07:18Z</time>
      </trkpt>
      <trkpt lat="43.16265" lon="2.53398">
        <ele>399.57</ele>
        <time>2018-04-21T10:07:30Z</time>
      </trkpt>
      <trkpt lat="43.16261" lon="2.53394">
        <ele>398.6</ele>
        <time>2018-04-21T10:07:42Z</time>
      </trkpt>
      <trkpt lat="43.16261" lon="2.53393">
        <ele>398.6</ele>
        <time>2018-04-21T10:07:43Z</time>
      </trkpt>
      <trkpt lat="43.16261" lon="2.53382">
        <ele>397.64</ele>
        <time>2018-04-21T10:07:54Z</time>
      </trkpt>
      <trkpt lat="43.1626" lon="2.53361">
        <ele>395.72</ele>
        <time>2018-04-21T10:08:17Z</time>
      </trkpt>
      <trkpt lat="43.16259" lon="2.53352">
        <ele>395.72</ele>
        <time>2018-04-21T10:08:23Z</time>
      </trkpt>
      <trkpt lat="43.16266" lon="2.53335">
        <ele>396.2</ele>
        <time>2018-04-21T10:08:37Z</time>
      </trkpt>
      <trkpt lat="43.16269" lon="2.53326">
        <ele>396.68</ele>
        <time>2018-04-21T10:09:22Z</time>
      </trkpt>
      <trkpt lat="43.1627" lon="2.53319">
        <ele>397.64</ele>
        <time>2018-04-21T10:09:28Z</time>
      </trkpt>
      <trkpt lat="43.16272" lon="2.53313">
        <ele>397.16</ele>
        <time>2018-04-21T10:09:42Z</time>
      </trkpt>
      <trkpt lat="43.16274" lon="2.53302">
        <ele>397.16</ele>
        <time>2018-04-21T10:09:54Z</time>
      </trkpt>
      <trkpt lat="43.16278" lon="2.5329">
        <ele>398.12</ele>
        <time>2018-04-21T10:10:06Z</time>
      </trkpt>
      <trkpt lat="43.16281" lon="2.53272">
        <ele>398.12</ele>
        <time>2018-04-21T10:10:20Z</time>
      </trkpt>
      <trkpt lat="43.16285" lon="2.5326">
        <ele>399.08</ele>
        <time>2018-04-21T10:10:35Z</time>
      </trkpt>
      <trkpt lat="43.16284" lon="2.5326">
        <ele>399.08</ele>
        <time>2018-04-21T10:10:58Z</time>
      </trkpt>
      <trkpt lat="43.16286" lon="2.53255">
        <ele>399.08</ele>
        <time>2018-04-21T10:11:25Z</time>
      </trkpt>
      <trkpt lat="43.16288" lon="2.53248">
        <ele>400.05</ele>
        <time>2018-04-21T10:11:31Z</time>
      </trkpt>
      <trkpt lat="43.16289" lon="2.53238">
        <ele>400.53</ele>
        <time>2018-04-21T10:11:38Z</time>
      </trkpt>
      <trkpt lat="43.16289" lon="2.53235">
        <ele>400.53</ele>
        <time>2018-04-21T10:11:40Z</time>
      </trkpt>
      <trkpt lat="43.16293" lon="2.53211">
        <ele>401.01</ele>
        <time>2018-04-21T10:11:57Z</time>
      </trkpt>
      <trkpt lat="43.16293" lon="2.5321">
        <ele>401.01</ele>
        <time>2018-04-21T10:11:58Z</time>
      </trkpt>
      <trkpt lat="43.16299" lon="2.5319">
        <ele>401.01</ele>
        <time>2018-04-21T10:12:13Z</time>
      </trkpt>
      <trkpt lat="43.16306" lon="2.53172">
        <ele>401.01</ele>
        <time>2018-04-21T10:12:28Z</time>
      </trkpt>
      <trkpt lat="43.16307" lon="2.5317">
        <ele>401.49</ele>
        <time>2018-04-21T10:12:30Z</time>
      </trkpt>
      <trkpt lat="43.16311" lon="2.53151">
        <ele>402.45</ele>
        <time>2018-04-21T10:12:44Z</time>
      </trkpt>
      <trkpt lat="43.16314" lon="2.53146">
        <ele>401.97</ele>
        <time>2018-04-21T10:12:57Z</time>
      </trkpt>
      <trkpt lat="43.16316" lon="2.53124">
        <ele>402.93</ele>
        <time>2018-04-21T10:13:12Z</time>
      </trkpt>
      <trkpt lat="43.16318" lon="2.53113">
        <ele>402.93</ele>
        <time>2018-04-21T10:13:21Z</time>
      </trkpt>
      <trkpt lat="43.16325" lon="2.53102">
        <ele>403.89</ele>
        <time>2018-04-21T10:13:32Z</time>
      </trkpt>
      <trkpt lat="43.16327" lon="2.53087">
        <ele>404.37</ele>
        <time>2018-04-21T10:13:45Z</time>
      </trkpt>
      <trkpt lat="43.16329" lon="2.53068">
        <ele>404.85</ele>
        <time>2018-04-21T10:14:00Z</time>
      </trkpt>
      <trkpt lat="43.16331" lon="2.53054">
        <ele>403.89</ele>
        <time>2018-04-21T10:14:15Z</time>
      </trkpt>
      <trkpt lat="43.16333" lon="2.53054">
        <ele>404.37</ele>
        <time>2018-04-21T10:14:43Z</time>
      </trkpt>
      <trkpt lat="43.16333" lon="2.53053">
        <ele>403.89</ele>
        <time>2018-04-21T10:15:08Z</time>
      </trkpt>
      <trkpt lat="43.16332" lon="2.53057">
        <ele>403.89</ele>
        <time>2018-04-21T10:15:21Z</time>
      </trkpt>
      <trkpt lat="43.16332" lon="2.53059">
        <ele>404.85</ele>
        <time>2018-04-21T10:15:25Z</time>
      </trkpt>
      <trkpt lat="43.1633" lon="2.53063">
        <ele>404.37</ele>
        <time>2018-04-21T10:15:39Z</time>
      </trkpt>
      <trkpt lat="43.16335" lon="2.53038">
        <ele>398.6</ele>
        <time>2018-04-21T10:17:11Z</time>
      </trkpt>
      <trkpt lat="43.16336" lon="2.53034">
        <ele>397.64</ele>
        <time>2018-04-21T10:17:35Z</time>
      </trkpt>
      <trkpt lat="43.16339" lon="2.5302">
        <ele>389.95</ele>
        <time>2018-04-21T10:20:02Z</time>
      </trkpt>
      <trkpt lat="43.16334" lon="2.53019">
        <ele>388.51</ele>
        <time>2018-04-21T10:20:16Z</time>
      </trkpt>
      <trkpt lat="43.16333" lon="2.5302">
        <ele>388.03</ele>
        <time>2018-04-21T10:20:35Z</time>
      </trkpt>
      <trkpt lat="43.1633" lon="2.53021">
        <ele>387.55</ele>
        <time>2018-04-21T10:20:50Z</time>
      </trkpt>
      <trkpt lat="43.16327" lon="2.53023">
        <ele>387.07</ele>
        <time>2018-04-21T10:20:53Z</time>
      </trkpt>
      <trkpt lat="43.16315" lon="2.53024">
        <ele>385.63</ele>
        <time>2018-04-21T10:21:09Z</time>
      </trkpt>
      <trkpt lat="43.16314" lon="2.53025">
        <ele>385.63</ele>
        <time>2018-04-21T10:21:11Z</time>
      </trkpt>
      <trkpt lat="43.16308" lon="2.53024">
        <ele>383.7</ele>
        <time>2018-04-21T10:21:25Z</time>
      </trkpt>
      <trkpt lat="43.16306" lon="2.53019">
        <ele>382.74</ele>
        <time>2018-04-21T10:21:36Z</time>
      </trkpt>
      <trkpt lat="43.16305" lon="2.53017">
        <ele>381.78</ele>
        <time>2018-04-21T10:21:50Z</time>
      </trkpt>
      <trkpt lat="43.163" lon="2.53014">
        <ele>378.9</ele>
        <time>2018-04-21T10:23:51Z</time>
      </trkpt>
      <trkpt lat="43.163" lon="2.53013">
        <ele>378.9</ele>
        <time>2018-04-21T10:24:19Z</time>
      </trkpt>
      <trkpt lat="43.163" lon="2.53012">
        <ele>378.9</ele>
        <time>2018-04-21T10:24:39Z</time>
      </trkpt>
      <trkpt lat="43.16296" lon="2.53013">
        <ele>378.42</ele>
        <time>2018-04-21T10:25:00Z</time>
      </trkpt>
      <trkpt lat="43.16293" lon="2.53011">
        <ele>376.49</ele>
        <time>2018-04-21T10:25:12Z</time>
      </trkpt>
      <trkpt lat="43.16289" lon="2.53003">
        <ele>373.13</ele>
        <time>2018-04-21T10:25:40Z</time>
      </trkpt>
      <trkpt lat="43.16286" lon="2.53002">
        <ele>371.69</ele>
        <time>2018-04-21T10:25:55Z</time>
      </trkpt>
      <trkpt lat="43.1628" lon="2.53">
        <ele>369.28</ele>
        <time>2018-04-21T10:26:07Z</time>
      </trkpt>
      <trkpt lat="43.16277" lon="2.52995">
        <ele>367.84</ele>
        <time>2018-04-21T10:26:20Z</time>
      </trkpt>
      <trkpt lat="43.16272" lon="2.52995">
        <ele>366.4</ele>
        <time>2018-04-21T10:26:39Z</time>
      </trkpt>
      <trkpt lat="43.1627" lon="2.5299">
        <ele>364.48</ele>
        <time>2018-04-21T10:26:52Z</time>
      </trkpt>
      <trkpt lat="43.16265" lon="2.52987">
        <ele>361.59</ele>
        <time>2018-04-21T10:27:18Z</time>
      </trkpt>
      <trkpt lat="43.16264" lon="2.5298">
        <ele>360.63</ele>
        <time>2018-04-21T10:27:31Z</time>
      </trkpt>
      <trkpt lat="43.16264" lon="2.52977">
        <ele>359.19</ele>
        <time>2018-04-21T10:27:44Z</time>
      </trkpt>
      <trkpt lat="43.16261" lon="2.52974">
        <ele>358.23</ele>
        <time>2018-04-21T10:28:01Z</time>
      </trkpt>
      <trkpt lat="43.16261" lon="2.52964">
        <ele>356.31</ele>
        <time>2018-04-21T10:28:13Z</time>
      </trkpt>
      <trkpt lat="43.16262" lon="2.52957">
        <ele>354.38</ele>
        <time>2018-04-21T10:28:26Z</time>
      </trkpt>
      <trkpt lat="43.16264" lon="2.52947">
        <ele>351.98</ele>
        <time>2018-04-21T10:28:38Z</time>
      </trkpt>
      <trkpt lat="43.16268" lon="2.52945">
        <ele>351.02</ele>
        <time>2018-04-21T10:28:52Z</time>
      </trkpt>
      <trkpt lat="43.16267" lon="2.52941">
        <ele>349.58</ele>
        <time>2018-04-21T10:29:06Z</time>
      </trkpt>
      <trkpt lat="43.16262" lon="2.52937">
        <ele>348.13</ele>
        <time>2018-04-21T10:29:19Z</time>
      </trkpt>
      <trkpt lat="43.1626" lon="2.52934">
        <ele>346.69</ele>
        <time>2018-04-21T10:29:31Z</time>
      </trkpt>
      <trkpt lat="43.16257" lon="2.52928">
        <ele>344.29</ele>
        <time>2018-04-21T10:29:45Z</time>
      </trkpt>
      <trkpt lat="43.16255" lon="2.52923">
        <ele>342.85</ele>
        <time>2018-04-21T10:29:56Z</time>
      </trkpt>
      <trkpt lat="43.16247" lon="2.52921">
        <ele>341.41</ele>
        <time>2018-04-21T10:30:11Z</time>
      </trkpt>
      <trkpt lat="43.16247" lon="2.52916">
        <ele>339.48</ele>
        <time>2018-04-21T10:30:24Z</time>
      </trkpt>
      <trkpt lat="43.16244" lon="2.52915">
        <ele>338.52</ele>
        <time>2018-04-21T10:30:39Z</time>
      </trkpt>
      <trkpt lat="43.16245" lon="2.52906">
        <ele>337.08</ele>
        <time>2018-04-21T10:30:53Z</time>
      </trkpt>
      <trkpt lat="43.16246" lon="2.52899">
        <ele>335.16</ele>
        <time>2018-04-21T10:31:06Z</time>
      </trkpt>
      <trkpt lat="43.16244" lon="2.52894">
        <ele>333.71</ele>
        <time>2018-04-21T10:31:18Z</time>
      </trkpt>
      <trkpt lat="43.16247" lon="2.52886">
        <ele>333.23</ele>
        <time>2018-04-21T10:31:32Z</time>
      </trkpt>
      <trkpt lat="43.16248" lon="2.52882">
        <ele>331.31</ele>
        <time>2018-04-21T10:31:44Z</time>
      </trkpt>
      <trkpt lat="43.16248" lon="2.52877">
        <ele>329.87</ele>
        <time>2018-04-21T10:31:58Z</time>
      </trkpt>
      <trkpt lat="43.16247" lon="2.52874">
        <ele>328.43</ele>
        <time>2018-04-21T10:32:10Z</time>
      </trkpt>
      <trkpt lat="43.16247" lon="2.52867">
        <ele>327.95</ele>
        <time>2018-04-21T10:32:21Z</time>
      </trkpt>
      <trkpt lat="43.16247" lon="2.52865">
        <ele>326.02</ele>
        <time>2018-04-21T10:32:37Z</time>
      </trkpt>
      <trkpt lat="43.16249" lon="2.52863">
        <ele>325.06</ele>
        <time>2018-04-21T10:32:50Z</time>
      </trkpt>
      <trkpt lat="43.16248" lon="2.5286">
        <ele>323.62</ele>
        <time>2018-04-21T10:33:05Z</time>
      </trkpt>
      <trkpt lat="43.16247" lon="2.52856">
        <ele>322.18</ele>
        <time>2018-04-21T10:33:17Z</time>
      </trkpt>
      <trkpt lat="43.16245" lon="2.52852">
        <ele>320.74</ele>
        <time>2018-04-21T10:33:30Z</time>
      </trkpt>
      <trkpt lat="43.16245" lon="2.52849">
        <ele>320.26</ele>
        <time>2018-04-21T10:33:42Z</time>
      </trkpt>
      <trkpt lat="43.16244" lon="2.52845">
        <ele>319.3</ele>
        <time>2018-04-21T10:33:54Z</time>
      </trkpt>
      <trkpt lat="43.16241" lon="2.52841">
        <ele>317.85</ele>
        <time>2018-04-21T10:34:05Z</time>
      </trkpt>
      <trkpt lat="43.1624" lon="2.52832">
        <ele>315.93</ele>
        <time>2018-04-21T10:34:18Z</time>
      </trkpt>
      <trkpt lat="43.16241" lon="2.52827">
        <ele>314.01</ele>
        <time>2018-04-21T10:34:31Z</time>
      </trkpt>
      <trkpt lat="43.1624" lon="2.52823">
        <ele>312.57</ele>
        <time>2018-04-21T10:34:43Z</time>
      </trkpt>
      <trkpt lat="43.16237" lon="2.52815">
        <ele>310.16</ele>
        <time>2018-04-21T10:34:58Z</time>
      </trkpt>
      <trkpt lat="43.16236" lon="2.52806">
        <ele>308.24</ele>
        <time>2018-04-21T10:35:11Z</time>
      </trkpt>
      <trkpt lat="43.16235" lon="2.52804">
        <ele>308.24</ele>
        <time>2018-04-21T10:35:15Z</time>
      </trkpt>
      <trkpt lat="43.16233" lon="2.528">
        <ele>306.8</ele>
        <time>2018-04-21T10:35:28Z</time>
      </trkpt>
      <trkpt lat="43.16232" lon="2.52792">
        <ele>305.84</ele>
        <time>2018-04-21T10:35:39Z</time>
      </trkpt>
      <trkpt lat="43.16229" lon="2.52787">
        <ele>305.36</ele>
        <time>2018-04-21T10:40:24Z</time>
      </trkpt>
      <trkpt lat="43.1623" lon="2.52787">
        <ele>304.88</ele>
        <time>2018-04-21T10:40:41Z</time>
      </trkpt>
      <trkpt lat="43.1623" lon="2.52787">
        <ele>304.88</ele>
        <time>2018-04-21T10:41:03Z</time>
      </trkpt>
      <trkpt lat="43.16231" lon="2.52788">
        <ele>305.36</ele>
        <time>2018-04-21T10:41:25Z</time>
      </trkpt>
      <trkpt lat="43.16231" lon="2.52788">
        <ele>304.88</ele>
        <time>2018-04-21T10:41:48Z</time>
      </trkpt>
      <trkpt lat="43.16231" lon="2.52788">
        <ele>304.88</ele>
        <time>2018-04-21T10:42:04Z</time>
      </trkpt>
      <trkpt lat="43.16232" lon="2.52787">
        <ele>304.88</ele>
        <time>2018-04-21T10:42:13Z</time>
      </trkpt>
      <trkpt lat="43.1625" lon="2.52786">
        <ele>304.88</ele>
        <time>2018-04-21T10:42:30Z</time>
      </trkpt>
      <trkpt lat="43.1626" lon="2.52788">
        <ele>304.88</ele>
        <time>2018-04-21T10:42:43Z</time>
      </trkpt>
      <trkpt lat="43.16268" lon="2.52789">
        <ele>305.84</ele>
        <time>2018-04-21T10:42:51Z</time>
      </trkpt>
      <trkpt lat="43.16282" lon="2.5279">
        <ele>305.84</ele>
        <time>2018-04-21T10:43:08Z</time>
      </trkpt>
      <trkpt lat="43.16298" lon="2.52786">
        <ele>304.39</ele>
        <time>2018-04-21T10:43:26Z</time>
      </trkpt>
      <trkpt lat="43.16309" lon="2.52783">
        <ele>303.43</ele>
        <time>2018-04-21T10:43:40Z</time>
      </trkpt>
      <trkpt lat="43.16321" lon="2.52777">
        <ele>302.95</ele>
        <time>2018-04-21T10:43:55Z</time>
      </trkpt>
      <trkpt lat="43.16327" lon="2.52771">
        <ele>301.99</ele>
        <time>2018-04-21T10:44:06Z</time>
      </trkpt>
      <trkpt lat="43.16339" lon="2.52774">
        <ele>303.91</ele>
        <time>2018-04-21T10:44:20Z</time>
      </trkpt>
      <trkpt lat="43.16352" lon="2.52771">
        <ele>303.91</ele>
        <time>2018-04-21T10:44:35Z</time>
      </trkpt>
      <trkpt lat="43.16366" lon="2.52765">
        <ele>302.95</ele>
        <time>2018-04-21T10:44:50Z</time>
      </trkpt>
      <trkpt lat="43.16379" lon="2.52757">
        <ele>301.99</ele>
        <time>2018-04-21T10:45:04Z</time>
      </trkpt>
      <trkpt lat="43.1638" lon="2.52756">
        <ele>301.99</ele>
        <time>2018-04-21T10:45:18Z</time>
      </trkpt>
      <trkpt lat="43.16381" lon="2.52754">
        <ele>301.51</ele>
        <time>2018-04-21T10:45:27Z</time>
      </trkpt>
      <trkpt lat="43.16386" lon="2.52748">
        <ele>300.55</ele>
        <time>2018-04-21T10:45:33Z</time>
      </trkpt>
      <trkpt lat="43.16388" lon="2.52745">
        <ele>300.07</ele>
        <time>2018-04-21T10:45:35Z</time>
      </trkpt>
      <trkpt lat="43.16392" lon="2.52738">
        <ele>299.11</ele>
        <time>2018-04-21T10:45:54Z</time>
      </trkpt>
      <trkpt lat="43.1639" lon="2.52736">
        <ele>298.15</ele>
        <time>2018-04-21T10:45:57Z</time>
      </trkpt>
      <trkpt lat="43.16392" lon="2.52721">
        <ele>296.7</ele>
        <time>2018-04-21T10:46:11Z</time>
      </trkpt>
      <trkpt lat="43.16393" lon="2.52721">
        <ele>296.22</ele>
        <time>2018-04-21T10:46:26Z</time>
      </trkpt>
      <trkpt lat="43.16391" lon="2.52719">
        <ele>295.26</ele>
        <time>2018-04-21T10:46:41Z</time>
      </trkpt>
      <trkpt lat="43.16393" lon="2.52711">
        <ele>292.86</ele>
        <time>2018-04-21T10:46:56Z</time>
      </trkpt>
      <trkpt lat="43.16397" lon="2.52697">
        <ele>292.86</ele>
        <time>2018-04-21T10:47:09Z</time>
      </trkpt>
      <trkpt lat="43.16401" lon="2.5268">
        <ele>293.82</ele>
        <time>2018-04-21T10:47:25Z</time>
      </trkpt>
      <trkpt lat="43.16401" lon="2.52677">
        <ele>293.82</ele>
        <time>2018-04-21T10:47:41Z</time>
      </trkpt>
      <trkpt lat="43.164" lon="2.52669">
        <ele>293.34</ele>
        <time>2018-04-21T10:47:52Z</time>
      </trkpt>
      <trkpt lat="43.164" lon="2.52662">
        <ele>294.3</ele>
        <time>2018-04-21T10:47:57Z</time>
      </trkpt>
      <trkpt lat="43.16397" lon="2.52645">
        <ele>296.22</ele>
        <time>2018-04-21T10:48:10Z</time>
      </trkpt>
      <trkpt lat="43.16397" lon="2.52638">
        <ele>297.18</ele>
        <time>2018-04-21T10:48:25Z</time>
      </trkpt>
      <trkpt lat="43.16395" lon="2.5264">
        <ele>297.18</ele>
        <time>2018-04-21T10:48:46Z</time>
      </trkpt>
      <trkpt lat="43.1639" lon="2.52632">
        <ele>300.07</ele>
        <time>2018-04-21T10:48:59Z</time>
      </trkpt>
      <trkpt lat="43.16385" lon="2.52625">
        <ele>301.51</ele>
        <time>2018-04-21T10:49:10Z</time>
      </trkpt>
      <trkpt lat="43.1638" lon="2.52621">
        <ele>302.95</ele>
        <time>2018-04-21T10:49:22Z</time>
      </trkpt>
      <trkpt lat="43.16373" lon="2.52618">
        <ele>304.88</ele>
        <time>2018-04-21T10:49:35Z</time>
      </trkpt>
      <trkpt lat="43.16374" lon="2.5261">
        <ele>304.39</ele>
        <time>2018-04-21T10:49:56Z</time>
      </trkpt>
      <trkpt lat="43.16372" lon="2.52603">
        <ele>307.28</ele>
        <time>2018-04-21T10:50:12Z</time>
      </trkpt>
      <trkpt lat="43.16373" lon="2.52603">
        <ele>307.28</ele>
        <time>2018-04-21T10:50:14Z</time>
      </trkpt>
      <trkpt lat="43.16378" lon="2.52593">
        <ele>307.76</ele>
        <time>2018-04-21T10:50:28Z</time>
      </trkpt>
      <trkpt lat="43.16379" lon="2.52589">
        <ele>308.24</ele>
        <time>2018-04-21T10:50:48Z</time>
      </trkpt>
      <trkpt lat="43.16382" lon="2.5258">
        <ele>310.16</ele>
        <time>2018-04-21T10:51:01Z</time>
      </trkpt>
      <trkpt lat="43.16388" lon="2.52572">
        <ele>310.16</ele>
        <time>2018-04-21T10:51:11Z</time>
      </trkpt>
      <trkpt lat="43.16395" lon="2.52557">
        <ele>311.12</ele>
        <time>2018-04-21T10:51:25Z</time>
      </trkpt>
      <trkpt lat="43.16398" lon="2.52547">
        <ele>312.57</ele>
        <time>2018-04-21T10:51:40Z</time>
      </trkpt>
      <trkpt lat="43.164" lon="2.52541">
        <ele>314.01</ele>
        <time>2018-04-21T10:51:52Z</time>
      </trkpt>
      <trkpt lat="43.16404" lon="2.52532">
        <ele>314.97</ele>
        <time>2018-04-21T10:52:05Z</time>
      </trkpt>
      <trkpt lat="43.16402" lon="2.52525">
        <ele>316.41</ele>
        <time>2018-04-21T10:52:19Z</time>
      </trkpt>
      <trkpt lat="43.16406" lon="2.52515">
        <ele>317.37</ele>
        <time>2018-04-21T10:52:33Z</time>
      </trkpt>
      <trkpt lat="43.1641" lon="2.52506">
        <ele>318.81</ele>
        <time>2018-04-21T10:52:45Z</time>
      </trkpt>
      <trkpt lat="43.16414" lon="2.52496">
        <ele>318.81</ele>
        <time>2018-04-21T10:52:57Z</time>
      </trkpt>
      <trkpt lat="43.16417" lon="2.52484">
        <ele>317.85</ele>
        <time>2018-04-21T10:53:13Z</time>
      </trkpt>
      <trkpt lat="43.16422" lon="2.52476">
        <ele>319.3</ele>
        <time>2018-04-21T10:53:27Z</time>
      </trkpt>
      <trkpt lat="43.16421" lon="2.52464">
        <ele>321.7</ele>
        <time>2018-04-21T10:53:41Z</time>
      </trkpt>
      <trkpt lat="43.16422" lon="2.52458">
        <ele>322.18</ele>
        <time>2018-04-21T10:53:54Z</time>
      </trkpt>
      <trkpt lat="43.16422" lon="2.5246">
        <ele>323.14</ele>
        <time>2018-04-21T10:54:17Z</time>
      </trkpt>
      <trkpt lat="43.16422" lon="2.52461">
        <ele>322.18</ele>
        <time>2018-04-21T10:54:51Z</time>
      </trkpt>
      <trkpt lat="43.16421" lon="2.52449">
        <ele>323.62</ele>
        <time>2018-04-21T10:55:05Z</time>
      </trkpt>
      <trkpt lat="43.1642" lon="2.52447">
        <ele>324.58</ele>
        <time>2018-04-21T10:55:19Z</time>
      </trkpt>
      <trkpt lat="43.16425" lon="2.52435">
        <ele>326.5</ele>
        <time>2018-04-21T10:55:30Z</time>
      </trkpt>
      <trkpt lat="43.16429" lon="2.52427">
        <ele>327.47</ele>
        <time>2018-04-21T10:55:44Z</time>
      </trkpt>
      <trkpt lat="43.16433" lon="2.52421">
        <ele>328.43</ele>
        <time>2018-04-21T10:55:57Z</time>
      </trkpt>
      <trkpt lat="43.16434" lon="2.52419">
        <ele>328.43</ele>
        <time>2018-04-21T10:56:10Z</time>
      </trkpt>
      <trkpt lat="43.16435" lon="2.52416">
        <ele>328.91</ele>
        <time>2018-04-21T10:56:34Z</time>
      </trkpt>
      <trkpt lat="43.16435" lon="2.52416">
        <ele>327.47</ele>
        <time>2018-04-21T10:57:03Z</time>
      </trkpt>
      <trkpt lat="43.16437" lon="2.52415">
        <ele>328.43</ele>
        <time>2018-04-21T10:57:21Z</time>
      </trkpt>
      <trkpt lat="43.16446" lon="2.52405">
        <ele>326.99</ele>
        <time>2018-04-21T10:57:34Z</time>
      </trkpt>
      <trkpt lat="43.16455" lon="2.524">
        <ele>327.95</ele>
        <time>2018-04-21T10:57:47Z</time>
      </trkpt>
      <trkpt lat="43.16456" lon="2.524">
        <ele>327.95</ele>
        <time>2018-04-21T10:57:48Z</time>
      </trkpt>
      <trkpt lat="43.16466" lon="2.52392">
        <ele>327.95</ele>
        <time>2018-04-21T10:58:00Z</time>
      </trkpt>
      <trkpt lat="43.16468" lon="2.52392">
        <ele>327.95</ele>
        <time>2018-04-21T10:58:03Z</time>
      </trkpt>
      <trkpt lat="43.16472" lon="2.52393">
        <ele>327.95</ele>
        <time>2018-04-21T10:58:07Z</time>
      </trkpt>
      <trkpt lat="43.16476" lon="2.52393">
        <ele>327.95</ele>
        <time>2018-04-21T10:58:11Z</time>
      </trkpt>
      <trkpt lat="43.1648" lon="2.52381">
        <ele>329.87</ele>
        <time>2018-04-21T10:58:25Z</time>
      </trkpt>
      <trkpt lat="43.1648" lon="2.5238">
        <ele>329.87</ele>
        <time>2018-04-21T10:58:26Z</time>
      </trkpt>
      <trkpt lat="43.16482" lon="2.52376">
        <ele>330.35</ele>
        <time>2018-04-21T10:58:30Z</time>
      </trkpt>
      <trkpt lat="43.16488" lon="2.52362">
        <ele>330.83</ele>
        <time>2018-04-21T10:58:44Z</time>
      </trkpt>
      <trkpt lat="43.16487" lon="2.5235">
        <ele>331.31</ele>
        <time>2018-04-21T10:58:57Z</time>
      </trkpt>
      <trkpt lat="43.16488" lon="2.52341">
        <ele>332.27</ele>
        <time>2018-04-21T10:59:07Z</time>
      </trkpt>
      <trkpt lat="43.16489" lon="2.52333">
        <ele>332.27</ele>
        <time>2018-04-21T10:59:14Z</time>
      </trkpt>
      <trkpt lat="43.16488" lon="2.52323">
        <ele>333.23</ele>
        <time>2018-04-21T10:59:23Z</time>
      </trkpt>
      <trkpt lat="43.16483" lon="2.5231">
        <ele>334.2</ele>
        <time>2018-04-21T10:59:38Z</time>
      </trkpt>
      <trkpt lat="43.16476" lon="2.52298">
        <ele>336.12</ele>
        <time>2018-04-21T10:59:52Z</time>
      </trkpt>
      <trkpt lat="43.16473" lon="2.52289">
        <ele>336.6</ele>
        <time>2018-04-21T11:00:00Z</time>
      </trkpt>
      <trkpt lat="43.16474" lon="2.52275">
        <ele>335.64</ele>
        <time>2018-04-21T11:00:12Z</time>
      </trkpt>
      <trkpt lat="43.16473" lon="2.52269">
        <ele>336.12</ele>
        <time>2018-04-21T11:00:17Z</time>
      </trkpt>
      <trkpt lat="43.16473" lon="2.52266">
        <ele>336.12</ele>
        <time>2018-04-21T11:00:19Z</time>
      </trkpt>
      <trkpt lat="43.16469" lon="2.52256">
        <ele>338.04</ele>
        <time>2018-04-21T11:00:32Z</time>
      </trkpt>
      <trkpt lat="43.16464" lon="2.52244">
        <ele>339.48</ele>
        <time>2018-04-21T11:00:48Z</time>
      </trkpt>
      <trkpt lat="43.1646" lon="2.52234">
        <ele>340.92</ele>
        <time>2018-04-21T11:01:01Z</time>
      </trkpt>
      <trkpt lat="43.16458" lon="2.52228">
        <ele>340.92</ele>
        <time>2018-04-21T11:01:15Z</time>
      </trkpt>
      <trkpt lat="43.16459" lon="2.52219">
        <ele>341.41</ele>
        <time>2018-04-21T11:01:26Z</time>
      </trkpt>
      <trkpt lat="43.16456" lon="2.52204">
        <ele>341.89</ele>
        <time>2018-04-21T11:01:39Z</time>
      </trkpt>
      <trkpt lat="43.16452" lon="2.52199">
        <ele>342.85</ele>
        <time>2018-04-21T11:01:52Z</time>
      </trkpt>
      <trkpt lat="43.16445" lon="2.52189">
        <ele>343.33</ele>
        <time>2018-04-21T11:02:05Z</time>
      </trkpt>
      <trkpt lat="43.1644" lon="2.52176">
        <ele>345.25</ele>
        <time>2018-04-21T11:02:21Z</time>
      </trkpt>
      <trkpt lat="43.16441" lon="2.52161">
        <ele>346.21</ele>
        <time>2018-04-21T11:02:35Z</time>
      </trkpt>
      <trkpt lat="43.16441" lon="2.52153">
        <ele>347.65</ele>
        <time>2018-04-21T11:02:49Z</time>
      </trkpt>
      <trkpt lat="43.16439" lon="2.52154">
        <ele>347.65</ele>
        <time>2018-04-21T11:03:11Z</time>
      </trkpt>
      <trkpt lat="43.16439" lon="2.52137">
        <ele>350.54</ele>
        <time>2018-04-21T11:03:44Z</time>
      </trkpt>
      <trkpt lat="43.16442" lon="2.52129">
        <ele>352.94</ele>
        <time>2018-04-21T11:03:58Z</time>
      </trkpt>
      <trkpt lat="43.16441" lon="2.52125">
        <ele>353.9</ele>
        <time>2018-04-21T11:04:12Z</time>
      </trkpt>
      <trkpt lat="43.16439" lon="2.52123">
        <ele>354.86</ele>
        <time>2018-04-21T11:04:25Z</time>
      </trkpt>
      <trkpt lat="43.16435" lon="2.52119">
        <ele>357.27</ele>
        <time>2018-04-21T11:06:37Z</time>
      </trkpt>
      <trkpt lat="43.16431" lon="2.5212">
        <ele>359.67</ele>
        <time>2018-04-21T11:06:50Z</time>
      </trkpt>
      <trkpt lat="43.16426" lon="2.5212">
        <ele>361.11</ele>
        <time>2018-04-21T11:07:04Z</time>
      </trkpt>
      <trkpt lat="43.16426" lon="2.52113">
        <ele>363.04</ele>
        <time>2018-04-21T11:07:16Z</time>
      </trkpt>
      <trkpt lat="43.16426" lon="2.52111">
        <ele>364</ele>
        <time>2018-04-21T11:07:29Z</time>
      </trkpt>
      <trkpt lat="43.16425" lon="2.52111">
        <ele>364.96</ele>
        <time>2018-04-21T11:07:42Z</time>
      </trkpt>
      <trkpt lat="43.16423" lon="2.5211">
        <ele>366.4</ele>
        <time>2018-04-21T11:08:01Z</time>
      </trkpt>
      <trkpt lat="43.16421" lon="2.52106">
        <ele>366.88</ele>
        <time>2018-04-21T11:08:13Z</time>
      </trkpt>
      <trkpt lat="43.16422" lon="2.52099">
        <ele>368.32</ele>
        <time>2018-04-21T11:08:29Z</time>
      </trkpt>
      <trkpt lat="43.16422" lon="2.52097">
        <ele>369.28</ele>
        <time>2018-04-21T11:08:41Z</time>
      </trkpt>
      <trkpt lat="43.16418" lon="2.5209">
        <ele>373.13</ele>
        <time>2018-04-21T11:09:47Z</time>
      </trkpt>
      <trkpt lat="43.16417" lon="2.52088">
        <ele>374.57</ele>
        <time>2018-04-21T11:10:02Z</time>
      </trkpt>
      <trkpt lat="43.16416" lon="2.52085">
        <ele>376.01</ele>
        <time>2018-04-21T11:10:17Z</time>
      </trkpt>
      <trkpt lat="43.16418" lon="2.52079">
        <ele>377.45</ele>
        <time>2018-04-21T11:10:31Z</time>
      </trkpt>
      <trkpt lat="43.16419" lon="2.52075">
        <ele>378.9</ele>
        <time>2018-04-21T11:10:48Z</time>
      </trkpt>
      <trkpt lat="43.1642" lon="2.52068">
        <ele>380.34</ele>
        <time>2018-04-21T11:11:04Z</time>
      </trkpt>
      <trkpt lat="43.16422" lon="2.52067">
        <ele>380.82</ele>
        <time>2018-04-21T11:11:22Z</time>
      </trkpt>
      <trkpt lat="43.16421" lon="2.52066">
        <ele>380.34</ele>
        <time>2018-04-21T11:11:46Z</time>
      </trkpt>
      <trkpt lat="43.16422" lon="2.52067">
        <ele>380.34</ele>
        <time>2018-04-21T11:12:06Z</time>
      </trkpt>
      <trkpt lat="43.16423" lon="2.52059">
        <ele>381.3</ele>
        <time>2018-04-21T11:12:21Z</time>
      </trkpt>
      <trkpt lat="43.16425" lon="2.52052">
        <ele>382.26</ele>
        <time>2018-04-21T11:12:29Z</time>
      </trkpt>
      <trkpt lat="43.16426" lon="2.52046">
        <ele>382.26</ele>
        <time>2018-04-21T11:12:34Z</time>
      </trkpt>
      <trkpt lat="43.16429" lon="2.52041">
        <ele>382.26</ele>
        <time>2018-04-21T11:12:50Z</time>
      </trkpt>
      <trkpt lat="43.16431" lon="2.52038">
        <ele>381.78</ele>
        <time>2018-04-21T11:13:06Z</time>
      </trkpt>
      <trkpt lat="43.16432" lon="2.52038">
        <ele>381.78</ele>
        <time>2018-04-21T11:13:09Z</time>
      </trkpt>
      <trkpt lat="43.16435" lon="2.52026">
        <ele>382.74</ele>
        <time>2018-04-21T11:13:23Z</time>
      </trkpt>
      <trkpt lat="43.16442" lon="2.52015">
        <ele>383.22</ele>
        <time>2018-04-21T11:13:36Z</time>
      </trkpt>
      <trkpt lat="43.1645" lon="2.52006">
        <ele>383.22</ele>
        <time>2018-04-21T11:13:51Z</time>
      </trkpt>
      <trkpt lat="43.16455" lon="2.51997">
        <ele>381.78</ele>
        <time>2018-04-21T11:14:03Z</time>
      </trkpt>
      <trkpt lat="43.1646" lon="2.51991">
        <ele>383.7</ele>
        <time>2018-04-21T11:14:14Z</time>
      </trkpt>
      <trkpt lat="43.16462" lon="2.51986">
        <ele>384.18</ele>
        <time>2018-04-21T11:14:19Z</time>
      </trkpt>
      <trkpt lat="43.16466" lon="2.51977">
        <ele>384.66</ele>
        <time>2018-04-21T11:14:34Z</time>
      </trkpt>
      <trkpt lat="43.16468" lon="2.51968">
        <ele>386.59</ele>
        <time>2018-04-21T11:14:47Z</time>
      </trkpt>
      <trkpt lat="43.16474" lon="2.51958">
        <ele>386.59</ele>
        <time>2018-04-21T11:14:58Z</time>
      </trkpt>
      <trkpt lat="43.1648" lon="2.51945">
        <ele>387.55</ele>
        <time>2018-04-21T11:15:13Z</time>
      </trkpt>
      <trkpt lat="43.16483" lon="2.51934">
        <ele>388.51</ele>
        <time>2018-04-21T11:15:27Z</time>
      </trkpt>
      <trkpt lat="43.16483" lon="2.51933">
        <ele>388.51</ele>
        <time>2018-04-21T11:15:28Z</time>
      </trkpt>
      <trkpt lat="43.16488" lon="2.51926">
        <ele>388.03</ele>
        <time>2018-04-21T11:15:41Z</time>
      </trkpt>
      <trkpt lat="43.1649" lon="2.51923">
        <ele>388.51</ele>
        <time>2018-04-21T11:15:44Z</time>
      </trkpt>
      <trkpt lat="43.16496" lon="2.51907">
        <ele>389.47</ele>
        <time>2018-04-21T11:15:59Z</time>
      </trkpt>
      <trkpt lat="43.16501" lon="2.51896">
        <ele>390.91</ele>
        <time>2018-04-21T11:16:11Z</time>
      </trkpt>
      <trkpt lat="43.16506" lon="2.51887">
        <ele>391.87</ele>
        <time>2018-04-21T11:16:24Z</time>
      </trkpt>
      <trkpt lat="43.16513" lon="2.51878">
        <ele>393.32</ele>
        <time>2018-04-21T11:16:40Z</time>
      </trkpt>
      <trkpt lat="43.16523" lon="2.51868">
        <ele>392.84</ele>
        <time>2018-04-21T11:16:51Z</time>
      </trkpt>
      <trkpt lat="43.16531" lon="2.51856">
        <ele>392.84</ele>
        <time>2018-04-21T11:17:06Z</time>
      </trkpt>
      <trkpt lat="43.16537" lon="2.51845">
        <ele>391.87</ele>
        <time>2018-04-21T11:17:19Z</time>
      </trkpt>
      <trkpt lat="43.16543" lon="2.51846">
        <ele>390.91</ele>
        <time>2018-04-21T11:17:31Z</time>
      </trkpt>
      <trkpt lat="43.16548" lon="2.51847">
        <ele>388.99</ele>
        <time>2018-04-21T11:17:44Z</time>
      </trkpt>
      <trkpt lat="43.16553" lon="2.51847">
        <ele>388.03</ele>
        <time>2018-04-21T11:17:57Z</time>
      </trkpt>
      <trkpt lat="43.16556" lon="2.51849">
        <ele>386.59</ele>
        <time>2018-04-21T11:18:10Z</time>
      </trkpt>
      <trkpt lat="43.16559" lon="2.51848">
        <ele>385.15</ele>
        <time>2018-04-21T11:18:25Z</time>
      </trkpt>
      <trkpt lat="43.16558" lon="2.51849">
        <ele>384.66</ele>
        <time>2018-04-21T11:18:40Z</time>
      </trkpt>
      <trkpt lat="43.16559" lon="2.51847">
        <ele>384.18</ele>
        <time>2018-04-21T11:18:45Z</time>
      </trkpt>
      <trkpt lat="43.16565" lon="2.51846">
        <ele>383.22</ele>
        <time>2018-04-21T11:18:59Z</time>
      </trkpt>
      <trkpt lat="43.16571" lon="2.5184">
        <ele>380.82</ele>
        <time>2018-04-21T11:19:14Z</time>
      </trkpt>
      <trkpt lat="43.16573" lon="2.51835">
        <ele>379.38</ele>
        <time>2018-04-21T11:19:26Z</time>
      </trkpt>
      <trkpt lat="43.16576" lon="2.51826">
        <ele>378.9</ele>
        <time>2018-04-21T11:19:40Z</time>
      </trkpt>
      <trkpt lat="43.16578" lon="2.51814">
        <ele>380.34</ele>
        <time>2018-04-21T11:19:54Z</time>
      </trkpt>
      <trkpt lat="43.16579" lon="2.5181">
        <ele>380.34</ele>
        <time>2018-04-21T11:20:00Z</time>
      </trkpt>
      <trkpt lat="43.16585" lon="2.51802">
        <ele>380.82</ele>
        <time>2018-04-21T11:20:12Z</time>
      </trkpt>
      <trkpt lat="43.16586" lon="2.5179">
        <ele>382.74</ele>
        <time>2018-04-21T11:20:26Z</time>
      </trkpt>
      <trkpt lat="43.16584" lon="2.51785">
        <ele>384.66</ele>
        <time>2018-04-21T11:20:39Z</time>
      </trkpt>
      <trkpt lat="43.1659" lon="2.51772">
        <ele>386.59</ele>
        <time>2018-04-21T11:20:59Z</time>
      </trkpt>
      <trkpt lat="43.16597" lon="2.51758">
        <ele>387.07</ele>
        <time>2018-04-21T11:21:12Z</time>
      </trkpt>
      <trkpt lat="43.16602" lon="2.51745">
        <ele>388.51</ele>
        <time>2018-04-21T11:21:26Z</time>
      </trkpt>
      <trkpt lat="43.16612" lon="2.51731">
        <ele>389.47</ele>
        <time>2018-04-21T11:21:39Z</time>
      </trkpt>
      <trkpt lat="43.16614" lon="2.51729">
        <ele>388.99</ele>
        <time>2018-04-21T11:21:42Z</time>
      </trkpt>
      <trkpt lat="43.16621" lon="2.51718">
        <ele>390.91</ele>
        <time>2018-04-21T11:21:55Z</time>
      </trkpt>
      <trkpt lat="43.16627" lon="2.51709">
        <ele>391.87</ele>
        <time>2018-04-21T11:22:08Z</time>
      </trkpt>
      <trkpt lat="43.1663" lon="2.517">
        <ele>391.39</ele>
        <time>2018-04-21T11:22:19Z</time>
      </trkpt>
      <trkpt lat="43.16629" lon="2.51691">
        <ele>391.87</ele>
        <time>2018-04-21T11:22:33Z</time>
      </trkpt>
      <trkpt lat="43.16628" lon="2.51687">
        <ele>392.36</ele>
        <time>2018-04-21T11:22:48Z</time>
      </trkpt>
      <trkpt lat="43.16625" lon="2.51676">
        <ele>392.84</ele>
        <time>2018-04-21T11:23:00Z</time>
      </trkpt>
      <trkpt lat="43.16621" lon="2.51674">
        <ele>393.32</ele>
        <time>2018-04-21T11:23:05Z</time>
      </trkpt>
      <trkpt lat="43.16619" lon="2.5167">
        <ele>393.32</ele>
        <time>2018-04-21T11:23:09Z</time>
      </trkpt>
      <trkpt lat="43.1661" lon="2.5165">
        <ele>395.72</ele>
        <time>2018-04-21T12:20:15Z</time>
      </trkpt>
      <trkpt lat="43.16609" lon="2.51638">
        <ele>396.2</ele>
        <time>2018-04-21T12:20:45Z</time>
      </trkpt>
      <trkpt lat="43.16608" lon="2.51636">
        <ele>396.68</ele>
        <time>2018-04-21T12:21:11Z</time>
      </trkpt>
      <trkpt lat="43.16606" lon="2.51629">
        <ele>397.16</ele>
        <time>2018-04-21T12:21:21Z</time>
      </trkpt>
      <trkpt lat="43.16605" lon="2.51627">
        <ele>397.64</ele>
        <time>2018-04-21T12:21:22Z</time>
      </trkpt>
      <trkpt lat="43.16602" lon="2.51621">
        <ele>398.12</ele>
        <time>2018-04-21T12:21:34Z</time>
      </trkpt>
      <trkpt lat="43.16602" lon="2.51619">
        <ele>398.6</ele>
        <time>2018-04-21T12:21:37Z</time>
      </trkpt>
      <trkpt lat="43.16594" lon="2.51579">
        <ele>399.57</ele>
        <time>2018-04-21T12:22:18Z</time>
      </trkpt>
      <trkpt lat="43.16599" lon="2.51552">
        <ele>400.05</ele>
        <time>2018-04-21T12:22:29Z</time>
      </trkpt>
      <trkpt lat="43.166" lon="2.5153">
        <ele>401.01</ele>
        <time>2018-04-21T12:22:45Z</time>
      </trkpt>
      <trkpt lat="43.16601" lon="2.51528">
        <ele>401.01</ele>
        <time>2018-04-21T12:22:46Z</time>
      </trkpt>
      <trkpt lat="43.16603" lon="2.5152">
        <ele>401.49</ele>
        <time>2018-04-21T12:22:58Z</time>
      </trkpt>
      <trkpt lat="43.16608" lon="2.51502">
        <ele>401.49</ele>
        <time>2018-04-21T12:23:35Z</time>
      </trkpt>
      <trkpt lat="43.16609" lon="2.51487">
        <ele>401.97</ele>
        <time>2018-04-21T12:23:47Z</time>
      </trkpt>
      <trkpt lat="43.16611" lon="2.5148">
        <ele>401.97</ele>
        <time>2018-04-21T12:23:52Z</time>
      </trkpt>
      <trkpt lat="43.16611" lon="2.51476">
        <ele>402.93</ele>
        <time>2018-04-21T12:23:54Z</time>
      </trkpt>
      <trkpt lat="43.16612" lon="2.51459">
        <ele>402.93</ele>
        <time>2018-04-21T12:24:05Z</time>
      </trkpt>
      <trkpt lat="43.16612" lon="2.51458">
        <ele>403.41</ele>
        <time>2018-04-21T12:24:06Z</time>
      </trkpt>
      <trkpt lat="43.16612" lon="2.51457">
        <ele>403.41</ele>
        <time>2018-04-21T12:24:07Z</time>
      </trkpt>
      <trkpt lat="43.16612" lon="2.51455">
        <ele>403.41</ele>
        <time>2018-04-21T12:24:08Z</time>
      </trkpt>
      <trkpt lat="43.16613" lon="2.51438">
        <ele>403.89</ele>
        <time>2018-04-21T12:24:19Z</time>
      </trkpt>
      <trkpt lat="43.16614" lon="2.51437">
        <ele>403.89</ele>
        <time>2018-04-21T12:24:20Z</time>
      </trkpt>
      <trkpt lat="43.16614" lon="2.51435">
        <ele>403.89</ele>
        <time>2018-04-21T12:24:21Z</time>
      </trkpt>
      <trkpt lat="43.16614" lon="2.51424">
        <ele>404.85</ele>
        <time>2018-04-21T12:24:28Z</time>
      </trkpt>
      <trkpt lat="43.16614" lon="2.51423">
        <ele>404.85</ele>
        <time>2018-04-21T12:24:29Z</time>
      </trkpt>
      <trkpt lat="43.16614" lon="2.51421">
        <ele>404.85</ele>
        <time>2018-04-21T12:24:30Z</time>
      </trkpt>
      <trkpt lat="43.16614" lon="2.5142">
        <ele>404.85</ele>
        <time>2018-04-21T12:24:31Z</time>
      </trkpt>
      <trkpt lat="43.16615" lon="2.514">
        <ele>405.81</ele>
        <time>2018-04-21T12:24:46Z</time>
      </trkpt>
      <trkpt lat="43.16614" lon="2.51383">
        <ele>405.81</ele>
        <time>2018-04-21T12:24:59Z</time>
      </trkpt>
      <trkpt lat="43.16614" lon="2.5138">
        <ele>406.29</ele>
        <time>2018-04-21T12:25:01Z</time>
      </trkpt>
      <trkpt lat="43.16615" lon="2.51376">
        <ele>406.29</ele>
        <time>2018-04-21T12:25:04Z</time>
      </trkpt>
      <trkpt lat="43.16618" lon="2.51357">
        <ele>406.77</ele>
        <time>2018-04-21T12:25:16Z</time>
      </trkpt>
      <trkpt lat="43.16618" lon="2.51352">
        <ele>406.77</ele>
        <time>2018-04-21T12:25:19Z</time>
      </trkpt>
      <trkpt lat="43.16618" lon="2.5135">
        <ele>407.26</ele>
        <time>2018-04-21T12:25:20Z</time>
      </trkpt>
      <trkpt lat="43.16618" lon="2.51348">
        <ele>407.26</ele>
        <time>2018-04-21T12:25:21Z</time>
      </trkpt>
      <trkpt lat="43.16618" lon="2.51347">
        <ele>407.26</ele>
        <time>2018-04-21T12:25:22Z</time>
      </trkpt>
      <trkpt lat="43.1662" lon="2.51339">
        <ele>407.26</ele>
        <time>2018-04-21T12:25:27Z</time>
      </trkpt>
      <trkpt lat="43.16627" lon="2.51321">
        <ele>408.22</ele>
        <time>2018-04-21T12:25:41Z</time>
      </trkpt>
      <trkpt lat="43.16635" lon="2.5128">
        <ele>410.14</ele>
        <time>2018-04-21T12:26:06Z</time>
      </trkpt>
      <trkpt lat="43.16635" lon="2.5127">
        <ele>411.1</ele>
        <time>2018-04-21T12:26:14Z</time>
      </trkpt>
      <trkpt lat="43.16635" lon="2.51265">
        <ele>411.1</ele>
        <time>2018-04-21T12:26:18Z</time>
      </trkpt>
      <trkpt lat="43.16641" lon="2.51241">
        <ele>411.58</ele>
        <time>2018-04-21T12:26:33Z</time>
      </trkpt>
      <trkpt lat="43.16646" lon="2.51222">
        <ele>412.54</ele>
        <time>2018-04-21T12:26:46Z</time>
      </trkpt>
      <trkpt lat="43.16646" lon="2.5122">
        <ele>412.54</ele>
        <time>2018-04-21T12:26:47Z</time>
      </trkpt>
      <trkpt lat="43.16648" lon="2.51214">
        <ele>413.02</ele>
        <time>2018-04-21T12:26:52Z</time>
      </trkpt>
      <trkpt lat="43.1665" lon="2.51194">
        <ele>413.02</ele>
        <time>2018-04-21T12:27:05Z</time>
      </trkpt>
      <trkpt lat="43.1665" lon="2.51187">
        <ele>413.98</ele>
        <time>2018-04-21T12:27:10Z</time>
      </trkpt>
      <trkpt lat="43.16651" lon="2.51172">
        <ele>413.98</ele>
        <time>2018-04-21T12:27:23Z</time>
      </trkpt>
      <trkpt lat="43.16653" lon="2.51158">
        <ele>414.95</ele>
        <time>2018-04-21T12:27:35Z</time>
      </trkpt>
      <trkpt lat="43.16655" lon="2.5114">
        <ele>415.91</ele>
        <time>2018-04-21T12:27:50Z</time>
      </trkpt>
      <trkpt lat="43.16657" lon="2.51121">
        <ele>416.87</ele>
        <time>2018-04-21T12:28:04Z</time>
      </trkpt>
      <trkpt lat="43.1666" lon="2.51097">
        <ele>418.31</ele>
        <time>2018-04-21T12:28:18Z</time>
      </trkpt>
      <trkpt lat="43.16663" lon="2.51085">
        <ele>418.31</ele>
        <time>2018-04-21T12:28:27Z</time>
      </trkpt>
      <trkpt lat="43.16669" lon="2.51062">
        <ele>419.27</ele>
        <time>2018-04-21T12:28:41Z</time>
      </trkpt>
      <trkpt lat="43.16671" lon="2.51052">
        <ele>419.27</ele>
        <time>2018-04-21T12:28:47Z</time>
      </trkpt>
      <trkpt lat="43.16674" lon="2.51035">
        <ele>420.23</ele>
        <time>2018-04-21T12:29:01Z</time>
      </trkpt>
      <trkpt lat="43.16677" lon="2.51025">
        <ele>421.19</ele>
        <time>2018-04-21T12:29:07Z</time>
      </trkpt>
      <trkpt lat="43.16681" lon="2.51007">
        <ele>421.68</ele>
        <time>2018-04-21T12:29:19Z</time>
      </trkpt>
      <trkpt lat="43.16685" lon="2.50997">
        <ele>422.16</ele>
        <time>2018-04-21T12:29:29Z</time>
      </trkpt>
      <trkpt lat="43.16686" lon="2.50995">
        <ele>422.16</ele>
        <time>2018-04-21T12:29:30Z</time>
      </trkpt>
      <trkpt lat="43.16687" lon="2.50993">
        <ele>422.16</ele>
        <time>2018-04-21T12:29:31Z</time>
      </trkpt>
      <trkpt lat="43.16687" lon="2.50992">
        <ele>422.64</ele>
        <time>2018-04-21T12:29:32Z</time>
      </trkpt>
      <trkpt lat="43.16688" lon="2.50991">
        <ele>422.16</ele>
        <time>2018-04-21T12:29:33Z</time>
      </trkpt>
      <trkpt lat="43.1669" lon="2.50984">
        <ele>422.16</ele>
        <time>2018-04-21T12:29:37Z</time>
      </trkpt>
      <trkpt lat="43.16697" lon="2.50967">
        <ele>422.64</ele>
        <time>2018-04-21T12:29:49Z</time>
      </trkpt>
      <trkpt lat="43.167" lon="2.50957">
        <ele>423.12</ele>
        <time>2018-04-21T12:29:56Z</time>
      </trkpt>
      <trkpt lat="43.16701" lon="2.50952">
        <ele>423.12</ele>
        <time>2018-04-21T12:30:00Z</time>
      </trkpt>
      <trkpt lat="43.16703" lon="2.50947">
        <ele>423.6</ele>
        <time>2018-04-21T12:30:04Z</time>
      </trkpt>
      <trkpt lat="43.16704" lon="2.50944">
        <ele>423.6</ele>
        <time>2018-04-21T12:30:06Z</time>
      </trkpt>
      <trkpt lat="43.16705" lon="2.50935">
        <ele>423.6</ele>
        <time>2018-04-21T12:30:13Z</time>
      </trkpt>
      <trkpt lat="43.16706" lon="2.50925">
        <ele>424.56</ele>
        <time>2018-04-21T12:30:22Z</time>
      </trkpt>
      <trkpt lat="43.16707" lon="2.50923">
        <ele>424.56</ele>
        <time>2018-04-21T12:30:24Z</time>
      </trkpt>
      <trkpt lat="43.16713" lon="2.50907">
        <ele>425.52</ele>
        <time>2018-04-21T12:30:37Z</time>
      </trkpt>
      <trkpt lat="43.16719" lon="2.50886">
        <ele>426.48</ele>
        <time>2018-04-21T12:30:52Z</time>
      </trkpt>
      <trkpt lat="43.16726" lon="2.5087">
        <ele>426.96</ele>
        <time>2018-04-21T12:31:06Z</time>
      </trkpt>
      <trkpt lat="43.16728" lon="2.5086">
        <ele>426.48</ele>
        <time>2018-04-21T12:31:14Z</time>
      </trkpt>
      <trkpt lat="43.16733" lon="2.50842">
        <ele>427.44</ele>
        <time>2018-04-21T12:31:28Z</time>
      </trkpt>
      <trkpt lat="43.16743" lon="2.50823">
        <ele>428.4</ele>
        <time>2018-04-21T12:31:45Z</time>
      </trkpt>
      <trkpt lat="43.16748" lon="2.50809">
        <ele>428.89</ele>
        <time>2018-04-21T12:31:58Z</time>
      </trkpt>
      <trkpt lat="43.16753" lon="2.50789">
        <ele>428.4</ele>
        <time>2018-04-21T12:32:14Z</time>
      </trkpt>
      <trkpt lat="43.16755" lon="2.5077">
        <ele>427.92</ele>
        <time>2018-04-21T12:32:29Z</time>
      </trkpt>
      <trkpt lat="43.16755" lon="2.50769">
        <ele>427.92</ele>
        <time>2018-04-21T12:32:30Z</time>
      </trkpt>
      <trkpt lat="43.16753" lon="2.50759">
        <ele>426.96</ele>
        <time>2018-04-21T12:32:39Z</time>
      </trkpt>
      <trkpt lat="43.16753" lon="2.50757">
        <ele>426.96</ele>
        <time>2018-04-21T12:32:40Z</time>
      </trkpt>
      <trkpt lat="43.16751" lon="2.50749">
        <ele>426.96</ele>
        <time>2018-04-21T12:32:45Z</time>
      </trkpt>
      <trkpt lat="43.16746" lon="2.50731">
        <ele>426</ele>
        <time>2018-04-21T12:33:01Z</time>
      </trkpt>
      <trkpt lat="43.16741" lon="2.50711">
        <ele>425.52</ele>
        <time>2018-04-21T12:33:17Z</time>
      </trkpt>
      <trkpt lat="43.16738" lon="2.50697">
        <ele>424.56</ele>
        <time>2018-04-21T12:33:30Z</time>
      </trkpt>
      <trkpt lat="43.16733" lon="2.50679">
        <ele>424.08</ele>
        <time>2018-04-21T12:33:45Z</time>
      </trkpt>
      <trkpt lat="43.16729" lon="2.50654">
        <ele>422.64</ele>
        <time>2018-04-21T12:34:00Z</time>
      </trkpt>
      <trkpt lat="43.16732" lon="2.50628">
        <ele>421.19</ele>
        <time>2018-04-21T12:34:16Z</time>
      </trkpt>
      <trkpt lat="43.16732" lon="2.50623">
        <ele>420.71</ele>
        <time>2018-04-21T12:34:18Z</time>
      </trkpt>
      <trkpt lat="43.16732" lon="2.50621">
        <ele>421.19</ele>
        <time>2018-04-21T12:34:19Z</time>
      </trkpt>
      <trkpt lat="43.16732" lon="2.5062">
        <ele>420.71</ele>
        <time>2018-04-21T12:34:20Z</time>
      </trkpt>
      <trkpt lat="43.16733" lon="2.50618">
        <ele>420.71</ele>
        <time>2018-04-21T12:34:21Z</time>
      </trkpt>
      <trkpt lat="43.16738" lon="2.50595">
        <ele>420.23</ele>
        <time>2018-04-21T12:34:36Z</time>
      </trkpt>
      <trkpt lat="43.16736" lon="2.50574">
        <ele>419.75</ele>
        <time>2018-04-21T12:34:52Z</time>
      </trkpt>
      <trkpt lat="43.16735" lon="2.50557">
        <ele>418.31</ele>
        <time>2018-04-21T12:35:05Z</time>
      </trkpt>
      <trkpt lat="43.16735" lon="2.50555">
        <ele>418.79</ele>
        <time>2018-04-21T12:35:06Z</time>
      </trkpt>
      <trkpt lat="43.16736" lon="2.50532">
        <ele>418.79</ele>
        <time>2018-04-21T12:35:20Z</time>
      </trkpt>
      <trkpt lat="43.16739" lon="2.50515">
        <ele>418.31</ele>
        <time>2018-04-21T12:35:31Z</time>
      </trkpt>
      <trkpt lat="43.1674" lon="2.50513">
        <ele>418.31</ele>
        <time>2018-04-21T12:35:32Z</time>
      </trkpt>
      <trkpt lat="43.1674" lon="2.50511">
        <ele>418.31</ele>
        <time>2018-04-21T12:35:33Z</time>
      </trkpt>
      <trkpt lat="43.1674" lon="2.5051">
        <ele>418.31</ele>
        <time>2018-04-21T12:35:34Z</time>
      </trkpt>
      <trkpt lat="43.16741" lon="2.50509">
        <ele>417.83</ele>
        <time>2018-04-21T12:35:35Z</time>
      </trkpt>
      <trkpt lat="43.16741" lon="2.50507">
        <ele>417.83</ele>
        <time>2018-04-21T12:35:36Z</time>
      </trkpt>
      <trkpt lat="43.16742" lon="2.50505">
        <ele>417.35</ele>
        <time>2018-04-21T12:35:38Z</time>
      </trkpt>
      <trkpt lat="43.16742" lon="2.50503">
        <ele>417.35</ele>
        <time>2018-04-21T12:35:39Z</time>
      </trkpt>
      <trkpt lat="43.16744" lon="2.50482">
        <ele>415.91</ele>
        <time>2018-04-21T12:35:54Z</time>
      </trkpt>
      <trkpt lat="43.16745" lon="2.50479">
        <ele>415.91</ele>
        <time>2018-04-21T12:35:57Z</time>
      </trkpt>
      <trkpt lat="43.16745" lon="2.50477">
        <ele>415.43</ele>
        <time>2018-04-21T12:35:58Z</time>
      </trkpt>
      <trkpt lat="43.16748" lon="2.5045">
        <ele>414.47</ele>
        <time>2018-04-21T12:36:16Z</time>
      </trkpt>
      <trkpt lat="43.16748" lon="2.50448">
        <ele>414.47</ele>
        <time>2018-04-21T12:36:18Z</time>
      </trkpt>
      <trkpt lat="43.16748" lon="2.50446">
        <ele>414.47</ele>
        <time>2018-04-21T12:36:19Z</time>
      </trkpt>
      <trkpt lat="43.16751" lon="2.50426">
        <ele>413.5</ele>
        <time>2018-04-21T12:36:34Z</time>
      </trkpt>
      <trkpt lat="43.16751" lon="2.50421">
        <ele>413.5</ele>
        <time>2018-04-21T12:36:37Z</time>
      </trkpt>
      <trkpt lat="43.16755" lon="2.504">
        <ele>412.54</ele>
        <time>2018-04-21T12:36:52Z</time>
      </trkpt>
      <trkpt lat="43.16756" lon="2.50397">
        <ele>412.54</ele>
        <time>2018-04-21T12:36:54Z</time>
      </trkpt>
      <trkpt lat="43.16765" lon="2.50373">
        <ele>411.1</ele>
        <time>2018-04-21T12:37:10Z</time>
      </trkpt>
      <trkpt lat="43.16769" lon="2.50359">
        <ele>410.14</ele>
        <time>2018-04-21T12:37:19Z</time>
      </trkpt>
      <trkpt lat="43.16769" lon="2.50357">
        <ele>409.66</ele>
        <time>2018-04-21T12:37:20Z</time>
      </trkpt>
      <trkpt lat="43.16771" lon="2.50337">
        <ele>408.7</ele>
        <time>2018-04-21T12:37:34Z</time>
      </trkpt>
      <trkpt lat="43.16773" lon="2.50321">
        <ele>407.26</ele>
        <time>2018-04-21T12:37:47Z</time>
      </trkpt>
      <trkpt lat="43.16776" lon="2.50303">
        <ele>406.29</ele>
        <time>2018-04-21T12:38:01Z</time>
      </trkpt>
      <trkpt lat="43.16777" lon="2.50284">
        <ele>404.85</ele>
        <time>2018-04-21T12:38:16Z</time>
      </trkpt>
      <trkpt lat="43.1678" lon="2.50262">
        <ele>403.41</ele>
        <time>2018-04-21T12:38:32Z</time>
      </trkpt>
      <trkpt lat="43.16782" lon="2.50251">
        <ele>402.93</ele>
        <time>2018-04-21T12:38:40Z</time>
      </trkpt>
      <trkpt lat="43.16787" lon="2.50229">
        <ele>401.01</ele>
        <time>2018-04-21T12:38:57Z</time>
      </trkpt>
      <trkpt lat="43.16792" lon="2.50212">
        <ele>400.05</ele>
        <time>2018-04-21T12:39:11Z</time>
      </trkpt>
      <trkpt lat="43.16798" lon="2.50185">
        <ele>398.6</ele>
        <time>2018-04-21T12:39:45Z</time>
      </trkpt>
      <trkpt lat="43.168" lon="2.50178">
        <ele>398.12</ele>
        <time>2018-04-21T12:40:04Z</time>
      </trkpt>
      <trkpt lat="43.16801" lon="2.50176">
        <ele>398.12</ele>
        <time>2018-04-21T12:40:06Z</time>
      </trkpt>
      <trkpt lat="43.16806" lon="2.50162">
        <ele>396.68</ele>
        <time>2018-04-21T12:40:18Z</time>
      </trkpt>
      <trkpt lat="43.16807" lon="2.5016">
        <ele>396.2</ele>
        <time>2018-04-21T12:40:20Z</time>
      </trkpt>
      <trkpt lat="43.16808" lon="2.50158">
        <ele>396.2</ele>
        <time>2018-04-21T12:40:22Z</time>
      </trkpt>
      <trkpt lat="43.16809" lon="2.50156">
        <ele>396.2</ele>
        <time>2018-04-21T12:40:23Z</time>
      </trkpt>
      <trkpt lat="43.16817" lon="2.50139">
        <ele>394.76</ele>
        <time>2018-04-21T12:40:39Z</time>
      </trkpt>
      <trkpt lat="43.16824" lon="2.50122">
        <ele>393.32</ele>
        <time>2018-04-21T12:40:54Z</time>
      </trkpt>
      <trkpt lat="43.16827" lon="2.50115">
        <ele>392.84</ele>
        <time>2018-04-21T12:40:59Z</time>
      </trkpt>
      <trkpt lat="43.16828" lon="2.50114">
        <ele>392.84</ele>
        <time>2018-04-21T12:41:00Z</time>
      </trkpt>
      <trkpt lat="43.16832" lon="2.50094">
        <ele>390.91</ele>
        <time>2018-04-21T12:41:16Z</time>
      </trkpt>
      <trkpt lat="43.16831" lon="2.50079">
        <ele>389.95</ele>
        <time>2018-04-21T12:41:29Z</time>
      </trkpt>
      <trkpt lat="43.16828" lon="2.50059">
        <ele>388.03</ele>
        <time>2018-04-21T12:41:44Z</time>
      </trkpt>
      <trkpt lat="43.16827" lon="2.50053">
        <ele>387.55</ele>
        <time>2018-04-21T12:41:48Z</time>
      </trkpt>
      <trkpt lat="43.16829" lon="2.50039">
        <ele>386.59</ele>
        <time>2018-04-21T12:41:57Z</time>
      </trkpt>
      <trkpt lat="43.16832" lon="2.50033">
        <ele>385.63</ele>
        <time>2018-04-21T12:42:02Z</time>
      </trkpt>
      <trkpt lat="43.16833" lon="2.50031">
        <ele>385.63</ele>
        <time>2018-04-21T12:42:03Z</time>
      </trkpt>
      <trkpt lat="43.16834" lon="2.50026">
        <ele>385.15</ele>
        <time>2018-04-21T12:42:07Z</time>
      </trkpt>
      <trkpt lat="43.16834" lon="2.50018">
        <ele>384.66</ele>
        <time>2018-04-21T12:42:13Z</time>
      </trkpt>
      <trkpt lat="43.16838" lon="2.5001">
        <ele>383.7</ele>
        <time>2018-04-21T12:42:26Z</time>
      </trkpt>
      <trkpt lat="43.1684" lon="2.50009">
        <ele>383.7</ele>
        <time>2018-04-21T12:42:42Z</time>
      </trkpt>
      <trkpt lat="43.1684" lon="2.50007">
        <ele>383.7</ele>
        <time>2018-04-21T12:42:43Z</time>
      </trkpt>
      <trkpt lat="43.1684" lon="2.50006">
        <ele>383.22</ele>
        <time>2018-04-21T12:42:44Z</time>
      </trkpt>
      <trkpt lat="43.16842" lon="2.5">
        <ele>383.22</ele>
        <time>2018-04-21T12:42:48Z</time>
      </trkpt>
      <trkpt lat="43.16843" lon="2.49999">
        <ele>382.74</ele>
        <time>2018-04-21T12:42:49Z</time>
      </trkpt>
      <trkpt lat="43.16845" lon="2.49993">
        <ele>382.74</ele>
        <time>2018-04-21T12:42:54Z</time>
      </trkpt>
      <trkpt lat="43.16853" lon="2.49979">
        <ele>381.78</ele>
        <time>2018-04-21T12:43:08Z</time>
      </trkpt>
      <trkpt lat="43.16855" lon="2.49973">
        <ele>381.3</ele>
        <time>2018-04-21T12:43:13Z</time>
      </trkpt>
      <trkpt lat="43.16855" lon="2.49971">
        <ele>380.82</ele>
        <time>2018-04-21T12:43:14Z</time>
      </trkpt>
      <trkpt lat="43.16861" lon="2.49953">
        <ele>379.38</ele>
        <time>2018-04-21T12:43:28Z</time>
      </trkpt>
      <trkpt lat="43.16865" lon="2.49945">
        <ele>378.9</ele>
        <time>2018-04-21T12:43:40Z</time>
      </trkpt>
      <trkpt lat="43.16868" lon="2.49938">
        <ele>378.9</ele>
        <time>2018-04-21T12:43:54Z</time>
      </trkpt>
      <trkpt lat="43.1687" lon="2.49932">
        <ele>377.94</ele>
        <time>2018-04-21T12:43:59Z</time>
      </trkpt>
      <trkpt lat="43.16877" lon="2.49921">
        <ele>376.97</ele>
        <time>2018-04-21T12:44:10Z</time>
      </trkpt>
      <trkpt lat="43.16878" lon="2.4992">
        <ele>376.49</ele>
        <time>2018-04-21T12:44:11Z</time>
      </trkpt>
      <trkpt lat="43.16887" lon="2.49902">
        <ele>374.57</ele>
        <time>2018-04-21T12:44:27Z</time>
      </trkpt>
      <trkpt lat="43.16898" lon="2.49883">
        <ele>373.13</ele>
        <time>2018-04-21T12:44:43Z</time>
      </trkpt>
      <trkpt lat="43.16903" lon="2.49871">
        <ele>372.17</ele>
        <time>2018-04-21T12:44:54Z</time>
      </trkpt>
      <trkpt lat="43.16907" lon="2.4985">
        <ele>370.24</ele>
        <time>2018-04-21T12:45:10Z</time>
      </trkpt>
      <trkpt lat="43.16909" lon="2.49825">
        <ele>368.32</ele>
        <time>2018-04-21T12:45:25Z</time>
      </trkpt>
      <trkpt lat="43.16912" lon="2.49805">
        <ele>366.4</ele>
        <time>2018-04-21T12:45:39Z</time>
      </trkpt>
      <trkpt lat="43.16912" lon="2.49803">
        <ele>366.4</ele>
        <time>2018-04-21T12:45:40Z</time>
      </trkpt>
      <trkpt lat="43.16918" lon="2.4978">
        <ele>364.48</ele>
        <time>2018-04-21T12:45:56Z</time>
      </trkpt>
      <trkpt lat="43.16919" lon="2.49774">
        <ele>363.52</ele>
        <time>2018-04-21T12:46:00Z</time>
      </trkpt>
      <trkpt lat="43.16919" lon="2.49773">
        <ele>363.52</ele>
        <time>2018-04-21T12:46:01Z</time>
      </trkpt>
      <trkpt lat="43.1692" lon="2.49772">
        <ele>363.04</ele>
        <time>2018-04-21T12:46:02Z</time>
      </trkpt>
      <trkpt lat="43.1692" lon="2.49771">
        <ele>363.04</ele>
        <time>2018-04-21T12:46:03Z</time>
      </trkpt>
      <trkpt lat="43.16921" lon="2.49769">
        <ele>363.04</ele>
        <time>2018-04-21T12:46:04Z</time>
      </trkpt>
      <trkpt lat="43.16927" lon="2.49752">
        <ele>362.07</ele>
        <time>2018-04-21T12:46:19Z</time>
      </trkpt>
      <trkpt lat="43.16932" lon="2.49744">
        <ele>361.59</ele>
        <time>2018-04-21T12:46:31Z</time>
      </trkpt>
      <trkpt lat="43.16935" lon="2.4975">
        <ele>360.63</ele>
        <time>2018-04-21T12:46:47Z</time>
      </trkpt>
      <trkpt lat="43.16936" lon="2.49752">
        <ele>361.11</ele>
        <time>2018-04-21T12:47:05Z</time>
      </trkpt>
      <trkpt lat="43.16936" lon="2.49758">
        <ele>360.15</ele>
        <time>2018-04-21T12:47:12Z</time>
      </trkpt>
      <trkpt lat="43.16936" lon="2.49763">
        <ele>359.67</ele>
        <time>2018-04-21T12:47:24Z</time>
      </trkpt>
      <trkpt lat="43.16939" lon="2.49769">
        <ele>359.19</ele>
        <time>2018-04-21T12:47:48Z</time>
      </trkpt>
      <trkpt lat="43.16942" lon="2.49786">
        <ele>355.83</ele>
        <time>2018-04-21T12:48:01Z</time>
      </trkpt>
      <trkpt lat="43.16946" lon="2.498">
        <ele>353.9</ele>
        <time>2018-04-21T12:48:15Z</time>
      </trkpt>
      <trkpt lat="43.16951" lon="2.49813">
        <ele>351.98</ele>
        <time>2018-04-21T12:48:27Z</time>
      </trkpt>
      <trkpt lat="43.1696" lon="2.49827">
        <ele>350.06</ele>
        <time>2018-04-21T12:48:41Z</time>
      </trkpt>
      <trkpt lat="43.16968" lon="2.49841">
        <ele>348.62</ele>
        <time>2018-04-21T12:48:54Z</time>
      </trkpt>
      <trkpt lat="43.16974" lon="2.49861">
        <ele>347.65</ele>
        <time>2018-04-21T12:49:10Z</time>
      </trkpt>
      <trkpt lat="43.16979" lon="2.49879">
        <ele>346.69</ele>
        <time>2018-04-21T12:49:23Z</time>
      </trkpt>
      <trkpt lat="43.16987" lon="2.49899">
        <ele>345.73</ele>
        <time>2018-04-21T12:49:37Z</time>
      </trkpt>
      <trkpt lat="43.16994" lon="2.49915">
        <ele>344.77</ele>
        <time>2018-04-21T12:49:50Z</time>
      </trkpt>
      <trkpt lat="43.17001" lon="2.49933">
        <ele>343.81</ele>
        <time>2018-04-21T12:50:04Z</time>
      </trkpt>
      <trkpt lat="43.17009" lon="2.49946">
        <ele>342.85</ele>
        <time>2018-04-21T12:50:18Z</time>
      </trkpt>
      <trkpt lat="43.17016" lon="2.49963">
        <ele>341.41</ele>
        <time>2018-04-21T12:50:32Z</time>
      </trkpt>
      <trkpt lat="43.17026" lon="2.49974">
        <ele>340.92</ele>
        <time>2018-04-21T12:50:46Z</time>
      </trkpt>
      <trkpt lat="43.17031" lon="2.49982">
        <ele>340.92</ele>
        <time>2018-04-21T12:50:59Z</time>
      </trkpt>
      <trkpt lat="43.17032" lon="2.49983">
        <ele>341.41</ele>
        <time>2018-04-21T12:51:00Z</time>
      </trkpt>
      <trkpt lat="43.17036" lon="2.49991">
        <ele>342.37</ele>
        <time>2018-04-21T12:51:14Z</time>
      </trkpt>
      <trkpt lat="43.17036" lon="2.49988">
        <ele>341.89</ele>
        <time>2018-04-21T12:51:34Z</time>
      </trkpt>
      <trkpt lat="43.17038" lon="2.49992">
        <ele>343.33</ele>
        <time>2018-04-21T12:51:55Z</time>
      </trkpt>
      <trkpt lat="43.17039" lon="2.49997">
        <ele>344.29</ele>
        <time>2018-04-21T12:52:08Z</time>
      </trkpt>
      <trkpt lat="43.17041" lon="2.5">
        <ele>344.29</ele>
        <time>2018-04-21T12:52:24Z</time>
      </trkpt>
      <trkpt lat="43.17042" lon="2.50003">
        <ele>344.77</ele>
        <time>2018-04-21T12:52:30Z</time>
      </trkpt>
      <trkpt lat="43.17045" lon="2.50025">
        <ele>343.81</ele>
        <time>2018-04-21T12:52:44Z</time>
      </trkpt>
      <trkpt lat="43.17049" lon="2.50038">
        <ele>345.25</ele>
        <time>2018-04-21T12:53:00Z</time>
      </trkpt>
      <trkpt lat="43.17055" lon="2.50035">
        <ele>345.73</ele>
        <time>2018-04-21T12:53:10Z</time>
      </trkpt>
      <trkpt lat="43.17062" lon="2.50033">
        <ele>345.25</ele>
        <time>2018-04-21T12:55:28Z</time>
      </trkpt>
      <trkpt lat="43.17065" lon="2.50044">
        <ele>345.73</ele>
        <time>2018-04-21T12:55:37Z</time>
      </trkpt>
      <trkpt lat="43.17068" lon="2.50052">
        <ele>345.25</ele>
        <time>2018-04-21T12:55:48Z</time>
      </trkpt>
      <trkpt lat="43.17069" lon="2.50053">
        <ele>346.21</ele>
        <time>2018-04-21T12:56:02Z</time>
      </trkpt>
      <trkpt lat="43.17069" lon="2.50053">
        <ele>345.25</ele>
        <time>2018-04-21T12:56:03Z</time>
      </trkpt>
      <trkpt lat="43.17075" lon="2.50055">
        <ele>344.77</ele>
        <time>2018-04-21T12:56:16Z</time>
      </trkpt>
      <trkpt lat="43.17077" lon="2.50052">
        <ele>344.29</ele>
        <time>2018-04-21T12:56:36Z</time>
      </trkpt>
      <trkpt lat="43.17083" lon="2.50048">
        <ele>343.81</ele>
        <time>2018-04-21T12:56:44Z</time>
      </trkpt>
      <trkpt lat="43.17084" lon="2.50047">
        <ele>344.29</ele>
        <time>2018-04-21T12:56:49Z</time>
      </trkpt>
      <trkpt lat="43.17086" lon="2.50045">
        <ele>344.77</ele>
        <time>2018-04-21T12:56:52Z</time>
      </trkpt>
      <trkpt lat="43.17088" lon="2.50042">
        <ele>343.33</ele>
        <time>2018-04-21T12:56:55Z</time>
      </trkpt>
      <trkpt lat="43.17089" lon="2.50041">
        <ele>343.33</ele>
        <time>2018-04-21T12:56:56Z</time>
      </trkpt>
      <trkpt lat="43.17076" lon="2.50033">
        <ele>345.25</ele>
        <time>2018-04-21T12:57:50Z</time>
      </trkpt>
      <trkpt lat="43.17066" lon="2.50031">
        <ele>343.81</ele>
        <time>2018-04-21T13:00:19Z</time>
      </trkpt>
      <trkpt lat="43.17061" lon="2.50032">
        <ele>345.25</ele>
        <time>2018-04-21T13:00:28Z</time>
      </trkpt>
      <trkpt lat="43.17058" lon="2.50034">
        <ele>343.81</ele>
        <time>2018-04-21T13:00:42Z</time>
      </trkpt>
      <trkpt lat="43.17047" lon="2.5004">
        <ele>342.85</ele>
        <time>2018-04-21T13:00:55Z</time>
      </trkpt>
      <trkpt lat="43.17045" lon="2.5004">
        <ele>341.89</ele>
        <time>2018-04-21T13:01:00Z</time>
      </trkpt>
      <trkpt lat="43.17038" lon="2.50017">
        <ele>342.37</ele>
        <time>2018-04-21T13:01:18Z</time>
      </trkpt>
      <trkpt lat="43.17031" lon="2.50003">
        <ele>340.44</ele>
        <time>2018-04-21T13:01:33Z</time>
      </trkpt>
      <trkpt lat="43.17025" lon="2.49992">
        <ele>338.04</ele>
        <time>2018-04-21T13:03:18Z</time>
      </trkpt>
      <trkpt lat="43.17024" lon="2.50002">
        <ele>335.64</ele>
        <time>2018-04-21T13:03:35Z</time>
      </trkpt>
      <trkpt lat="43.17022" lon="2.5001">
        <ele>333.23</ele>
        <time>2018-04-21T13:03:45Z</time>
      </trkpt>
      <trkpt lat="43.17022" lon="2.50024">
        <ele>331.31</ele>
        <time>2018-04-21T13:03:59Z</time>
      </trkpt>
      <trkpt lat="43.17023" lon="2.50036">
        <ele>329.87</ele>
        <time>2018-04-21T13:04:11Z</time>
      </trkpt>
      <trkpt lat="43.17025" lon="2.50046">
        <ele>327.47</ele>
        <time>2018-04-21T13:04:26Z</time>
      </trkpt>
      <trkpt lat="43.17026" lon="2.50055">
        <ele>325.06</ele>
        <time>2018-04-21T13:04:40Z</time>
      </trkpt>
      <trkpt lat="43.17027" lon="2.50062">
        <ele>323.62</ele>
        <time>2018-04-21T13:04:52Z</time>
      </trkpt>
      <trkpt lat="43.1703" lon="2.50071">
        <ele>321.22</ele>
        <time>2018-04-21T13:05:04Z</time>
      </trkpt>
      <trkpt lat="43.17034" lon="2.50077">
        <ele>319.78</ele>
        <time>2018-04-21T13:05:17Z</time>
      </trkpt>
      <trkpt lat="43.17036" lon="2.5008">
        <ele>317.85</ele>
        <time>2018-04-21T13:05:29Z</time>
      </trkpt>
      <trkpt lat="43.17039" lon="2.50088">
        <ele>316.89</ele>
        <time>2018-04-21T13:05:44Z</time>
      </trkpt>
      <trkpt lat="43.17044" lon="2.50095">
        <ele>315.93</ele>
        <time>2018-04-21T13:06:08Z</time>
      </trkpt>
      <trkpt lat="43.17048" lon="2.5011">
        <ele>312.57</ele>
        <time>2018-04-21T13:06:28Z</time>
      </trkpt>
      <trkpt lat="43.17054" lon="2.50119">
        <ele>311.12</ele>
        <time>2018-04-21T13:06:41Z</time>
      </trkpt>
      <trkpt lat="43.1706" lon="2.50126">
        <ele>309.2</ele>
        <time>2018-04-21T13:06:56Z</time>
      </trkpt>
      <trkpt lat="43.17064" lon="2.50133">
        <ele>307.76</ele>
        <time>2018-04-21T13:07:07Z</time>
      </trkpt>
      <trkpt lat="43.17069" lon="2.50137">
        <ele>305.84</ele>
        <time>2018-04-21T13:07:20Z</time>
      </trkpt>
      <trkpt lat="43.17074" lon="2.50147">
        <ele>303.91</ele>
        <time>2018-04-21T13:07:33Z</time>
      </trkpt>
      <trkpt lat="43.1708" lon="2.50158">
        <ele>301.99</ele>
        <time>2018-04-21T13:07:48Z</time>
      </trkpt>
      <trkpt lat="43.1708" lon="2.5016">
        <ele>301.51</ele>
        <time>2018-04-21T13:08:12Z</time>
      </trkpt>
      <trkpt lat="43.17086" lon="2.50168">
        <ele>300.55</ele>
        <time>2018-04-21T13:08:26Z</time>
      </trkpt>
      <trkpt lat="43.17095" lon="2.50186">
        <ele>298.15</ele>
        <time>2018-04-21T13:08:44Z</time>
      </trkpt>
      <trkpt lat="43.171" lon="2.50194">
        <ele>295.74</ele>
        <time>2018-04-21T13:08:57Z</time>
      </trkpt>
      <trkpt lat="43.17104" lon="2.50207">
        <ele>293.34</ele>
        <time>2018-04-21T13:09:13Z</time>
      </trkpt>
      <trkpt lat="43.1711" lon="2.50223">
        <ele>291.42</ele>
        <time>2018-04-21T13:09:26Z</time>
      </trkpt>
      <trkpt lat="43.17113" lon="2.50229">
        <ele>290.94</ele>
        <time>2018-04-21T13:09:40Z</time>
      </trkpt>
      <trkpt lat="43.17116" lon="2.50237">
        <ele>289.01</ele>
        <time>2018-04-21T13:09:57Z</time>
      </trkpt>
      <trkpt lat="43.17116" lon="2.50239">
        <ele>288.53</ele>
        <time>2018-04-21T13:09:59Z</time>
      </trkpt>
      <trkpt lat="43.17123" lon="2.50256">
        <ele>286.13</ele>
        <time>2018-04-21T13:10:16Z</time>
      </trkpt>
      <trkpt lat="43.17127" lon="2.50272">
        <ele>283.25</ele>
        <time>2018-04-21T13:10:32Z</time>
      </trkpt>
      <trkpt lat="43.1713" lon="2.50285">
        <ele>281.8</ele>
        <time>2018-04-21T13:10:44Z</time>
      </trkpt>
      <trkpt lat="43.17132" lon="2.50298">
        <ele>279.88</ele>
        <time>2018-04-21T13:10:57Z</time>
      </trkpt>
      <trkpt lat="43.17136" lon="2.50305">
        <ele>277</ele>
        <time>2018-04-21T13:11:12Z</time>
      </trkpt>
      <trkpt lat="43.17138" lon="2.50321">
        <ele>274.11</ele>
        <time>2018-04-21T13:11:29Z</time>
      </trkpt>
      <trkpt lat="43.1714" lon="2.50327">
        <ele>272.67</ele>
        <time>2018-04-21T13:11:51Z</time>
      </trkpt>
      <trkpt lat="43.17143" lon="2.50344">
        <ele>269.79</ele>
        <time>2018-04-21T13:12:05Z</time>
      </trkpt>
      <trkpt lat="43.17146" lon="2.50353">
        <ele>268.35</ele>
        <time>2018-04-21T13:12:19Z</time>
      </trkpt>
      <trkpt lat="43.17148" lon="2.50371">
        <ele>265.94</ele>
        <time>2018-04-21T13:12:32Z</time>
      </trkpt>
      <trkpt lat="43.17154" lon="2.50387">
        <ele>263.06</ele>
        <time>2018-04-21T13:12:52Z</time>
      </trkpt>
      <trkpt lat="43.17155" lon="2.50403">
        <ele>259.69</ele>
        <time>2018-04-21T13:13:11Z</time>
      </trkpt>
      <trkpt lat="43.17159" lon="2.50416">
        <ele>256.81</ele>
        <time>2018-04-21T13:13:29Z</time>
      </trkpt>
      <trkpt lat="43.17158" lon="2.50434">
        <ele>253.93</ele>
        <time>2018-04-21T13:14:00Z</time>
      </trkpt>
      <trkpt lat="43.17161" lon="2.50443">
        <ele>251.04</ele>
        <time>2018-04-21T13:14:13Z</time>
      </trkpt>
      <trkpt lat="43.17162" lon="2.50447">
        <ele>250.56</ele>
        <time>2018-04-21T13:14:18Z</time>
      </trkpt>
      <trkpt lat="43.17163" lon="2.50454">
        <ele>250.56</ele>
        <time>2018-04-21T13:14:23Z</time>
      </trkpt>
      <trkpt lat="43.17164" lon="2.50456">
        <ele>249.12</ele>
        <time>2018-04-21T13:14:39Z</time>
      </trkpt>
      <trkpt lat="43.17162" lon="2.50457">
        <ele>248.16</ele>
        <time>2018-04-21T13:14:52Z</time>
      </trkpt>
      <trkpt lat="43.17166" lon="2.50473">
        <ele>245.27</ele>
        <time>2018-04-21T13:15:09Z</time>
      </trkpt>
      <trkpt lat="43.1717" lon="2.50484">
        <ele>243.83</ele>
        <time>2018-04-21T13:15:23Z</time>
      </trkpt>
      <trkpt lat="43.17171" lon="2.50493">
        <ele>241.91</ele>
        <time>2018-04-21T13:15:36Z</time>
      </trkpt>
      <trkpt lat="43.17174" lon="2.50505">
        <ele>239.99</ele>
        <time>2018-04-21T13:15:50Z</time>
      </trkpt>
      <trkpt lat="43.1718" lon="2.50518">
        <ele>238.06</ele>
        <time>2018-04-21T13:16:03Z</time>
      </trkpt>
      <trkpt lat="43.17186" lon="2.50533">
        <ele>235.66</ele>
        <time>2018-04-21T13:16:18Z</time>
      </trkpt>
      <trkpt lat="43.17188" lon="2.50544">
        <ele>232.78</ele>
        <time>2018-04-21T13:16:32Z</time>
      </trkpt>
      <trkpt lat="43.17189" lon="2.5055">
        <ele>231.81</ele>
        <time>2018-04-21T13:16:47Z</time>
      </trkpt>
      <trkpt lat="43.1719" lon="2.50563">
        <ele>229.41</ele>
        <time>2018-04-21T13:17:01Z</time>
      </trkpt>
      <trkpt lat="43.1719" lon="2.50575">
        <ele>226.53</ele>
        <time>2018-04-21T13:17:16Z</time>
      </trkpt>
      <trkpt lat="43.17189" lon="2.50589">
        <ele>224.12</ele>
        <time>2018-04-21T13:17:31Z</time>
      </trkpt>
      <trkpt lat="43.17192" lon="2.506">
        <ele>220.76</ele>
        <time>2018-04-21T13:17:44Z</time>
      </trkpt>
      <trkpt lat="43.17195" lon="2.50615">
        <ele>219.32</ele>
        <time>2018-04-21T13:18:00Z</time>
      </trkpt>
      <trkpt lat="43.17196" lon="2.50636">
        <ele>216.91</ele>
        <time>2018-04-21T13:18:23Z</time>
      </trkpt>
      <trkpt lat="43.17192" lon="2.50654">
        <ele>215.95</ele>
        <time>2018-04-21T13:18:39Z</time>
      </trkpt>
      <trkpt lat="43.17191" lon="2.50669">
        <ele>215.95</ele>
        <time>2018-04-21T13:18:50Z</time>
      </trkpt>
      <trkpt lat="43.17197" lon="2.5068">
        <ele>214.99</ele>
        <time>2018-04-21T13:19:01Z</time>
      </trkpt>
      <trkpt lat="43.17204" lon="2.50704">
        <ele>213.55</ele>
        <time>2018-04-21T13:19:19Z</time>
      </trkpt>
      <trkpt lat="43.17208" lon="2.50722">
        <ele>214.03</ele>
        <time>2018-04-21T13:19:34Z</time>
      </trkpt>
      <trkpt lat="43.17213" lon="2.5074">
        <ele>215.95</ele>
        <time>2018-04-21T13:19:48Z</time>
      </trkpt>
      <trkpt lat="43.17215" lon="2.50742">
        <ele>215.95</ele>
        <time>2018-04-21T13:19:55Z</time>
      </trkpt>
      <trkpt lat="43.17217" lon="2.50749">
        <ele>216.43</ele>
        <time>2018-04-21T13:20:01Z</time>
      </trkpt>
      <trkpt lat="43.17221" lon="2.50769">
        <ele>217.4</ele>
        <time>2018-04-21T13:20:16Z</time>
      </trkpt>
      <trkpt lat="43.17222" lon="2.50771">
        <ele>217.4</ele>
        <time>2018-04-21T13:20:18Z</time>
      </trkpt>
      <trkpt lat="43.17225" lon="2.50793">
        <ele>217.4</ele>
        <time>2018-04-21T13:20:33Z</time>
      </trkpt>
      <trkpt lat="43.17227" lon="2.50795">
        <ele>217.4</ele>
        <time>2018-04-21T13:20:41Z</time>
      </trkpt>
      <trkpt lat="43.17227" lon="2.50796">
        <ele>217.4</ele>
        <time>2018-04-21T13:20:43Z</time>
      </trkpt>
      <trkpt lat="43.17226" lon="2.50817">
        <ele>217.4</ele>
        <time>2018-04-21T13:20:58Z</time>
      </trkpt>
      <trkpt lat="43.17223" lon="2.5084">
        <ele>216.91</ele>
        <time>2018-04-21T13:21:13Z</time>
      </trkpt>
      <trkpt lat="43.17224" lon="2.50861">
        <ele>217.88</ele>
        <time>2018-04-21T13:21:28Z</time>
      </trkpt>
      <trkpt lat="43.17223" lon="2.50878">
        <ele>218.36</ele>
        <time>2018-04-21T13:21:40Z</time>
      </trkpt>
      <trkpt lat="43.17217" lon="2.50895">
        <ele>218.36</ele>
        <time>2018-04-21T13:21:52Z</time>
      </trkpt>
      <trkpt lat="43.17212" lon="2.50914">
        <ele>216.91</ele>
        <time>2018-04-21T13:22:07Z</time>
      </trkpt>
      <trkpt lat="43.1721" lon="2.50929">
        <ele>215.95</ele>
        <time>2018-04-21T13:22:16Z</time>
      </trkpt>
      <trkpt lat="43.17204" lon="2.50955">
        <ele>214.03</ele>
        <time>2018-04-21T13:22:32Z</time>
      </trkpt>
      <trkpt lat="43.17203" lon="2.50963">
        <ele>213.55</ele>
        <time>2018-04-21T13:22:38Z</time>
      </trkpt>
      <trkpt lat="43.17193" lon="2.50984">
        <ele>212.59</ele>
        <time>2018-04-21T13:22:53Z</time>
      </trkpt>
      <trkpt lat="43.17193" lon="2.50986">
        <ele>212.11</ele>
        <time>2018-04-21T13:22:54Z</time>
      </trkpt>
      <trkpt lat="43.17178" lon="2.51052">
        <ele>209.22</ele>
        <time>2018-04-21T13:23:56Z</time>
      </trkpt>
      <trkpt lat="43.17177" lon="2.51053">
        <ele>208.74</ele>
        <time>2018-04-21T13:24:09Z</time>
      </trkpt>
      <trkpt lat="43.17176" lon="2.51064">
        <ele>208.26</ele>
        <time>2018-04-21T13:24:19Z</time>
      </trkpt>
      <trkpt lat="43.17172" lon="2.51084">
        <ele>206.82</ele>
        <time>2018-04-21T13:24:34Z</time>
      </trkpt>
      <trkpt lat="43.17168" lon="2.51106">
        <ele>206.34</ele>
        <time>2018-04-21T13:24:51Z</time>
      </trkpt>
      <trkpt lat="43.17165" lon="2.51124">
        <ele>204.9</ele>
        <time>2018-04-21T13:25:05Z</time>
      </trkpt>
      <trkpt lat="43.17162" lon="2.51133">
        <ele>204.9</ele>
        <time>2018-04-21T13:25:13Z</time>
      </trkpt>
      <trkpt lat="43.17162" lon="2.51136">
        <ele>204.9</ele>
        <time>2018-04-21T13:25:16Z</time>
      </trkpt>
      <trkpt lat="43.1716" lon="2.51151">
        <ele>203.94</ele>
        <time>2018-04-21T13:25:28Z</time>
      </trkpt>
      <trkpt lat="43.17156" lon="2.51177">
        <ele>203.46</ele>
        <time>2018-04-21T13:25:46Z</time>
      </trkpt>
      <trkpt lat="43.17155" lon="2.51181">
        <ele>202.98</ele>
        <time>2018-04-21T13:25:49Z</time>
      </trkpt>
      <trkpt lat="43.17156" lon="2.51186">
        <ele>202.98</ele>
        <time>2018-04-21T13:25:53Z</time>
      </trkpt>
      <trkpt lat="43.17154" lon="2.51196">
        <ele>202.49</ele>
        <time>2018-04-21T13:26:01Z</time>
      </trkpt>
      <trkpt lat="43.17154" lon="2.51202">
        <ele>202.01</ele>
        <time>2018-04-21T13:26:05Z</time>
      </trkpt>
      <trkpt lat="43.17154" lon="2.51222">
        <ele>200.57</ele>
        <time>2018-04-21T13:26:22Z</time>
      </trkpt>
      <trkpt lat="43.17157" lon="2.51221">
        <ele>200.57</ele>
        <time>2018-04-21T13:26:25Z</time>
      </trkpt>
      <trkpt lat="43.17167" lon="2.5123">
        <ele>199.61</ele>
        <time>2018-04-21T13:26:37Z</time>
      </trkpt>
      <trkpt lat="43.17178" lon="2.51237">
        <ele>199.13</ele>
        <time>2018-04-21T13:26:50Z</time>
      </trkpt>
      <trkpt lat="43.1718" lon="2.51236">
        <ele>199.13</ele>
        <time>2018-04-21T13:26:52Z</time>
      </trkpt>
      <trkpt lat="43.17196" lon="2.51234">
        <ele>198.17</ele>
        <time>2018-04-21T13:27:06Z</time>
      </trkpt>
      <trkpt lat="43.17207" lon="2.51225">
        <ele>197.21</ele>
        <time>2018-04-21T13:27:19Z</time>
      </trkpt>
      <trkpt lat="43.17214" lon="2.51223">
        <ele>195.77</ele>
        <time>2018-04-21T13:27:26Z</time>
      </trkpt>
      <trkpt lat="43.17221" lon="2.51228">
        <ele>195.28</ele>
        <time>2018-04-21T13:27:34Z</time>
      </trkpt>
      <trkpt lat="43.17228" lon="2.51236">
        <ele>195.28</ele>
        <time>2018-04-21T13:27:50Z</time>
      </trkpt>
      <trkpt lat="43.17234" lon="2.51241">
        <ele>193.84</ele>
        <time>2018-04-21T13:28:03Z</time>
      </trkpt>
      <trkpt lat="43.17233" lon="2.51246">
        <ele>195.28</ele>
        <time>2018-04-21T13:28:17Z</time>
      </trkpt>
      <trkpt lat="43.17231" lon="2.51257">
        <ele>197.21</ele>
        <time>2018-04-21T13:28:29Z</time>
      </trkpt>
      <trkpt lat="43.17229" lon="2.51261">
        <ele>198.17</ele>
        <time>2018-04-21T13:28:43Z</time>
      </trkpt>
      <trkpt lat="43.17226" lon="2.51266">
        <ele>199.13</ele>
        <time>2018-04-21T13:28:57Z</time>
      </trkpt>
      <trkpt lat="43.17226" lon="2.51275">
        <ele>201.05</ele>
        <time>2018-04-21T13:29:10Z</time>
      </trkpt>
      <trkpt lat="43.17224" lon="2.51282">
        <ele>202.49</ele>
        <time>2018-04-21T13:29:25Z</time>
      </trkpt>
      <trkpt lat="43.17223" lon="2.51282">
        <ele>202.49</ele>
        <time>2018-04-21T13:29:26Z</time>
      </trkpt>
      <trkpt lat="43.17223" lon="2.51284">
        <ele>202.98</ele>
        <time>2018-04-21T13:29:28Z</time>
      </trkpt>
      <trkpt lat="43.17198" lon="2.51313">
        <ele>213.55</ele>
        <time>2018-04-21T13:30:50Z</time>
      </trkpt>
      <trkpt lat="43.17196" lon="2.51316">
        <ele>215.47</ele>
        <time>2018-04-21T13:31:06Z</time>
      </trkpt>
      <trkpt lat="43.17194" lon="2.5132">
        <ele>216.91</ele>
        <time>2018-04-21T13:31:19Z</time>
      </trkpt>
      <trkpt lat="43.1719" lon="2.51324">
        <ele>218.36</ele>
        <time>2018-04-21T13:31:41Z</time>
      </trkpt>
      <trkpt lat="43.17189" lon="2.51326">
        <ele>219.8</ele>
        <time>2018-04-21T13:31:54Z</time>
      </trkpt>
      <trkpt lat="43.1718" lon="2.51329">
        <ele>221.72</ele>
        <time>2018-04-21T13:32:13Z</time>
      </trkpt>
      <trkpt lat="43.17166" lon="2.51349">
        <ele>230.37</ele>
        <time>2018-04-21T13:33:25Z</time>
      </trkpt>
      <trkpt lat="43.17164" lon="2.51355">
        <ele>230.85</ele>
        <time>2018-04-21T13:33:39Z</time>
      </trkpt>
      <trkpt lat="43.17163" lon="2.51365">
        <ele>233.26</ele>
        <time>2018-04-21T13:33:54Z</time>
      </trkpt>
      <trkpt lat="43.17163" lon="2.51376">
        <ele>235.18</ele>
        <time>2018-04-21T13:34:07Z</time>
      </trkpt>
      <trkpt lat="43.17164" lon="2.51386">
        <ele>236.62</ele>
        <time>2018-04-21T13:34:20Z</time>
      </trkpt>
      <trkpt lat="43.17164" lon="2.51384">
        <ele>236.14</ele>
        <time>2018-04-21T13:34:45Z</time>
      </trkpt>
      <trkpt lat="43.17163" lon="2.51385">
        <ele>235.66</ele>
        <time>2018-04-21T13:35:11Z</time>
      </trkpt>
      <trkpt lat="43.17163" lon="2.51387">
        <ele>235.66</ele>
        <time>2018-04-21T13:35:38Z</time>
      </trkpt>
      <trkpt lat="43.17162" lon="2.5139">
        <ele>235.66</ele>
        <time>2018-04-21T13:35:48Z</time>
      </trkpt>
      <trkpt lat="43.17161" lon="2.51395">
        <ele>237.1</ele>
        <time>2018-04-21T13:35:53Z</time>
      </trkpt>
      <trkpt lat="43.17153" lon="2.51404">
        <ele>238.06</ele>
        <time>2018-04-21T13:36:07Z</time>
      </trkpt>
      <trkpt lat="43.17146" lon="2.51407">
        <ele>238.54</ele>
        <time>2018-04-21T13:36:18Z</time>
      </trkpt>
      <trkpt lat="43.17137" lon="2.51406">
        <ele>239.99</ele>
        <time>2018-04-21T13:36:29Z</time>
      </trkpt>
      <trkpt lat="43.17126" lon="2.51399">
        <ele>240.47</ele>
        <time>2018-04-21T13:36:42Z</time>
      </trkpt>
      <trkpt lat="43.17125" lon="2.51399">
        <ele>241.43</ele>
        <time>2018-04-21T13:36:43Z</time>
      </trkpt>
      <trkpt lat="43.17119" lon="2.51397">
        <ele>242.39</ele>
        <time>2018-04-21T13:36:56Z</time>
      </trkpt>
      <trkpt lat="43.17118" lon="2.51403">
        <ele>243.35</ele>
        <time>2018-04-21T13:37:08Z</time>
      </trkpt>
      <trkpt lat="43.17119" lon="2.51406">
        <ele>243.83</ele>
        <time>2018-04-21T13:37:22Z</time>
      </trkpt>
      <trkpt lat="43.17119" lon="2.51407">
        <ele>244.31</ele>
        <time>2018-04-21T13:37:51Z</time>
      </trkpt>
      <trkpt lat="43.17121" lon="2.51415">
        <ele>245.27</ele>
        <time>2018-04-21T13:38:05Z</time>
      </trkpt>
      <trkpt lat="43.17128" lon="2.51419">
        <ele>245.27</ele>
        <time>2018-04-21T13:38:18Z</time>
      </trkpt>
      <trkpt lat="43.17128" lon="2.51433">
        <ele>244.79</ele>
        <time>2018-04-21T13:38:30Z</time>
      </trkpt>
      <trkpt lat="43.17131" lon="2.51443">
        <ele>244.79</ele>
        <time>2018-04-21T13:38:43Z</time>
      </trkpt>
      <trkpt lat="43.1713" lon="2.51451">
        <ele>245.75</ele>
        <time>2018-04-21T13:38:54Z</time>
      </trkpt>
      <trkpt lat="43.1713" lon="2.51453">
        <ele>246.23</ele>
        <time>2018-04-21T13:38:55Z</time>
      </trkpt>
      <trkpt lat="43.17132" lon="2.51465">
        <ele>247.68</ele>
        <time>2018-04-21T13:39:09Z</time>
      </trkpt>
      <trkpt lat="43.17134" lon="2.51476">
        <ele>249.12</ele>
        <time>2018-04-21T13:39:22Z</time>
      </trkpt>
      <trkpt lat="43.17136" lon="2.51488">
        <ele>248.16</ele>
        <time>2018-04-21T13:39:35Z</time>
      </trkpt>
      <trkpt lat="43.17138" lon="2.51491">
        <ele>248.16</ele>
        <time>2018-04-21T13:39:43Z</time>
      </trkpt>
      <trkpt lat="43.17146" lon="2.51506">
        <ele>248.16</ele>
        <time>2018-04-21T13:39:57Z</time>
      </trkpt>
      <trkpt lat="43.17143" lon="2.51518">
        <ele>245.75</ele>
        <time>2018-04-21T13:40:11Z</time>
      </trkpt>
      <trkpt lat="43.17143" lon="2.51525">
        <ele>244.79</ele>
        <time>2018-04-21T13:40:24Z</time>
      </trkpt>
      <trkpt lat="43.17144" lon="2.51526">
        <ele>244.79</ele>
        <time>2018-04-21T13:40:29Z</time>
      </trkpt>
      <trkpt lat="43.17151" lon="2.51536">
        <ele>243.35</ele>
        <time>2018-04-21T13:41:04Z</time>
      </trkpt>
      <trkpt lat="43.1716" lon="2.51549">
        <ele>243.83</ele>
        <time>2018-04-21T13:41:18Z</time>
      </trkpt>
      <trkpt lat="43.17168" lon="2.5156">
        <ele>244.79</ele>
        <time>2018-04-21T13:41:33Z</time>
      </trkpt>
      <trkpt lat="43.17188" lon="2.51575">
        <ele>248.16</ele>
        <time>2018-04-21T13:42:30Z</time>
      </trkpt>
      <trkpt lat="43.17196" lon="2.5158">
        <ele>247.2</ele>
        <time>2018-04-21T13:42:44Z</time>
      </trkpt>
      <trkpt lat="43.17198" lon="2.51589">
        <ele>245.75</ele>
        <time>2018-04-21T13:42:57Z</time>
      </trkpt>
      <trkpt lat="43.17196" lon="2.51599">
        <ele>243.35</ele>
        <time>2018-04-21T13:43:09Z</time>
      </trkpt>
      <trkpt lat="43.17197" lon="2.5161">
        <ele>242.87</ele>
        <time>2018-04-21T13:43:24Z</time>
      </trkpt>
      <trkpt lat="43.17197" lon="2.51611">
        <ele>242.39</ele>
        <time>2018-04-21T13:43:26Z</time>
      </trkpt>
      <trkpt lat="43.17199" lon="2.51628">
        <ele>240.47</ele>
        <time>2018-04-21T13:43:41Z</time>
      </trkpt>
      <trkpt lat="43.17201" lon="2.51641">
        <ele>238.54</ele>
        <time>2018-04-21T13:43:55Z</time>
      </trkpt>
      <trkpt lat="43.17203" lon="2.51656">
        <ele>238.54</ele>
        <time>2018-04-21T13:44:08Z</time>
      </trkpt>
      <trkpt lat="43.17206" lon="2.51666">
        <ele>239.02</ele>
        <time>2018-04-21T13:44:22Z</time>
      </trkpt>
      <trkpt lat="43.17204" lon="2.51677">
        <ele>236.62</ele>
        <time>2018-04-21T13:44:35Z</time>
      </trkpt>
      <trkpt lat="43.1721" lon="2.51691">
        <ele>236.62</ele>
        <time>2018-04-21T13:44:47Z</time>
      </trkpt>
      <trkpt lat="43.1721" lon="2.51707">
        <ele>235.66</ele>
        <time>2018-04-21T13:45:00Z</time>
      </trkpt>
      <trkpt lat="43.17212" lon="2.51717">
        <ele>232.78</ele>
        <time>2018-04-21T13:45:12Z</time>
      </trkpt>
      <trkpt lat="43.17214" lon="2.51726">
        <ele>231.33</ele>
        <time>2018-04-21T13:45:25Z</time>
      </trkpt>
      <trkpt lat="43.17218" lon="2.51736">
        <ele>229.89</ele>
        <time>2018-04-21T13:45:37Z</time>
      </trkpt>
      <trkpt lat="43.17224" lon="2.5174">
        <ele>227.49</ele>
        <time>2018-04-21T13:45:51Z</time>
      </trkpt>
      <trkpt lat="43.17229" lon="2.51748">
        <ele>226.05</ele>
        <time>2018-04-21T13:46:04Z</time>
      </trkpt>
      <trkpt lat="43.17239" lon="2.51742">
        <ele>227.01</ele>
        <time>2018-04-21T13:46:19Z</time>
      </trkpt>
      <trkpt lat="43.17245" lon="2.51743">
        <ele>227.97</ele>
        <time>2018-04-21T13:46:32Z</time>
      </trkpt>
      <trkpt lat="43.17248" lon="2.51745">
        <ele>227.97</ele>
        <time>2018-04-21T13:46:52Z</time>
      </trkpt>
      <trkpt lat="43.17252" lon="2.51744">
        <ele>227.97</ele>
        <time>2018-04-21T13:47:56Z</time>
      </trkpt>
      <trkpt lat="43.17258" lon="2.51749">
        <ele>228.93</ele>
        <time>2018-04-21T13:48:10Z</time>
      </trkpt>
      <trkpt lat="43.1726" lon="2.51752">
        <ele>228.45</ele>
        <time>2018-04-21T13:48:15Z</time>
      </trkpt>
      <trkpt lat="43.17266" lon="2.51769">
        <ele>226.53</ele>
        <time>2018-04-21T13:48:29Z</time>
      </trkpt>
      <trkpt lat="43.1727" lon="2.51784">
        <ele>224.12</ele>
        <time>2018-04-21T13:48:44Z</time>
      </trkpt>
      <trkpt lat="43.17273" lon="2.51798">
        <ele>221.24</ele>
        <time>2018-04-21T13:48:57Z</time>
      </trkpt>
      <trkpt lat="43.17276" lon="2.51812">
        <ele>219.32</ele>
        <time>2018-04-21T13:49:11Z</time>
      </trkpt>
      <trkpt lat="43.17278" lon="2.51827">
        <ele>218.36</ele>
        <time>2018-04-21T13:49:24Z</time>
      </trkpt>
      <trkpt lat="43.17278" lon="2.51829">
        <ele>218.36</ele>
        <time>2018-04-21T13:49:25Z</time>
      </trkpt>
      <trkpt lat="43.17278" lon="2.51838">
        <ele>216.91</ele>
        <time>2018-04-21T13:49:39Z</time>
      </trkpt>
      <trkpt lat="43.17278" lon="2.51846">
        <ele>215.95</ele>
        <time>2018-04-21T13:50:05Z</time>
      </trkpt>
      <trkpt lat="43.17278" lon="2.51852">
        <ele>213.55</ele>
        <time>2018-04-21T13:50:19Z</time>
      </trkpt>
      <trkpt lat="43.17281" lon="2.51858">
        <ele>213.55</ele>
        <time>2018-04-21T13:50:31Z</time>
      </trkpt>
      <trkpt lat="43.17285" lon="2.51858">
        <ele>214.51</ele>
        <time>2018-04-21T13:50:40Z</time>
      </trkpt>
      <trkpt lat="43.1729" lon="2.51851">
        <ele>213.55</ele>
        <time>2018-04-21T13:50:52Z</time>
      </trkpt>
      <trkpt lat="43.173" lon="2.51863">
        <ele>210.67</ele>
        <time>2018-04-21T13:51:32Z</time>
      </trkpt>
      <trkpt lat="43.17306" lon="2.51867">
        <ele>209.7</ele>
        <time>2018-04-21T13:51:45Z</time>
      </trkpt>
      <trkpt lat="43.17309" lon="2.51877">
        <ele>208.74</ele>
        <time>2018-04-21T13:51:57Z</time>
      </trkpt>
      <trkpt lat="43.1731" lon="2.5189">
        <ele>209.22</ele>
        <time>2018-04-21T13:52:10Z</time>
      </trkpt>
      <trkpt lat="43.17308" lon="2.51898">
        <ele>210.19</ele>
        <time>2018-04-21T13:52:19Z</time>
      </trkpt>
      <trkpt lat="43.17309" lon="2.51902">
        <ele>209.7</ele>
        <time>2018-04-21T13:52:37Z</time>
      </trkpt>
      <trkpt lat="43.17312" lon="2.51935">
        <ele>208.74</ele>
        <time>2018-04-21T13:53:07Z</time>
      </trkpt>
      <trkpt lat="43.17313" lon="2.5194">
        <ele>207.78</ele>
        <time>2018-04-21T13:53:20Z</time>
      </trkpt>
      <trkpt lat="43.17319" lon="2.51948">
        <ele>205.38</ele>
        <time>2018-04-21T13:53:35Z</time>
      </trkpt>
      <trkpt lat="43.17319" lon="2.51949">
        <ele>203.94</ele>
        <time>2018-04-21T13:53:37Z</time>
      </trkpt>
      <trkpt lat="43.17321" lon="2.51961">
        <ele>202.01</ele>
        <time>2018-04-21T13:53:49Z</time>
      </trkpt>
      <trkpt lat="43.17326" lon="2.51984">
        <ele>200.57</ele>
        <time>2018-04-21T13:54:15Z</time>
      </trkpt>
      <trkpt lat="43.17327" lon="2.51986">
        <ele>200.09</ele>
        <time>2018-04-21T13:54:16Z</time>
      </trkpt>
      <trkpt lat="43.17328" lon="2.51998">
        <ele>199.61</ele>
        <time>2018-04-21T13:54:24Z</time>
      </trkpt>
      <trkpt lat="43.17327" lon="2.52012">
        <ele>200.09</ele>
        <time>2018-04-21T13:54:35Z</time>
      </trkpt>
      <trkpt lat="43.17326" lon="2.52015">
        <ele>200.09</ele>
        <time>2018-04-21T13:54:37Z</time>
      </trkpt>
      <trkpt lat="43.17329" lon="2.52029">
        <ele>200.09</ele>
        <time>2018-04-21T13:54:48Z</time>
      </trkpt>
      <trkpt lat="43.17328" lon="2.52046">
        <ele>200.09</ele>
        <time>2018-04-21T13:55:02Z</time>
      </trkpt>
      <trkpt lat="43.17331" lon="2.5206">
        <ele>198.65</ele>
        <time>2018-04-21T13:55:16Z</time>
      </trkpt>
      <trkpt lat="43.17331" lon="2.52077">
        <ele>197.21</ele>
        <time>2018-04-21T13:55:33Z</time>
      </trkpt>
      <trkpt lat="43.17335" lon="2.52093">
        <ele>195.28</ele>
        <time>2018-04-21T13:55:48Z</time>
      </trkpt>
      <trkpt lat="43.17336" lon="2.52106">
        <ele>193.84</ele>
        <time>2018-04-21T13:56:01Z</time>
      </trkpt>
      <trkpt lat="43.17333" lon="2.5212">
        <ele>192.4</ele>
        <time>2018-04-21T13:56:15Z</time>
      </trkpt>
      <trkpt lat="43.17338" lon="2.52142">
        <ele>192.88</ele>
        <time>2018-04-21T13:56:29Z</time>
      </trkpt>
      <trkpt lat="43.17341" lon="2.52152">
        <ele>193.84</ele>
        <time>2018-04-21T13:56:40Z</time>
      </trkpt>
      <trkpt lat="43.1734" lon="2.5216">
        <ele>194.32</ele>
        <time>2018-04-21T13:56:52Z</time>
      </trkpt>
      <trkpt lat="43.1734" lon="2.5218">
        <ele>192.88</ele>
        <time>2018-04-21T13:57:19Z</time>
      </trkpt>
      <trkpt lat="43.17342" lon="2.52191">
        <ele>192.88</ele>
        <time>2018-04-21T13:57:32Z</time>
      </trkpt>
      <trkpt lat="43.17346" lon="2.52205">
        <ele>191.44</ele>
        <time>2018-04-21T13:57:45Z</time>
      </trkpt>
      <trkpt lat="43.17348" lon="2.52211">
        <ele>191.44</ele>
        <time>2018-04-21T13:57:49Z</time>
      </trkpt>
      <trkpt lat="43.17353" lon="2.52233">
        <ele>189.52</ele>
        <time>2018-04-21T13:58:06Z</time>
      </trkpt>
      <trkpt lat="43.17356" lon="2.52249">
        <ele>188.08</ele>
        <time>2018-04-21T13:58:16Z</time>
      </trkpt>
      <trkpt lat="43.17357" lon="2.52262">
        <ele>186.15</ele>
        <time>2018-04-21T13:58:26Z</time>
      </trkpt>
      <trkpt lat="43.17361" lon="2.52281">
        <ele>184.23</ele>
        <time>2018-04-21T13:58:44Z</time>
      </trkpt>
      <trkpt lat="43.17362" lon="2.523">
        <ele>183.75</ele>
        <time>2018-04-21T13:58:57Z</time>
      </trkpt>
      <trkpt lat="43.17361" lon="2.52324">
        <ele>182.79</ele>
        <time>2018-04-21T13:59:11Z</time>
      </trkpt>
      <trkpt lat="43.17361" lon="2.52326">
        <ele>182.31</ele>
        <time>2018-04-21T13:59:13Z</time>
      </trkpt>
      <trkpt lat="43.17362" lon="2.52335">
        <ele>181.83</ele>
        <time>2018-04-21T13:59:18Z</time>
      </trkpt>
      <trkpt lat="43.1736" lon="2.52351">
        <ele>180.87</ele>
        <time>2018-04-21T13:59:29Z</time>
      </trkpt>
      <trkpt lat="43.17361" lon="2.5237">
        <ele>178.94</ele>
        <time>2018-04-21T13:59:44Z</time>
      </trkpt>
      <trkpt lat="43.17362" lon="2.52386">
        <ele>176.54</ele>
        <time>2018-04-21T13:59:57Z</time>
      </trkpt>
      <trkpt lat="43.17362" lon="2.52402">
        <ele>175.1</ele>
        <time>2018-04-21T14:00:08Z</time>
      </trkpt>
      <trkpt lat="43.17368" lon="2.52418">
        <ele>172.21</ele>
        <time>2018-04-21T14:00:22Z</time>
      </trkpt>
      <trkpt lat="43.17365" lon="2.52434">
        <ele>170.77</ele>
        <time>2018-04-21T14:00:35Z</time>
      </trkpt>
      <trkpt lat="43.17359" lon="2.52441">
        <ele>169.33</ele>
        <time>2018-04-21T14:00:47Z</time>
      </trkpt>
      <trkpt lat="43.17353" lon="2.52442">
        <ele>168.37</ele>
        <time>2018-04-21T14:01:01Z</time>
      </trkpt>
      <trkpt lat="43.17353" lon="2.52444">
        <ele>166.45</ele>
        <time>2018-04-21T14:01:15Z</time>
      </trkpt>
      <trkpt lat="43.17351" lon="2.52444">
        <ele>165</ele>
        <time>2018-04-21T14:01:31Z</time>
      </trkpt>
      <trkpt lat="43.17347" lon="2.52443">
        <ele>163.08</ele>
        <time>2018-04-21T14:01:46Z</time>
      </trkpt>
      <trkpt lat="43.17346" lon="2.52451">
        <ele>159.72</ele>
        <time>2018-04-21T14:02:02Z</time>
      </trkpt>
      <trkpt lat="43.17345" lon="2.52456">
        <ele>157.79</ele>
        <time>2018-04-21T14:02:18Z</time>
      </trkpt>
      <trkpt lat="43.17344" lon="2.52467">
        <ele>156.35</ele>
        <time>2018-04-21T14:02:30Z</time>
      </trkpt>
      <trkpt lat="43.17346" lon="2.5247">
        <ele>153.95</ele>
        <time>2018-04-21T14:02:45Z</time>
      </trkpt>
      <trkpt lat="43.17353" lon="2.52481">
        <ele>152.51</ele>
        <time>2018-04-21T14:02:58Z</time>
      </trkpt>
      <trkpt lat="43.17352" lon="2.52488">
        <ele>149.62</ele>
        <time>2018-04-21T14:03:11Z</time>
      </trkpt>
      <trkpt lat="43.17351" lon="2.52498">
        <ele>147.22</ele>
        <time>2018-04-21T14:03:27Z</time>
      </trkpt>
      <trkpt lat="43.17358" lon="2.52503">
        <ele>146.26</ele>
        <time>2018-04-21T14:03:44Z</time>
      </trkpt>
      <trkpt lat="43.17363" lon="2.52501">
        <ele>145.3</ele>
        <time>2018-04-21T14:03:58Z</time>
      </trkpt>
      <trkpt lat="43.17372" lon="2.52509">
        <ele>142.41</ele>
        <time>2018-04-21T14:04:13Z</time>
      </trkpt>
      <trkpt lat="43.17377" lon="2.5251">
        <ele>140.97</ele>
        <time>2018-04-21T14:04:26Z</time>
      </trkpt>
      <trkpt lat="43.17389" lon="2.52506">
        <ele>140.49</ele>
        <time>2018-04-21T14:04:43Z</time>
      </trkpt>
      <trkpt lat="43.17401" lon="2.52511">
        <ele>139.53</ele>
        <time>2018-04-21T14:04:59Z</time>
      </trkpt>
      <trkpt lat="43.17405" lon="2.52513">
        <ele>139.53</ele>
        <time>2018-04-21T14:05:14Z</time>
      </trkpt>
      <trkpt lat="43.17406" lon="2.52514">
        <ele>139.53</ele>
        <time>2018-04-21T14:05:26Z</time>
      </trkpt>
      <trkpt lat="43.17414" lon="2.52517">
        <ele>140.01</ele>
        <time>2018-04-21T14:05:34Z</time>
      </trkpt>
      <trkpt lat="43.17423" lon="2.52528">
        <ele>140.01</ele>
        <time>2018-04-21T14:05:48Z</time>
      </trkpt>
      <trkpt lat="43.17427" lon="2.5253">
        <ele>140.01</ele>
        <time>2018-04-21T14:05:51Z</time>
      </trkpt>
      <trkpt lat="43.17442" lon="2.52548">
        <ele>138.57</ele>
        <time>2018-04-21T14:06:09Z</time>
      </trkpt>
      <trkpt lat="43.17443" lon="2.5255">
        <ele>138.57</ele>
        <time>2018-04-21T14:06:11Z</time>
      </trkpt>
      <trkpt lat="43.17448" lon="2.52565">
        <ele>138.57</ele>
        <time>2018-04-21T14:06:23Z</time>
      </trkpt>
      <trkpt lat="43.17453" lon="2.52584">
        <ele>138.09</ele>
        <time>2018-04-21T14:06:39Z</time>
      </trkpt>
      <trkpt lat="43.17457" lon="2.52591">
        <ele>136.16</ele>
        <time>2018-04-21T14:06:50Z</time>
      </trkpt>
      <trkpt lat="43.17455" lon="2.52591">
        <ele>137.61</ele>
        <time>2018-04-21T14:07:01Z</time>
      </trkpt>
      <trkpt lat="43.17462" lon="2.52599">
        <ele>137.13</ele>
        <time>2018-04-21T14:07:16Z</time>
      </trkpt>
      <trkpt lat="43.17462" lon="2.52605">
        <ele>136.64</ele>
        <time>2018-04-21T14:07:20Z</time>
      </trkpt>
      <trkpt lat="43.17455" lon="2.52604">
        <ele>136.64</ele>
        <time>2018-04-21T14:07:26Z</time>
      </trkpt>
      <trkpt lat="43.17445" lon="2.52589">
        <ele>135.68</ele>
        <time>2018-04-21T14:07:40Z</time>
      </trkpt>
      <trkpt lat="43.17441" lon="2.52583">
        <ele>135.2</ele>
        <time>2018-04-21T14:07:46Z</time>
      </trkpt>
      <trkpt lat="43.1743" lon="2.52575">
        <ele>133.28</ele>
        <time>2018-04-21T14:08:00Z</time>
      </trkpt>
      <trkpt lat="43.17417" lon="2.52568">
        <ele>130.88</ele>
        <time>2018-04-21T14:08:15Z</time>
      </trkpt>
      <trkpt lat="43.17412" lon="2.52565">
        <ele>129.92</ele>
        <time>2018-04-21T14:08:23Z</time>
      </trkpt>
      <trkpt lat="43.17408" lon="2.52568">
        <ele>129.92</ele>
        <time>2018-04-21T14:08:34Z</time>
      </trkpt>
      <trkpt lat="43.17401" lon="2.52576">
        <ele>128.47</ele>
        <time>2018-04-21T14:09:23Z</time>
      </trkpt>
      <trkpt lat="43.17397" lon="2.52583">
        <ele>128.95</ele>
        <time>2018-04-21T14:09:37Z</time>
      </trkpt>
      <trkpt lat="43.17397" lon="2.52587">
        <ele>129.43</ele>
        <time>2018-04-21T14:09:50Z</time>
      </trkpt>
      <trkpt lat="43.17397" lon="2.5259">
        <ele>129.43</ele>
        <time>2018-04-21T14:10:03Z</time>
      </trkpt>
      <trkpt lat="43.17395" lon="2.52601">
        <ele>128.95</ele>
        <time>2018-04-21T14:10:23Z</time>
      </trkpt>
      <trkpt lat="43.17403" lon="2.52615">
        <ele>128.95</ele>
        <time>2018-04-21T14:10:38Z</time>
      </trkpt>
      <trkpt lat="43.17406" lon="2.52619">
        <ele>128.47</ele>
        <time>2018-04-21T14:10:41Z</time>
      </trkpt>
      <trkpt lat="43.17409" lon="2.52626">
        <ele>128.47</ele>
        <time>2018-04-21T14:10:47Z</time>
      </trkpt>
      <trkpt lat="43.1741" lon="2.52628">
        <ele>127.99</ele>
        <time>2018-04-21T14:10:49Z</time>
      </trkpt>
      <trkpt lat="43.17415" lon="2.52645">
        <ele>129.92</ele>
        <time>2018-04-21T14:11:04Z</time>
      </trkpt>
      <trkpt lat="43.17421" lon="2.5266">
        <ele>131.36</ele>
        <time>2018-04-21T14:11:19Z</time>
      </trkpt>
      <trkpt lat="43.17423" lon="2.52661">
        <ele>130.88</ele>
        <time>2018-04-21T14:11:22Z</time>
      </trkpt>
      <trkpt lat="43.1743" lon="2.52681">
        <ele>130.88</ele>
        <time>2018-04-21T14:11:37Z</time>
      </trkpt>
      <trkpt lat="43.17432" lon="2.52685">
        <ele>130.88</ele>
        <time>2018-04-21T14:11:41Z</time>
      </trkpt>
      <trkpt lat="43.17444" lon="2.52697">
        <ele>129.43</ele>
        <time>2018-04-21T14:11:55Z</time>
      </trkpt>
      <trkpt lat="43.17452" lon="2.5272">
        <ele>128.95</ele>
        <time>2018-04-21T14:12:10Z</time>
      </trkpt>
      <trkpt lat="43.17462" lon="2.52746">
        <ele>127.51</ele>
        <time>2018-04-21T14:12:28Z</time>
      </trkpt>
      <trkpt lat="43.17466" lon="2.52762">
        <ele>127.99</ele>
        <time>2018-04-21T14:12:40Z</time>
      </trkpt>
      <trkpt lat="43.17468" lon="2.5277">
        <ele>127.99</ele>
        <time>2018-04-21T14:12:45Z</time>
      </trkpt>
      <trkpt lat="43.17472" lon="2.52786">
        <ele>127.99</ele>
        <time>2018-04-21T14:12:56Z</time>
      </trkpt>
      <trkpt lat="43.17477" lon="2.52799">
        <ele>126.55</ele>
        <time>2018-04-21T14:13:06Z</time>
      </trkpt>
      <trkpt lat="43.17479" lon="2.52803">
        <ele>127.03</ele>
        <time>2018-04-21T14:13:09Z</time>
      </trkpt>
      <trkpt lat="43.17488" lon="2.52822">
        <ele>126.55</ele>
        <time>2018-04-21T14:13:25Z</time>
      </trkpt>
      <trkpt lat="43.1749" lon="2.52825">
        <ele>126.07</ele>
        <time>2018-04-21T14:13:27Z</time>
      </trkpt>
      <trkpt lat="43.17491" lon="2.52827">
        <ele>126.55</ele>
        <time>2018-04-21T14:13:29Z</time>
      </trkpt>
      <trkpt lat="43.17493" lon="2.5283">
        <ele>126.07</ele>
        <time>2018-04-21T14:13:32Z</time>
      </trkpt>
      <trkpt lat="43.17503" lon="2.5285">
        <ele>126.07</ele>
        <time>2018-04-21T14:13:48Z</time>
      </trkpt>
      <trkpt lat="43.17506" lon="2.52855">
        <ele>125.11</ele>
        <time>2018-04-21T14:13:52Z</time>
      </trkpt>
      <trkpt lat="43.17515" lon="2.52875">
        <ele>125.59</ele>
        <time>2018-04-21T14:14:09Z</time>
      </trkpt>
      <trkpt lat="43.17518" lon="2.52882">
        <ele>126.07</ele>
        <time>2018-04-21T14:14:15Z</time>
      </trkpt>
      <trkpt lat="43.17526" lon="2.52904">
        <ele>126.55</ele>
        <time>2018-04-21T14:14:32Z</time>
      </trkpt>
      <trkpt lat="43.17532" lon="2.5292">
        <ele>127.03</ele>
        <time>2018-04-21T14:14:45Z</time>
      </trkpt>
      <trkpt lat="43.17535" lon="2.52931">
        <ele>127.03</ele>
        <time>2018-04-21T14:14:55Z</time>
      </trkpt>
      <trkpt lat="43.17535" lon="2.52933">
        <ele>127.51</ele>
        <time>2018-04-21T14:14:56Z</time>
      </trkpt>
      <trkpt lat="43.17539" lon="2.52949">
        <ele>127.99</ele>
        <time>2018-04-21T14:15:07Z</time>
      </trkpt>
      <trkpt lat="43.17545" lon="2.52974">
        <ele>129.43</ele>
        <time>2018-04-21T14:15:24Z</time>
      </trkpt>
      <trkpt lat="43.17546" lon="2.52992">
        <ele>129.92</ele>
        <time>2018-04-21T14:15:38Z</time>
      </trkpt>
      <trkpt lat="43.17547" lon="2.52999">
        <ele>129.43</ele>
        <time>2018-04-21T14:15:42Z</time>
      </trkpt>
      <trkpt lat="43.17547" lon="2.53">
        <ele>129.92</ele>
        <time>2018-04-21T14:15:44Z</time>
      </trkpt>
      <trkpt lat="43.17552" lon="2.53019">
        <ele>130.88</ele>
        <time>2018-04-21T14:15:59Z</time>
      </trkpt>
      <trkpt lat="43.17556" lon="2.53039">
        <ele>130.4</ele>
        <time>2018-04-21T14:16:13Z</time>
      </trkpt>
      <trkpt lat="43.17556" lon="2.53046">
        <ele>130.88</ele>
        <time>2018-04-21T14:16:18Z</time>
      </trkpt>
      <trkpt lat="43.17561" lon="2.53064">
        <ele>131.36</ele>
        <time>2018-04-21T14:16:32Z</time>
      </trkpt>
      <trkpt lat="43.17564" lon="2.53073">
        <ele>131.84</ele>
        <time>2018-04-21T14:16:39Z</time>
      </trkpt>
      <trkpt lat="43.17566" lon="2.53082">
        <ele>131.84</ele>
        <time>2018-04-21T14:16:46Z</time>
      </trkpt>
      <trkpt lat="43.17567" lon="2.53097">
        <ele>132.8</ele>
        <time>2018-04-21T14:16:56Z</time>
      </trkpt>
      <trkpt lat="43.17567" lon="2.53104">
        <ele>131.84</ele>
        <time>2018-04-21T14:17:00Z</time>
      </trkpt>
      <trkpt lat="43.17568" lon="2.53125">
        <ele>133.76</ele>
        <time>2018-04-21T14:17:12Z</time>
      </trkpt>
      <trkpt lat="43.17569" lon="2.53142">
        <ele>134.72</ele>
        <time>2018-04-21T14:17:23Z</time>
      </trkpt>
      <trkpt lat="43.1757" lon="2.53146">
        <ele>134.72</ele>
        <time>2018-04-21T14:17:26Z</time>
      </trkpt>
      <trkpt lat="43.17573" lon="2.53166">
        <ele>135.2</ele>
        <time>2018-04-21T14:17:40Z</time>
      </trkpt>
      <trkpt lat="43.17575" lon="2.53182">
        <ele>136.16</ele>
        <time>2018-04-21T14:17:51Z</time>
      </trkpt>
      <trkpt lat="43.17576" lon="2.53205">
        <ele>136.64</ele>
        <time>2018-04-21T14:18:06Z</time>
      </trkpt>
      <trkpt lat="43.17576" lon="2.5322">
        <ele>137.13</ele>
        <time>2018-04-21T14:18:17Z</time>
      </trkpt>
      <trkpt lat="43.17575" lon="2.53228">
        <ele>137.13</ele>
        <time>2018-04-21T14:18:23Z</time>
      </trkpt>
      <trkpt lat="43.17569" lon="2.53245">
        <ele>137.13</ele>
        <time>2018-04-21T14:18:36Z</time>
      </trkpt>
      <trkpt lat="43.17564" lon="2.5326">
        <ele>137.13</ele>
        <time>2018-04-21T14:18:46Z</time>
      </trkpt>
      <trkpt lat="43.17561" lon="2.53274">
        <ele>137.13</ele>
        <time>2018-04-21T14:18:57Z</time>
      </trkpt>
      <trkpt lat="43.1756" lon="2.53279">
        <ele>137.61</ele>
        <time>2018-04-21T14:19:01Z</time>
      </trkpt>
      <trkpt lat="43.17559" lon="2.53298">
        <ele>138.09</ele>
        <time>2018-04-21T14:19:14Z</time>
      </trkpt>
      <trkpt lat="43.17557" lon="2.53304">
        <ele>138.57</ele>
        <time>2018-04-21T14:19:18Z</time>
      </trkpt>
      <trkpt lat="43.17556" lon="2.53308">
        <ele>138.57</ele>
        <time>2018-04-21T14:19:22Z</time>
      </trkpt>
      <trkpt lat="43.17554" lon="2.53314">
        <ele>139.05</ele>
        <time>2018-04-21T14:19:26Z</time>
      </trkpt>
      <trkpt lat="43.17546" lon="2.53334">
        <ele>140.01</ele>
        <time>2018-04-21T14:19:41Z</time>
      </trkpt>
      <trkpt lat="43.17546" lon="2.53337">
        <ele>140.49</ele>
        <time>2018-04-21T14:19:43Z</time>
      </trkpt>
      <trkpt lat="43.17542" lon="2.53349">
        <ele>140.97</ele>
        <time>2018-04-21T14:19:52Z</time>
      </trkpt>
      <trkpt lat="43.17534" lon="2.53358">
        <ele>141.93</ele>
        <time>2018-04-21T14:20:07Z</time>
      </trkpt>
      <trkpt lat="43.17523" lon="2.53342">
        <ele>144.34</ele>
        <time>2018-04-21T14:21:09Z</time>
      </trkpt>
      <trkpt lat="43.1752" lon="2.53327">
        <ele>145.78</ele>
        <time>2018-04-21T14:21:21Z</time>
      </trkpt>
      <trkpt lat="43.17514" lon="2.53309">
        <ele>146.26</ele>
        <time>2018-04-21T14:21:34Z</time>
      </trkpt>
      <trkpt lat="43.1751" lon="2.533">
        <ele>147.22</ele>
        <time>2018-04-21T14:21:44Z</time>
      </trkpt>
      <trkpt lat="43.17503" lon="2.53293">
        <ele>148.18</ele>
        <time>2018-04-21T14:21:55Z</time>
      </trkpt>
      <trkpt lat="43.17496" lon="2.53285">
        <ele>150.1</ele>
        <time>2018-04-21T14:22:08Z</time>
      </trkpt>
      <trkpt lat="43.17495" lon="2.53265">
        <ele>151.06</ele>
        <time>2018-04-21T14:22:22Z</time>
      </trkpt>
      <trkpt lat="43.17497" lon="2.53248">
        <ele>152.03</ele>
        <time>2018-04-21T14:22:35Z</time>
      </trkpt>
      <trkpt lat="43.17492" lon="2.53236">
        <ele>153.47</ele>
        <time>2018-04-21T14:22:48Z</time>
      </trkpt>
      <trkpt lat="43.17487" lon="2.53228">
        <ele>154.43</ele>
        <time>2018-04-21T14:23:00Z</time>
      </trkpt>
      <trkpt lat="43.17486" lon="2.53228">
        <ele>154.43</ele>
        <time>2018-04-21T14:23:01Z</time>
      </trkpt>
      <trkpt lat="43.17477" lon="2.53228">
        <ele>155.39</ele>
        <time>2018-04-21T14:23:13Z</time>
      </trkpt>
      <trkpt lat="43.17474" lon="2.53226">
        <ele>155.87</ele>
        <time>2018-04-21T14:23:18Z</time>
      </trkpt>
      <trkpt lat="43.17471" lon="2.53223">
        <ele>155.39</ele>
        <time>2018-04-21T14:23:20Z</time>
      </trkpt>
      <trkpt lat="43.17463" lon="2.53208">
        <ele>154.91</ele>
        <time>2018-04-21T14:23:32Z</time>
      </trkpt>
      <trkpt lat="43.1746" lon="2.53199">
        <ele>154.43</ele>
        <time>2018-04-21T14:23:47Z</time>
      </trkpt>
      <trkpt lat="43.1746" lon="2.53201">
        <ele>154.91</ele>
        <time>2018-04-21T14:24:04Z</time>
      </trkpt>
      <trkpt lat="43.17458" lon="2.53196">
        <ele>154.91</ele>
        <time>2018-04-21T14:24:15Z</time>
      </trkpt>
      <trkpt lat="43.17458" lon="2.53193">
        <ele>154.43</ele>
        <time>2018-04-21T14:24:17Z</time>
      </trkpt>
      <trkpt lat="43.17457" lon="2.53187">
        <ele>153.95</ele>
        <time>2018-04-21T14:24:29Z</time>
      </trkpt>
      <trkpt lat="43.1745" lon="2.53178">
        <ele>153.47</ele>
        <time>2018-04-21T14:24:39Z</time>
      </trkpt>
      <trkpt lat="43.17438" lon="2.5317">
        <ele>152.03</ele>
        <time>2018-04-21T14:24:55Z</time>
      </trkpt>
      <trkpt lat="43.17427" lon="2.53164">
        <ele>151.06</ele>
        <time>2018-04-21T14:25:07Z</time>
      </trkpt>
      <trkpt lat="43.17413" lon="2.53159">
        <ele>150.58</ele>
        <time>2018-04-21T14:25:21Z</time>
      </trkpt>
      <trkpt lat="43.17405" lon="2.53154">
        <ele>149.14</ele>
        <time>2018-04-21T14:25:36Z</time>
      </trkpt>
      <trkpt lat="43.17394" lon="2.5315">
        <ele>148.18</ele>
        <time>2018-04-21T14:25:50Z</time>
      </trkpt>
      <trkpt lat="43.17387" lon="2.53154">
        <ele>147.7</ele>
        <time>2018-04-21T14:26:00Z</time>
      </trkpt>
      <trkpt lat="43.17383" lon="2.53164">
        <ele>147.7</ele>
        <time>2018-04-21T14:26:12Z</time>
      </trkpt>
      <trkpt lat="43.17378" lon="2.53176">
        <ele>147.7</ele>
        <time>2018-04-21T14:26:25Z</time>
      </trkpt>
      <trkpt lat="43.17375" lon="2.53194">
        <ele>147.22</ele>
        <time>2018-04-21T14:26:41Z</time>
      </trkpt>
      <trkpt lat="43.17366" lon="2.53201">
        <ele>147.7</ele>
        <time>2018-04-21T14:26:54Z</time>
      </trkpt>
      <trkpt lat="43.17357" lon="2.53211">
        <ele>147.22</ele>
        <time>2018-04-21T14:27:09Z</time>
      </trkpt>
      <trkpt lat="43.17347" lon="2.53227">
        <ele>147.7</ele>
        <time>2018-04-21T14:31:08Z</time>
      </trkpt>
      <trkpt lat="43.17346" lon="2.53234">
        <ele>147.7</ele>
        <time>2018-04-21T14:31:12Z</time>
      </trkpt>
      <trkpt lat="43.17341" lon="2.53253">
        <ele>147.7</ele>
        <time>2018-04-21T14:31:24Z</time>
      </trkpt>
      <trkpt lat="43.17337" lon="2.53271">
        <ele>147.7</ele>
        <time>2018-04-21T14:31:37Z</time>
      </trkpt>
      <trkpt lat="43.17335" lon="2.53276">
        <ele>148.18</ele>
        <time>2018-04-21T14:31:40Z</time>
      </trkpt>
      <trkpt lat="43.17334" lon="2.53279">
        <ele>148.18</ele>
        <time>2018-04-21T14:31:42Z</time>
      </trkpt>
      <trkpt lat="43.17329" lon="2.5329">
        <ele>148.18</ele>
        <time>2018-04-21T14:31:57Z</time>
      </trkpt>
      <trkpt lat="43.17325" lon="2.53303">
        <ele>149.14</ele>
        <time>2018-04-21T14:32:12Z</time>
      </trkpt>
      <trkpt lat="43.17325" lon="2.53308">
        <ele>149.14</ele>
        <time>2018-04-21T14:32:16Z</time>
      </trkpt>
      <trkpt lat="43.17325" lon="2.5331">
        <ele>149.14</ele>
        <time>2018-04-21T14:32:18Z</time>
      </trkpt>
      <trkpt lat="43.17323" lon="2.53323">
        <ele>149.14</ele>
        <time>2018-04-21T14:32:27Z</time>
      </trkpt>
      <trkpt lat="43.17322" lon="2.53329">
        <ele>149.14</ele>
        <time>2018-04-21T14:32:31Z</time>
      </trkpt>
      <trkpt lat="43.17319" lon="2.53346">
        <ele>149.62</ele>
        <time>2018-04-21T14:32:43Z</time>
      </trkpt>
      <trkpt lat="43.17315" lon="2.5336">
        <ele>150.1</ele>
        <time>2018-04-21T14:32:53Z</time>
      </trkpt>
      <trkpt lat="43.17312" lon="2.5337">
        <ele>150.1</ele>
        <time>2018-04-21T14:33:00Z</time>
      </trkpt>
      <trkpt lat="43.17307" lon="2.53385">
        <ele>150.58</ele>
        <time>2018-04-21T14:33:12Z</time>
      </trkpt>
      <trkpt lat="43.173" lon="2.53397">
        <ele>151.06</ele>
        <time>2018-04-21T14:33:24Z</time>
      </trkpt>
      <trkpt lat="43.173" lon="2.53398">
        <ele>151.06</ele>
        <time>2018-04-21T14:33:25Z</time>
      </trkpt>
      <trkpt lat="43.17293" lon="2.53413">
        <ele>152.03</ele>
        <time>2018-04-21T14:33:37Z</time>
      </trkpt>
      <trkpt lat="43.17292" lon="2.53416">
        <ele>152.03</ele>
        <time>2018-04-21T14:33:39Z</time>
      </trkpt>
      <trkpt lat="43.17289" lon="2.53427">
        <ele>152.99</ele>
        <time>2018-04-21T14:33:49Z</time>
      </trkpt>
      <trkpt lat="43.17281" lon="2.53444">
        <ele>152.99</ele>
        <time>2018-04-21T14:34:03Z</time>
      </trkpt>
      <trkpt lat="43.17273" lon="2.53462">
        <ele>154.43</ele>
        <time>2018-04-21T14:34:17Z</time>
      </trkpt>
      <trkpt lat="43.1727" lon="2.53468">
        <ele>154.43</ele>
        <time>2018-04-21T14:34:22Z</time>
      </trkpt>
      <trkpt lat="43.17265" lon="2.53479">
        <ele>154.43</ele>
        <time>2018-04-21T14:34:33Z</time>
      </trkpt>
      <trkpt lat="43.17262" lon="2.53493">
        <ele>154.91</ele>
        <time>2018-04-21T14:34:44Z</time>
      </trkpt>
      <trkpt lat="43.17255" lon="2.5351">
        <ele>155.87</ele>
        <time>2018-04-21T14:34:56Z</time>
      </trkpt>
      <trkpt lat="43.17253" lon="2.53516">
        <ele>155.87</ele>
        <time>2018-04-21T14:35:01Z</time>
      </trkpt>
      <trkpt lat="43.17248" lon="2.53537">
        <ele>156.83</ele>
        <time>2018-04-21T14:35:15Z</time>
      </trkpt>
      <trkpt lat="43.17245" lon="2.53555">
        <ele>157.31</ele>
        <time>2018-04-21T14:35:27Z</time>
      </trkpt>
      <trkpt lat="43.17244" lon="2.53565">
        <ele>157.79</ele>
        <time>2018-04-21T14:35:34Z</time>
      </trkpt>
      <trkpt lat="43.17244" lon="2.53568">
        <ele>157.31</ele>
        <time>2018-04-21T14:35:36Z</time>
      </trkpt>
      <trkpt lat="43.17243" lon="2.53573">
        <ele>157.79</ele>
        <time>2018-04-21T14:35:40Z</time>
      </trkpt>
      <trkpt lat="43.17239" lon="2.53586">
        <ele>157.79</ele>
        <time>2018-04-21T14:35:50Z</time>
      </trkpt>
      <trkpt lat="43.1724" lon="2.53595">
        <ele>158.27</ele>
        <time>2018-04-21T14:35:56Z</time>
      </trkpt>
      <trkpt lat="43.1724" lon="2.5361">
        <ele>159.72</ele>
        <time>2018-04-21T14:36:08Z</time>
      </trkpt>
      <trkpt lat="43.17242" lon="2.53625">
        <ele>160.68</ele>
        <time>2018-04-21T14:36:19Z</time>
      </trkpt>
      <trkpt lat="43.17242" lon="2.53627">
        <ele>160.68</ele>
        <time>2018-04-21T14:36:20Z</time>
      </trkpt>
      <trkpt lat="43.17242" lon="2.53635">
        <ele>160.68</ele>
        <time>2018-04-21T14:36:25Z</time>
      </trkpt>
      <trkpt lat="43.17243" lon="2.53645">
        <ele>161.16</ele>
        <time>2018-04-21T14:36:31Z</time>
      </trkpt>
      <trkpt lat="43.17244" lon="2.53653">
        <ele>161.16</ele>
        <time>2018-04-21T14:36:36Z</time>
      </trkpt>
      <trkpt lat="43.17243" lon="2.53659">
        <ele>161.64</ele>
        <time>2018-04-21T14:36:40Z</time>
      </trkpt>
      <trkpt lat="43.17238" lon="2.53675">
        <ele>162.12</ele>
        <time>2018-04-21T14:36:52Z</time>
      </trkpt>
      <trkpt lat="43.17238" lon="2.53682">
        <ele>162.6</ele>
        <time>2018-04-21T14:36:57Z</time>
      </trkpt>
      <trkpt lat="43.17236" lon="2.53692">
        <ele>163.08</ele>
        <time>2018-04-21T14:37:04Z</time>
      </trkpt>
      <trkpt lat="43.17235" lon="2.53701">
        <ele>162.6</ele>
        <time>2018-04-21T14:37:10Z</time>
      </trkpt>
      <trkpt lat="43.17233" lon="2.53709">
        <ele>162.6</ele>
        <time>2018-04-21T14:37:15Z</time>
      </trkpt>
      <trkpt lat="43.17234" lon="2.53716">
        <ele>162.6</ele>
        <time>2018-04-21T14:37:20Z</time>
      </trkpt>
      <trkpt lat="43.17234" lon="2.53726">
        <ele>163.08</ele>
        <time>2018-04-21T14:37:26Z</time>
      </trkpt>
      <trkpt lat="43.17233" lon="2.53732">
        <ele>163.08</ele>
        <time>2018-04-21T14:37:30Z</time>
      </trkpt>
      <trkpt lat="43.17227" lon="2.53753">
        <ele>163.56</ele>
        <time>2018-04-21T14:37:45Z</time>
      </trkpt>
      <trkpt lat="43.17226" lon="2.53756">
        <ele>163.08</ele>
        <time>2018-04-21T14:37:48Z</time>
      </trkpt>
      <trkpt lat="43.17218" lon="2.53773">
        <ele>164.04</ele>
        <time>2018-04-21T14:38:00Z</time>
      </trkpt>
      <trkpt lat="43.17218" lon="2.53778">
        <ele>164.04</ele>
        <time>2018-04-21T14:38:04Z</time>
      </trkpt>
      <trkpt lat="43.1721" lon="2.53795">
        <ele>165</ele>
        <time>2018-04-21T14:38:17Z</time>
      </trkpt>
      <trkpt lat="43.17208" lon="2.53803">
        <ele>165.48</ele>
        <time>2018-04-21T14:38:24Z</time>
      </trkpt>
      <trkpt lat="43.17206" lon="2.53806">
        <ele>165.96</ele>
        <time>2018-04-21T14:38:26Z</time>
      </trkpt>
      <trkpt lat="43.17203" lon="2.53823">
        <ele>166.45</ele>
        <time>2018-04-21T14:38:39Z</time>
      </trkpt>
      <trkpt lat="43.17203" lon="2.5383">
        <ele>167.41</ele>
        <time>2018-04-21T14:38:44Z</time>
      </trkpt>
      <trkpt lat="43.17197" lon="2.53849">
        <ele>168.85</ele>
        <time>2018-04-21T14:38:58Z</time>
      </trkpt>
      <trkpt lat="43.17198" lon="2.53857">
        <ele>168.85</ele>
        <time>2018-04-21T14:39:04Z</time>
      </trkpt>
      <trkpt lat="43.17199" lon="2.53863">
        <ele>168.85</ele>
        <time>2018-04-21T14:39:08Z</time>
      </trkpt>
      <trkpt lat="43.17199" lon="2.53865">
        <ele>168.85</ele>
        <time>2018-04-21T14:39:10Z</time>
      </trkpt>
      <trkpt lat="43.17199" lon="2.53876">
        <ele>168.85</ele>
        <time>2018-04-21T14:39:18Z</time>
      </trkpt>
      <trkpt lat="43.17186" lon="2.53892">
        <ele>169.81</ele>
        <time>2018-04-21T14:39:33Z</time>
      </trkpt>
      <trkpt lat="43.17174" lon="2.53903">
        <ele>171.25</ele>
        <time>2018-04-21T14:39:45Z</time>
      </trkpt>
      <trkpt lat="43.17168" lon="2.5391">
        <ele>172.21</ele>
        <time>2018-04-21T14:39:52Z</time>
      </trkpt>
      <trkpt lat="43.17167" lon="2.53927">
        <ele>173.17</ele>
        <time>2018-04-21T14:40:07Z</time>
      </trkpt>
      <trkpt lat="43.17167" lon="2.53928">
        <ele>173.17</ele>
        <time>2018-04-21T14:40:08Z</time>
      </trkpt>
      <trkpt lat="43.17168" lon="2.53935">
        <ele>174.14</ele>
        <time>2018-04-21T14:40:17Z</time>
      </trkpt>
      <trkpt lat="43.17169" lon="2.53946">
        <ele>175.1</ele>
        <time>2018-04-21T14:40:26Z</time>
      </trkpt>
      <trkpt lat="43.17173" lon="2.53955">
        <ele>175.1</ele>
        <time>2018-04-21T14:40:33Z</time>
      </trkpt>
      <trkpt lat="43.17175" lon="2.53959">
        <ele>175.58</ele>
        <time>2018-04-21T14:40:36Z</time>
      </trkpt>
      <trkpt lat="43.17178" lon="2.53964">
        <ele>175.58</ele>
        <time>2018-04-21T14:40:40Z</time>
      </trkpt>
      <trkpt lat="43.17186" lon="2.53977">
        <ele>176.06</ele>
        <time>2018-04-21T14:40:51Z</time>
      </trkpt>
      <trkpt lat="43.17184" lon="2.53998">
        <ele>177.98</ele>
        <time>2018-04-21T14:41:04Z</time>
      </trkpt>
      <trkpt lat="43.17175" lon="2.54014">
        <ele>179.9</ele>
        <time>2018-04-21T14:41:19Z</time>
      </trkpt>
      <trkpt lat="43.17164" lon="2.54022">
        <ele>180.38</ele>
        <time>2018-04-21T14:41:31Z</time>
      </trkpt>
      <trkpt lat="43.1715" lon="2.54022">
        <ele>180.38</ele>
        <time>2018-04-21T14:41:44Z</time>
      </trkpt>
      <trkpt lat="43.17139" lon="2.54015">
        <ele>181.35</ele>
        <time>2018-04-21T14:41:57Z</time>
      </trkpt>
      <trkpt lat="43.17128" lon="2.54011">
        <ele>181.83</ele>
        <time>2018-04-21T14:42:10Z</time>
      </trkpt>
      <trkpt lat="43.17124" lon="2.54009">
        <ele>182.79</ele>
        <time>2018-04-21T14:42:16Z</time>
      </trkpt>
      <trkpt lat="43.17114" lon="2.54016">
        <ele>183.75</ele>
        <time>2018-04-21T14:42:31Z</time>
      </trkpt>
      <trkpt lat="43.17111" lon="2.54023">
        <ele>185.19</ele>
        <time>2018-04-21T14:42:38Z</time>
      </trkpt>
      <trkpt lat="43.17106" lon="2.54028">
        <ele>185.67</ele>
        <time>2018-04-21T14:42:44Z</time>
      </trkpt>
      <trkpt lat="43.17102" lon="2.54037">
        <ele>186.63</ele>
        <time>2018-04-21T14:42:51Z</time>
      </trkpt>
      <trkpt lat="43.17098" lon="2.54054">
        <ele>187.59</ele>
        <time>2018-04-21T14:43:05Z</time>
      </trkpt>
      <trkpt lat="43.17095" lon="2.54069">
        <ele>188.56</ele>
        <time>2018-04-21T14:43:18Z</time>
      </trkpt>
      <trkpt lat="43.17092" lon="2.54083">
        <ele>189.52</ele>
        <time>2018-04-21T14:43:30Z</time>
      </trkpt>
      <trkpt lat="43.17089" lon="2.5409">
        <ele>189.52</ele>
        <time>2018-04-21T14:43:35Z</time>
      </trkpt>
      <trkpt lat="43.17089" lon="2.54094">
        <ele>189.52</ele>
        <time>2018-04-21T14:43:38Z</time>
      </trkpt>
      <trkpt lat="43.17084" lon="2.54106">
        <ele>190.48</ele>
        <time>2018-04-21T14:43:48Z</time>
      </trkpt>
      <trkpt lat="43.17081" lon="2.54123">
        <ele>190.96</ele>
        <time>2018-04-21T14:44:00Z</time>
      </trkpt>
      <trkpt lat="43.17073" lon="2.54138">
        <ele>191.92</ele>
        <time>2018-04-21T14:44:10Z</time>
      </trkpt>
      <trkpt lat="43.17071" lon="2.54154">
        <ele>192.4</ele>
        <time>2018-04-21T14:44:22Z</time>
      </trkpt>
      <trkpt lat="43.17064" lon="2.54172">
        <ele>193.36</ele>
        <time>2018-04-21T14:44:34Z</time>
      </trkpt>
      <trkpt lat="43.17062" lon="2.54176">
        <ele>193.36</ele>
        <time>2018-04-21T14:44:37Z</time>
      </trkpt>
      <trkpt lat="43.17059" lon="2.5419">
        <ele>194.8</ele>
        <time>2018-04-21T14:44:48Z</time>
      </trkpt>
      <trkpt lat="43.1705" lon="2.54192">
        <ele>195.77</ele>
        <time>2018-04-21T14:45:00Z</time>
      </trkpt>
      <trkpt lat="43.17049" lon="2.54189">
        <ele>196.25</ele>
        <time>2018-04-21T14:45:02Z</time>
      </trkpt>
      <trkpt lat="43.1705" lon="2.5418">
        <ele>196.25</ele>
        <time>2018-04-21T14:45:07Z</time>
      </trkpt>
      <trkpt lat="43.17051" lon="2.54158">
        <ele>197.21</ele>
        <time>2018-04-21T14:45:22Z</time>
      </trkpt>
      <trkpt lat="43.17051" lon="2.54157">
        <ele>197.69</ele>
        <time>2018-04-21T14:45:23Z</time>
      </trkpt>
      <trkpt lat="43.17048" lon="2.54143">
        <ele>197.21</ele>
        <time>2018-04-21T14:45:31Z</time>
      </trkpt>
      <trkpt lat="43.17047" lon="2.54126">
        <ele>197.69</ele>
        <time>2018-04-21T14:45:42Z</time>
      </trkpt>
      <trkpt lat="43.17038" lon="2.54112">
        <ele>199.61</ele>
        <time>2018-04-21T14:45:57Z</time>
      </trkpt>
      <trkpt lat="43.17036" lon="2.54114">
        <ele>200.09</ele>
        <time>2018-04-21T14:46:01Z</time>
      </trkpt>
      <trkpt lat="43.17032" lon="2.5412">
        <ele>200.09</ele>
        <time>2018-04-21T14:46:08Z</time>
      </trkpt>
      <trkpt lat="43.1703" lon="2.54124">
        <ele>201.05</ele>
        <time>2018-04-21T14:46:14Z</time>
      </trkpt>
      <trkpt lat="43.17021" lon="2.54142">
        <ele>199.61</ele>
        <time>2018-04-21T14:46:29Z</time>
      </trkpt>
      <trkpt lat="43.17017" lon="2.54148">
        <ele>199.13</ele>
        <time>2018-04-21T14:46:38Z</time>
      </trkpt>
      <trkpt lat="43.17014" lon="2.54154">
        <ele>198.65</ele>
        <time>2018-04-21T14:46:44Z</time>
      </trkpt>
      <trkpt lat="43.17012" lon="2.5416">
        <ele>197.69</ele>
        <time>2018-04-21T14:46:48Z</time>
      </trkpt>
      <trkpt lat="43.1701" lon="2.54167">
        <ele>197.21</ele>
        <time>2018-04-21T14:46:54Z</time>
      </trkpt>
      <trkpt lat="43.17008" lon="2.54185">
        <ele>195.77</ele>
        <time>2018-04-21T14:47:06Z</time>
      </trkpt>
      <trkpt lat="43.17007" lon="2.54187">
        <ele>195.77</ele>
        <time>2018-04-21T14:47:07Z</time>
      </trkpt>
      <trkpt lat="43.17007" lon="2.54194">
        <ele>195.77</ele>
        <time>2018-04-21T14:47:13Z</time>
      </trkpt>
      <trkpt lat="43.17006" lon="2.54216">
        <ele>194.8</ele>
        <time>2018-04-21T14:47:29Z</time>
      </trkpt>
      <trkpt lat="43.17006" lon="2.54219">
        <ele>194.32</ele>
        <time>2018-04-21T14:47:31Z</time>
      </trkpt>
      <trkpt lat="43.17001" lon="2.54249">
        <ele>192.4</ele>
        <time>2018-04-21T14:48:00Z</time>
      </trkpt>
      <trkpt lat="43.17001" lon="2.54266">
        <ele>191.44</ele>
        <time>2018-04-21T14:48:13Z</time>
      </trkpt>
      <trkpt lat="43.17002" lon="2.54268">
        <ele>191.44</ele>
        <time>2018-04-21T14:48:14Z</time>
      </trkpt>
      <trkpt lat="43.17001" lon="2.54282">
        <ele>190.48</ele>
        <time>2018-04-21T14:48:24Z</time>
      </trkpt>
      <trkpt lat="43.17" lon="2.54284">
        <ele>190.48</ele>
        <time>2018-04-21T14:48:25Z</time>
      </trkpt>
      <trkpt lat="43.16996" lon="2.54304">
        <ele>190</ele>
        <time>2018-04-21T14:48:36Z</time>
      </trkpt>
      <trkpt lat="43.16994" lon="2.54306">
        <ele>189.04</ele>
        <time>2018-04-21T14:48:38Z</time>
      </trkpt>
      <trkpt lat="43.16994" lon="2.54309">
        <ele>189.52</ele>
        <time>2018-04-21T14:48:40Z</time>
      </trkpt>
      <trkpt lat="43.16995" lon="2.54319">
        <ele>188.56</ele>
        <time>2018-04-21T14:48:47Z</time>
      </trkpt>
      <trkpt lat="43.16994" lon="2.54324">
        <ele>188.56</ele>
        <time>2018-04-21T14:48:50Z</time>
      </trkpt>
      <trkpt lat="43.16996" lon="2.54334">
        <ele>187.59</ele>
        <time>2018-04-21T14:48:58Z</time>
      </trkpt>
      <trkpt lat="43.16999" lon="2.5435">
        <ele>187.59</ele>
        <time>2018-04-21T14:49:08Z</time>
      </trkpt>
      <trkpt lat="43.16999" lon="2.54361">
        <ele>186.63</ele>
        <time>2018-04-21T14:49:17Z</time>
      </trkpt>
      <trkpt lat="43.17" lon="2.54362">
        <ele>186.63</ele>
        <time>2018-04-21T14:49:18Z</time>
      </trkpt>
      <trkpt lat="43.17001" lon="2.5437">
        <ele>186.15</ele>
        <time>2018-04-21T14:49:24Z</time>
      </trkpt>
      <trkpt lat="43.16999" lon="2.54387">
        <ele>185.67</ele>
        <time>2018-04-21T14:49:35Z</time>
      </trkpt>
      <trkpt lat="43.17" lon="2.54392">
        <ele>185.67</ele>
        <time>2018-04-21T14:49:38Z</time>
      </trkpt>
      <trkpt lat="43.16999" lon="2.54394">
        <ele>185.67</ele>
        <time>2018-04-21T14:49:39Z</time>
      </trkpt>
      <trkpt lat="43.16998" lon="2.54397">
        <ele>185.67</ele>
        <time>2018-04-21T14:49:40Z</time>
      </trkpt>
      <trkpt lat="43.16998" lon="2.54399">
        <ele>185.19</ele>
        <time>2018-04-21T14:49:41Z</time>
      </trkpt>
      <trkpt lat="43.16997" lon="2.544">
        <ele>185.19</ele>
        <time>2018-04-21T14:49:42Z</time>
      </trkpt>
      <trkpt lat="43.16994" lon="2.54413">
        <ele>185.67</ele>
        <time>2018-04-21T14:49:50Z</time>
      </trkpt>
      <trkpt lat="43.16994" lon="2.54416">
        <ele>185.67</ele>
        <time>2018-04-21T14:49:52Z</time>
      </trkpt>
      <trkpt lat="43.16994" lon="2.54418">
        <ele>185.67</ele>
        <time>2018-04-21T14:49:53Z</time>
      </trkpt>
      <trkpt lat="43.16993" lon="2.54419">
        <ele>185.19</ele>
        <time>2018-04-21T14:49:54Z</time>
      </trkpt>
      <trkpt lat="43.16993" lon="2.54421">
        <ele>185.67</ele>
        <time>2018-04-21T14:49:55Z</time>
      </trkpt>
      <trkpt lat="43.16993" lon="2.54456">
        <ele>182.31</ele>
        <time>2018-04-21T14:50:17Z</time>
      </trkpt>
      <trkpt lat="43.16993" lon="2.54458">
        <ele>182.79</ele>
        <time>2018-04-21T14:50:18Z</time>
      </trkpt>
      <trkpt lat="43.16994" lon="2.5446">
        <ele>182.79</ele>
        <time>2018-04-21T14:50:19Z</time>
      </trkpt>
      <trkpt lat="43.16994" lon="2.54462">
        <ele>182.31</ele>
        <time>2018-04-21T14:50:20Z</time>
      </trkpt>
      <trkpt lat="43.16994" lon="2.54464">
        <ele>182.31</ele>
        <time>2018-04-21T14:50:21Z</time>
      </trkpt>
      <trkpt lat="43.16994" lon="2.54465">
        <ele>182.31</ele>
        <time>2018-04-21T14:50:22Z</time>
      </trkpt>
      <trkpt lat="43.16994" lon="2.54467">
        <ele>181.35</ele>
        <time>2018-04-21T14:50:23Z</time>
      </trkpt>
      <trkpt lat="43.16994" lon="2.54468">
        <ele>181.83</ele>
        <time>2018-04-21T14:50:24Z</time>
      </trkpt>
      <trkpt lat="43.16995" lon="2.54469">
        <ele>181.35</ele>
        <time>2018-04-21T14:50:25Z</time>
      </trkpt>
      <trkpt lat="43.16995" lon="2.54471">
        <ele>181.83</ele>
        <time>2018-04-21T14:50:26Z</time>
      </trkpt>
      <trkpt lat="43.16996" lon="2.54472">
        <ele>182.31</ele>
        <time>2018-04-21T14:50:27Z</time>
      </trkpt>
      <trkpt lat="43.16996" lon="2.54473">
        <ele>181.83</ele>
        <time>2018-04-21T14:50:28Z</time>
      </trkpt>
      <trkpt lat="43.16996" lon="2.54475">
        <ele>181.35</ele>
        <time>2018-04-21T14:50:29Z</time>
      </trkpt>
      <trkpt lat="43.16996" lon="2.54476">
        <ele>180.87</ele>
        <time>2018-04-21T14:50:30Z</time>
      </trkpt>
      <trkpt lat="43.16996" lon="2.54487">
        <ele>181.35</ele>
        <time>2018-04-21T14:50:38Z</time>
      </trkpt>
      <trkpt lat="43.16996" lon="2.54489">
        <ele>180.87</ele>
        <time>2018-04-21T14:50:39Z</time>
      </trkpt>
      <trkpt lat="43.16996" lon="2.54491">
        <ele>180.87</ele>
        <time>2018-04-21T14:50:40Z</time>
      </trkpt>
      <trkpt lat="43.16996" lon="2.54494">
        <ele>180.38</ele>
        <time>2018-04-21T14:50:42Z</time>
      </trkpt>
      <trkpt lat="43.16997" lon="2.54495">
        <ele>180.38</ele>
        <time>2018-04-21T14:50:43Z</time>
      </trkpt>
      <trkpt lat="43.16997" lon="2.54511">
        <ele>180.87</ele>
        <time>2018-04-21T14:50:54Z</time>
      </trkpt>
      <trkpt lat="43.16998" lon="2.54512">
        <ele>179.9</ele>
        <time>2018-04-21T14:50:55Z</time>
      </trkpt>
      <trkpt lat="43.16998" lon="2.54514">
        <ele>180.38</ele>
        <time>2018-04-21T14:50:56Z</time>
      </trkpt>
      <trkpt lat="43.16998" lon="2.54534">
        <ele>179.9</ele>
        <time>2018-04-21T14:51:10Z</time>
      </trkpt>
      <trkpt lat="43.16997" lon="2.54535">
        <ele>179.9</ele>
        <time>2018-04-21T14:51:11Z</time>
      </trkpt>
      <trkpt lat="43.16997" lon="2.54537">
        <ele>180.38</ele>
        <time>2018-04-21T14:51:12Z</time>
      </trkpt>
      <trkpt lat="43.16998" lon="2.54538">
        <ele>180.38</ele>
        <time>2018-04-21T14:51:13Z</time>
      </trkpt>
      <trkpt lat="43.16998" lon="2.5454">
        <ele>179.42</ele>
        <time>2018-04-21T14:51:14Z</time>
      </trkpt>
      <trkpt lat="43.16998" lon="2.54541">
        <ele>178.94</ele>
        <time>2018-04-21T14:51:15Z</time>
      </trkpt>
      <trkpt lat="43.16998" lon="2.54543">
        <ele>179.42</ele>
        <time>2018-04-21T14:51:16Z</time>
      </trkpt>
      <trkpt lat="43.16998" lon="2.54545">
        <ele>179.42</ele>
        <time>2018-04-21T14:51:17Z</time>
      </trkpt>
      <trkpt lat="43.16998" lon="2.54547">
        <ele>179.9</ele>
        <time>2018-04-21T14:51:18Z</time>
      </trkpt>
      <trkpt lat="43.16998" lon="2.54549">
        <ele>179.42</ele>
        <time>2018-04-21T14:51:19Z</time>
      </trkpt>
      <trkpt lat="43.16999" lon="2.5455">
        <ele>179.9</ele>
        <time>2018-04-21T14:51:20Z</time>
      </trkpt>
      <trkpt lat="43.16999" lon="2.54552">
        <ele>180.38</ele>
        <time>2018-04-21T14:51:21Z</time>
      </trkpt>
      <trkpt lat="43.16999" lon="2.54554">
        <ele>179.9</ele>
        <time>2018-04-21T14:51:22Z</time>
      </trkpt>
      <trkpt lat="43.16999" lon="2.54555">
        <ele>179.9</ele>
        <time>2018-04-21T14:51:23Z</time>
      </trkpt>
      <trkpt lat="43.16999" lon="2.54557">
        <ele>179.42</ele>
        <time>2018-04-21T14:51:24Z</time>
      </trkpt>
      <trkpt lat="43.17" lon="2.54558">
        <ele>179.42</ele>
        <time>2018-04-21T14:51:25Z</time>
      </trkpt>
      <trkpt lat="43.17" lon="2.54559">
        <ele>179.42</ele>
        <time>2018-04-21T14:51:26Z</time>
      </trkpt>
      <trkpt lat="43.17001" lon="2.5458">
        <ele>178.94</ele>
        <time>2018-04-21T14:51:39Z</time>
      </trkpt>
      <trkpt lat="43.17001" lon="2.54602">
        <ele>177.98</ele>
        <time>2018-04-21T14:51:53Z</time>
      </trkpt>
      <trkpt lat="43.17002" lon="2.54613">
        <ele>178.94</ele>
        <time>2018-04-21T14:52:03Z</time>
      </trkpt>
      <trkpt lat="43.17003" lon="2.54631">
        <ele>178.46</ele>
        <time>2018-04-21T14:52:16Z</time>
      </trkpt>
      <trkpt lat="43.17002" lon="2.54644">
        <ele>178.94</ele>
        <time>2018-04-21T14:52:24Z</time>
      </trkpt>
      <trkpt lat="43.17004" lon="2.54651">
        <ele>178.94</ele>
        <time>2018-04-21T14:52:29Z</time>
      </trkpt>
      <trkpt lat="43.17004" lon="2.54652">
        <ele>178.94</ele>
        <time>2018-04-21T14:52:30Z</time>
      </trkpt>
      <trkpt lat="43.17006" lon="2.54658">
        <ele>178.46</ele>
        <time>2018-04-21T14:52:35Z</time>
      </trkpt>
      <trkpt lat="43.17007" lon="2.54662">
        <ele>178.94</ele>
        <time>2018-04-21T14:52:38Z</time>
      </trkpt>
      <trkpt lat="43.17007" lon="2.54663">
        <ele>178.46</ele>
        <time>2018-04-21T14:52:39Z</time>
      </trkpt>
      <trkpt lat="43.17007" lon="2.54664">
        <ele>177.98</ele>
        <time>2018-04-21T14:52:40Z</time>
      </trkpt>
      <trkpt lat="43.17008" lon="2.54666">
        <ele>178.46</ele>
        <time>2018-04-21T14:52:42Z</time>
      </trkpt>
      <trkpt lat="43.1701" lon="2.54677">
        <ele>177.98</ele>
        <time>2018-04-21T14:52:51Z</time>
      </trkpt>
      <trkpt lat="43.17011" lon="2.5468">
        <ele>178.46</ele>
        <time>2018-04-21T14:52:54Z</time>
      </trkpt>
      <trkpt lat="43.17015" lon="2.54702">
        <ele>176.54</ele>
        <time>2018-04-21T14:53:10Z</time>
      </trkpt>
      <trkpt lat="43.17014" lon="2.54724">
        <ele>176.06</ele>
        <time>2018-04-21T14:53:24Z</time>
      </trkpt>
      <trkpt lat="43.17013" lon="2.54725">
        <ele>176.06</ele>
        <time>2018-04-21T14:53:25Z</time>
      </trkpt>
      <trkpt lat="43.17013" lon="2.54727">
        <ele>175.58</ele>
        <time>2018-04-21T14:53:26Z</time>
      </trkpt>
      <trkpt lat="43.1701" lon="2.54747">
        <ele>174.62</ele>
        <time>2018-04-21T14:53:41Z</time>
      </trkpt>
      <trkpt lat="43.1701" lon="2.5475">
        <ele>175.1</ele>
        <time>2018-04-21T14:53:43Z</time>
      </trkpt>
      <trkpt lat="43.17008" lon="2.54757">
        <ele>174.62</ele>
        <time>2018-04-21T14:53:48Z</time>
      </trkpt>
      <trkpt lat="43.17008" lon="2.54759">
        <ele>175.1</ele>
        <time>2018-04-21T14:53:49Z</time>
      </trkpt>
      <trkpt lat="43.17008" lon="2.54761">
        <ele>174.62</ele>
        <time>2018-04-21T14:53:50Z</time>
      </trkpt>
      <trkpt lat="43.17007" lon="2.54762">
        <ele>174.14</ele>
        <time>2018-04-21T14:53:51Z</time>
      </trkpt>
      <trkpt lat="43.17007" lon="2.54763">
        <ele>174.14</ele>
        <time>2018-04-21T14:53:52Z</time>
      </trkpt>
      <trkpt lat="43.17006" lon="2.54777">
        <ele>174.14</ele>
        <time>2018-04-21T14:54:04Z</time>
      </trkpt>
      <trkpt lat="43.17006" lon="2.54797">
        <ele>173.17</ele>
        <time>2018-04-21T14:54:18Z</time>
      </trkpt>
      <trkpt lat="43.17005" lon="2.54803">
        <ele>172.69</ele>
        <time>2018-04-21T14:54:22Z</time>
      </trkpt>
      <trkpt lat="43.17006" lon="2.54804">
        <ele>173.17</ele>
        <time>2018-04-21T14:54:23Z</time>
      </trkpt>
      <trkpt lat="43.17008" lon="2.54813">
        <ele>172.21</ele>
        <time>2018-04-21T14:54:38Z</time>
      </trkpt>
      <trkpt lat="43.17009" lon="2.54816">
        <ele>172.21</ele>
        <time>2018-04-21T14:54:52Z</time>
      </trkpt>
      <trkpt lat="43.17011" lon="2.54836">
        <ele>169.81</ele>
        <time>2018-04-21T14:55:06Z</time>
      </trkpt>
      <trkpt lat="43.17018" lon="2.54856">
        <ele>168.85</ele>
        <time>2018-04-21T14:55:20Z</time>
      </trkpt>
      <trkpt lat="43.17018" lon="2.54866">
        <ele>167.89</ele>
        <time>2018-04-21T14:55:26Z</time>
      </trkpt>
      <trkpt lat="43.17022" lon="2.54886">
        <ele>167.41</ele>
        <time>2018-04-21T14:55:41Z</time>
      </trkpt>
      <trkpt lat="43.17034" lon="2.54905">
        <ele>165.48</ele>
        <time>2018-04-21T14:55:55Z</time>
      </trkpt>
      <trkpt lat="43.17044" lon="2.54921">
        <ele>164.04</ele>
        <time>2018-04-21T14:56:11Z</time>
      </trkpt>
      <trkpt lat="43.17051" lon="2.54931">
        <ele>162.6</ele>
        <time>2018-04-21T14:56:23Z</time>
      </trkpt>
      <trkpt lat="43.17051" lon="2.54933">
        <ele>162.12</ele>
        <time>2018-04-21T14:56:24Z</time>
      </trkpt>
      <trkpt lat="43.17059" lon="2.54947">
        <ele>160.68</ele>
        <time>2018-04-21T14:56:38Z</time>
      </trkpt>
      <trkpt lat="43.17065" lon="2.54958">
        <ele>160.2</ele>
        <time>2018-04-21T14:56:48Z</time>
      </trkpt>
      <trkpt lat="43.17065" lon="2.5496">
        <ele>159.72</ele>
        <time>2018-04-21T14:56:49Z</time>
      </trkpt>
      <trkpt lat="43.17065" lon="2.54961">
        <ele>159.72</ele>
        <time>2018-04-21T14:56:50Z</time>
      </trkpt>
      <trkpt lat="43.17066" lon="2.54962">
        <ele>159.24</ele>
        <time>2018-04-21T14:56:51Z</time>
      </trkpt>
      <trkpt lat="43.17066" lon="2.54964">
        <ele>159.24</ele>
        <time>2018-04-21T14:56:52Z</time>
      </trkpt>
      <trkpt lat="43.17069" lon="2.54972">
        <ele>158.75</ele>
        <time>2018-04-21T14:56:58Z</time>
      </trkpt>
      <trkpt lat="43.17074" lon="2.54995">
        <ele>158.27</ele>
        <time>2018-04-21T14:57:14Z</time>
      </trkpt>
      <trkpt lat="43.17073" lon="2.55015">
        <ele>156.35</ele>
        <time>2018-04-21T14:57:29Z</time>
      </trkpt>
      <trkpt lat="43.17072" lon="2.55016">
        <ele>156.35</ele>
        <time>2018-04-21T14:57:30Z</time>
      </trkpt>
      <trkpt lat="43.1707" lon="2.5504">
        <ele>154.91</ele>
        <time>2018-04-21T14:57:47Z</time>
      </trkpt>
      <trkpt lat="43.17069" lon="2.55052">
        <ele>153.95</ele>
        <time>2018-04-21T14:57:56Z</time>
      </trkpt>
      <trkpt lat="43.17066" lon="2.55059">
        <ele>153.95</ele>
        <time>2018-04-21T14:58:02Z</time>
      </trkpt>
      <trkpt lat="43.17063" lon="2.55069">
        <ele>153.47</ele>
        <time>2018-04-21T14:58:15Z</time>
      </trkpt>
      <trkpt lat="43.17064" lon="2.5507">
        <ele>153.47</ele>
        <time>2018-04-21T14:58:38Z</time>
      </trkpt>
      <trkpt lat="43.17066" lon="2.5507">
        <ele>153.95</ele>
        <time>2018-04-21T14:58:46Z</time>
      </trkpt>
      <trkpt lat="43.17075" lon="2.55065">
        <ele>152.03</ele>
        <time>2018-04-21T14:58:58Z</time>
      </trkpt>
      <trkpt lat="43.17088" lon="2.55064">
        <ele>150.58</ele>
        <time>2018-04-21T14:59:11Z</time>
      </trkpt>
      <trkpt lat="43.17104" lon="2.55062">
        <ele>150.1</ele>
        <time>2018-04-21T14:59:24Z</time>
      </trkpt>
      <trkpt lat="43.17106" lon="2.55062">
        <ele>150.1</ele>
        <time>2018-04-21T14:59:26Z</time>
      </trkpt>
      <trkpt lat="43.17108" lon="2.55062">
        <ele>150.1</ele>
        <time>2018-04-21T14:59:27Z</time>
      </trkpt>
      <trkpt lat="43.1711" lon="2.55062">
        <ele>149.62</ele>
        <time>2018-04-21T14:59:28Z</time>
      </trkpt>
      <trkpt lat="43.17111" lon="2.55063">
        <ele>149.62</ele>
        <time>2018-04-21T14:59:29Z</time>
      </trkpt>
      <trkpt lat="43.17112" lon="2.55063">
        <ele>149.62</ele>
        <time>2018-04-21T14:59:30Z</time>
      </trkpt>
      <trkpt lat="43.17126" lon="2.55075">
        <ele>148.66</ele>
        <time>2018-04-21T14:59:44Z</time>
      </trkpt>
      <trkpt lat="43.17126" lon="2.55075">
        <ele>148.66</ele>
        <time>2018-04-21T14:59:45Z</time>
      </trkpt>
      <trkpt lat="43.17128" lon="2.55076">
        <ele>148.66</ele>
        <time>2018-04-21T14:59:46Z</time>
      </trkpt>
      <trkpt lat="43.17128" lon="2.55077">
        <ele>148.66</ele>
        <time>2018-04-21T14:59:47Z</time>
      </trkpt>
      <trkpt lat="43.17131" lon="2.55101">
        <ele>147.7</ele>
        <time>2018-04-21T15:00:03Z</time>
      </trkpt>
      <trkpt lat="43.17132" lon="2.55106">
        <ele>147.22</ele>
        <time>2018-04-21T15:00:06Z</time>
      </trkpt>
      <trkpt lat="43.17132" lon="2.55107">
        <ele>147.7</ele>
        <time>2018-04-21T15:00:07Z</time>
      </trkpt>
      <trkpt lat="43.17137" lon="2.5513">
        <ele>146.74</ele>
        <time>2018-04-21T15:00:23Z</time>
      </trkpt>
      <trkpt lat="43.17141" lon="2.55153">
        <ele>145.78</ele>
        <time>2018-04-21T15:00:37Z</time>
      </trkpt>
      <trkpt lat="43.17143" lon="2.55176">
        <ele>145.3</ele>
        <time>2018-04-21T15:00:52Z</time>
      </trkpt>
      <trkpt lat="43.17145" lon="2.55201">
        <ele>144.82</ele>
        <time>2018-04-21T15:01:09Z</time>
      </trkpt>
      <trkpt lat="43.17145" lon="2.55204">
        <ele>144.34</ele>
        <time>2018-04-21T15:01:11Z</time>
      </trkpt>
      <trkpt lat="43.17151" lon="2.55227">
        <ele>143.85</ele>
        <time>2018-04-21T15:01:26Z</time>
      </trkpt>
      <trkpt lat="43.17152" lon="2.5523">
        <ele>144.34</ele>
        <time>2018-04-21T15:01:28Z</time>
      </trkpt>
      <trkpt lat="43.17153" lon="2.55231">
        <ele>143.85</ele>
        <time>2018-04-21T15:01:29Z</time>
      </trkpt>
      <trkpt lat="43.1716" lon="2.55242">
        <ele>144.34</ele>
        <time>2018-04-21T15:01:41Z</time>
      </trkpt>
      <trkpt lat="43.17161" lon="2.55243">
        <ele>143.85</ele>
        <time>2018-04-21T15:01:42Z</time>
      </trkpt>
      <trkpt lat="43.17162" lon="2.55244">
        <ele>143.85</ele>
        <time>2018-04-21T15:01:43Z</time>
      </trkpt>
      <trkpt lat="43.17181" lon="2.55248">
        <ele>143.37</ele>
        <time>2018-04-21T15:01:59Z</time>
      </trkpt>
      <trkpt lat="43.17197" lon="2.55252">
        <ele>142.89</ele>
        <time>2018-04-21T15:02:13Z</time>
      </trkpt>
      <trkpt lat="43.17212" lon="2.55252">
        <ele>141.93</ele>
        <time>2018-04-21T15:02:29Z</time>
      </trkpt>
      <trkpt lat="43.17234" lon="2.55256">
        <ele>140.97</ele>
        <time>2018-04-21T15:02:46Z</time>
      </trkpt>
      <trkpt lat="43.17243" lon="2.5526">
        <ele>140.49</ele>
        <time>2018-04-21T15:02:55Z</time>
      </trkpt>
      <trkpt lat="43.17258" lon="2.55265">
        <ele>139.05</ele>
        <time>2018-04-21T15:03:08Z</time>
      </trkpt>
      <trkpt lat="43.17259" lon="2.55265">
        <ele>139.05</ele>
        <time>2018-04-21T15:03:09Z</time>
      </trkpt>
      <trkpt lat="43.17273" lon="2.55267">
        <ele>138.09</ele>
        <time>2018-04-21T15:03:24Z</time>
      </trkpt>
      <trkpt lat="43.17288" lon="2.55265">
        <ele>136.64</ele>
        <time>2018-04-21T15:03:39Z</time>
      </trkpt>
      <trkpt lat="43.17298" lon="2.55269">
        <ele>135.68</ele>
        <time>2018-04-21T15:03:50Z</time>
      </trkpt>
      <trkpt lat="43.17312" lon="2.5528">
        <ele>134.24</ele>
        <time>2018-04-21T15:04:05Z</time>
      </trkpt>
      <trkpt lat="43.1732" lon="2.55286">
        <ele>134.24</ele>
        <time>2018-04-21T15:04:12Z</time>
      </trkpt>
      <trkpt lat="43.17321" lon="2.55288">
        <ele>134.24</ele>
        <time>2018-04-21T15:04:13Z</time>
      </trkpt>
      <trkpt lat="43.17323" lon="2.55289">
        <ele>133.76</ele>
        <time>2018-04-21T15:04:14Z</time>
      </trkpt>
      <trkpt lat="43.17324" lon="2.5529">
        <ele>133.76</ele>
        <time>2018-04-21T15:04:15Z</time>
      </trkpt>
      <trkpt lat="43.17337" lon="2.55296">
        <ele>133.28</ele>
        <time>2018-04-21T15:04:28Z</time>
      </trkpt>
      <trkpt lat="43.17346" lon="2.55295">
        <ele>133.28</ele>
        <time>2018-04-21T15:04:42Z</time>
      </trkpt>
      <trkpt lat="43.17347" lon="2.55296">
        <ele>132.8</ele>
        <time>2018-04-21T15:04:57Z</time>
      </trkpt>
      <trkpt lat="43.17368" lon="2.55294">
        <ele>132.8</ele>
        <time>2018-04-21T15:05:43Z</time>
      </trkpt>
      <trkpt lat="43.17369" lon="2.55293">
        <ele>132.32</ele>
        <time>2018-04-21T15:05:44Z</time>
      </trkpt>
      <trkpt lat="43.17385" lon="2.55289">
        <ele>131.84</ele>
        <time>2018-04-21T15:05:59Z</time>
      </trkpt>
      <trkpt lat="43.17402" lon="2.55287">
        <ele>131.84</ele>
        <time>2018-04-21T15:06:14Z</time>
      </trkpt>
      <trkpt lat="43.17421" lon="2.55285">
        <ele>131.84</ele>
        <time>2018-04-21T15:06:30Z</time>
      </trkpt>
      <trkpt lat="43.17422" lon="2.55284">
        <ele>132.32</ele>
        <time>2018-04-21T15:06:31Z</time>
      </trkpt>
      <trkpt lat="43.17423" lon="2.55284">
        <ele>132.32</ele>
        <time>2018-04-21T15:06:32Z</time>
      </trkpt>
      <trkpt lat="43.17425" lon="2.55284">
        <ele>132.32</ele>
        <time>2018-04-21T15:06:33Z</time>
      </trkpt>
      <trkpt lat="43.17427" lon="2.55283">
        <ele>132.32</ele>
        <time>2018-04-21T15:06:36Z</time>
      </trkpt>
      <trkpt lat="43.17429" lon="2.55283">
        <ele>132.32</ele>
        <time>2018-04-21T15:06:38Z</time>
      </trkpt>
      <trkpt lat="43.1743" lon="2.55284">
        <ele>132.32</ele>
        <time>2018-04-21T15:06:39Z</time>
      </trkpt>
      <trkpt lat="43.17431" lon="2.55284">
        <ele>132.32</ele>
        <time>2018-04-21T15:06:40Z</time>
      </trkpt>
      <trkpt lat="43.17433" lon="2.55284">
        <ele>132.32</ele>
        <time>2018-04-21T15:06:41Z</time>
      </trkpt>
      <trkpt lat="43.17434" lon="2.55284">
        <ele>132.8</ele>
        <time>2018-04-21T15:06:42Z</time>
      </trkpt>
      <trkpt lat="43.17435" lon="2.55284">
        <ele>133.28</ele>
        <time>2018-04-21T15:06:43Z</time>
      </trkpt>
      <trkpt lat="43.17438" lon="2.55283">
        <ele>132.32</ele>
        <time>2018-04-21T15:06:46Z</time>
      </trkpt>
      <trkpt lat="43.17447" lon="2.55281">
        <ele>132.32</ele>
        <time>2018-04-21T15:06:58Z</time>
      </trkpt>
      <trkpt lat="43.17453" lon="2.55282">
        <ele>132.32</ele>
        <time>2018-04-21T15:07:04Z</time>
      </trkpt>
      <trkpt lat="43.17454" lon="2.55283">
        <ele>132.8</ele>
        <time>2018-04-21T15:07:05Z</time>
      </trkpt>
      <trkpt lat="43.17455" lon="2.55283">
        <ele>132.32</ele>
        <time>2018-04-21T15:07:06Z</time>
      </trkpt>
      <trkpt lat="43.17466" lon="2.55294">
        <ele>132.8</ele>
        <time>2018-04-21T15:07:18Z</time>
      </trkpt>
      <trkpt lat="43.17468" lon="2.553">
        <ele>132.8</ele>
        <time>2018-04-21T15:07:33Z</time>
      </trkpt>
      <trkpt lat="43.17471" lon="2.55305">
        <ele>133.28</ele>
        <time>2018-04-21T15:07:38Z</time>
      </trkpt>
      <trkpt lat="43.17471" lon="2.55307">
        <ele>132.8</ele>
        <time>2018-04-21T15:07:39Z</time>
      </trkpt>
      <trkpt lat="43.17472" lon="2.55311">
        <ele>132.8</ele>
        <time>2018-04-21T15:07:42Z</time>
      </trkpt>
      <trkpt lat="43.17472" lon="2.55313">
        <ele>132.8</ele>
        <time>2018-04-21T15:07:43Z</time>
      </trkpt>
      <trkpt lat="43.17472" lon="2.5532">
        <ele>133.28</ele>
        <time>2018-04-21T15:07:48Z</time>
      </trkpt>
      <trkpt lat="43.17473" lon="2.55322">
        <ele>133.28</ele>
        <time>2018-04-21T15:07:50Z</time>
      </trkpt>
      <trkpt lat="43.17474" lon="2.55331">
        <ele>132.32</ele>
        <time>2018-04-21T15:07:56Z</time>
      </trkpt>
      <trkpt lat="43.17475" lon="2.55345">
        <ele>132.32</ele>
        <time>2018-04-21T15:08:05Z</time>
      </trkpt>
      <trkpt lat="43.17476" lon="2.55346">
        <ele>132.32</ele>
        <time>2018-04-21T15:08:06Z</time>
      </trkpt>
      <trkpt lat="43.17476" lon="2.55347">
        <ele>132.32</ele>
        <time>2018-04-21T15:08:07Z</time>
      </trkpt>
      <trkpt lat="43.1748" lon="2.55368">
        <ele>131.84</ele>
        <time>2018-04-21T15:08:22Z</time>
      </trkpt>
      <trkpt lat="43.17485" lon="2.55389">
        <ele>131.84</ele>
        <time>2018-04-21T15:08:37Z</time>
      </trkpt>
      <trkpt lat="43.17485" lon="2.55391">
        <ele>131.36</ele>
        <time>2018-04-21T15:08:38Z</time>
      </trkpt>
      <trkpt lat="43.17487" lon="2.55396">
        <ele>131.36</ele>
        <time>2018-04-21T15:08:51Z</time>
      </trkpt>
      <trkpt lat="43.1749" lon="2.55404">
        <ele>131.36</ele>
        <time>2018-04-21T15:09:03Z</time>
      </trkpt>
      <trkpt lat="43.17491" lon="2.55405">
        <ele>132.32</ele>
        <time>2018-04-21T15:09:04Z</time>
      </trkpt>
      <trkpt lat="43.17492" lon="2.55406">
        <ele>131.36</ele>
        <time>2018-04-21T15:09:05Z</time>
      </trkpt>
      <trkpt lat="43.17497" lon="2.55412">
        <ele>130.88</ele>
        <time>2018-04-21T15:09:11Z</time>
      </trkpt>
      <trkpt lat="43.17498" lon="2.55413">
        <ele>130.4</ele>
        <time>2018-04-21T15:09:12Z</time>
      </trkpt>
      <trkpt lat="43.17499" lon="2.55414">
        <ele>131.36</ele>
        <time>2018-04-21T15:09:13Z</time>
      </trkpt>
      <trkpt lat="43.175" lon="2.55415">
        <ele>130.4</ele>
        <time>2018-04-21T15:09:14Z</time>
      </trkpt>
      <trkpt lat="43.17507" lon="2.55419">
        <ele>128.95</ele>
        <time>2018-04-21T15:09:22Z</time>
      </trkpt>
      <trkpt lat="43.17512" lon="2.55423">
        <ele>128.95</ele>
        <time>2018-04-21T15:09:28Z</time>
      </trkpt>
      <trkpt lat="43.17521" lon="2.55429">
        <ele>127.51</ele>
        <time>2018-04-21T15:09:40Z</time>
      </trkpt>
      <trkpt lat="43.17535" lon="2.5544">
        <ele>126.55</ele>
        <time>2018-04-21T15:09:55Z</time>
      </trkpt>
      <trkpt lat="43.17543" lon="2.55444">
        <ele>125.59</ele>
        <time>2018-04-21T15:10:03Z</time>
      </trkpt>
      <trkpt lat="43.17553" lon="2.55451">
        <ele>125.11</ele>
        <time>2018-04-21T15:10:12Z</time>
      </trkpt>
      <trkpt lat="43.17554" lon="2.55452">
        <ele>125.11</ele>
        <time>2018-04-21T15:10:13Z</time>
      </trkpt>
      <trkpt lat="43.17556" lon="2.55452">
        <ele>124.63</ele>
        <time>2018-04-21T15:10:14Z</time>
      </trkpt>
      <trkpt lat="43.17557" lon="2.55452">
        <ele>124.63</ele>
        <time>2018-04-21T15:10:15Z</time>
      </trkpt>
      <trkpt lat="43.17558" lon="2.55453">
        <ele>124.63</ele>
        <time>2018-04-21T15:10:16Z</time>
      </trkpt>
      <trkpt lat="43.17565" lon="2.55455">
        <ele>124.15</ele>
        <time>2018-04-21T15:10:23Z</time>
      </trkpt>
      <trkpt lat="43.17567" lon="2.55456">
        <ele>123.67</ele>
        <time>2018-04-21T15:10:24Z</time>
      </trkpt>
      <trkpt lat="43.17568" lon="2.55457">
        <ele>124.15</ele>
        <time>2018-04-21T15:10:25Z</time>
      </trkpt>
      <trkpt lat="43.17582" lon="2.55463">
        <ele>122.71</ele>
        <time>2018-04-21T15:10:40Z</time>
      </trkpt>
      <trkpt lat="43.17596" lon="2.5547">
        <ele>121.74</ele>
        <time>2018-04-21T15:10:53Z</time>
      </trkpt>
      <trkpt lat="43.17598" lon="2.55471">
        <ele>121.74</ele>
        <time>2018-04-21T15:10:54Z</time>
      </trkpt>
      <trkpt lat="43.176" lon="2.55472">
        <ele>121.26</ele>
        <time>2018-04-21T15:10:56Z</time>
      </trkpt>
      <trkpt lat="43.17601" lon="2.55472">
        <ele>120.78</ele>
        <time>2018-04-21T15:10:57Z</time>
      </trkpt>
      <trkpt lat="43.17603" lon="2.55473">
        <ele>121.26</ele>
        <time>2018-04-21T15:10:58Z</time>
      </trkpt>
      <trkpt lat="43.17616" lon="2.5548">
        <ele>119.82</ele>
        <time>2018-04-21T15:11:11Z</time>
      </trkpt>
      <trkpt lat="43.17626" lon="2.55484">
        <ele>119.34</ele>
        <time>2018-04-21T15:11:19Z</time>
      </trkpt>
      <trkpt lat="43.17627" lon="2.55484">
        <ele>119.34</ele>
        <time>2018-04-21T15:11:20Z</time>
      </trkpt>
      <trkpt lat="43.17628" lon="2.55485">
        <ele>118.86</ele>
        <time>2018-04-21T15:11:21Z</time>
      </trkpt>
      <trkpt lat="43.17629" lon="2.55485">
        <ele>119.34</ele>
        <time>2018-04-21T15:11:22Z</time>
      </trkpt>
      <trkpt lat="43.1763" lon="2.55485">
        <ele>119.34</ele>
        <time>2018-04-21T15:11:23Z</time>
      </trkpt>
      <trkpt lat="43.17646" lon="2.55491">
        <ele>117.9</ele>
        <time>2018-04-21T15:11:38Z</time>
      </trkpt>
      <trkpt lat="43.1766" lon="2.55498">
        <ele>115.98</ele>
        <time>2018-04-21T15:11:53Z</time>
      </trkpt>
      <trkpt lat="43.17661" lon="2.55498">
        <ele>116.46</ele>
        <time>2018-04-21T15:11:54Z</time>
      </trkpt>
      <trkpt lat="43.17663" lon="2.55499">
        <ele>116.46</ele>
        <time>2018-04-21T15:11:57Z</time>
      </trkpt>
      <trkpt lat="43.17665" lon="2.555">
        <ele>116.46</ele>
        <time>2018-04-21T15:11:59Z</time>
      </trkpt>
      <trkpt lat="43.17666" lon="2.55501">
        <ele>116.94</ele>
        <time>2018-04-21T15:12:00Z</time>
      </trkpt>
      <trkpt lat="43.1768" lon="2.55508">
        <ele>115.01</ele>
        <time>2018-04-21T15:12:13Z</time>
      </trkpt>
      <trkpt lat="43.17695" lon="2.55513">
        <ele>113.09</ele>
        <time>2018-04-21T15:12:28Z</time>
      </trkpt>
      <trkpt lat="43.1771" lon="2.5552">
        <ele>112.13</ele>
        <time>2018-04-21T15:12:41Z</time>
      </trkpt>
      <trkpt lat="43.17711" lon="2.5552">
        <ele>111.65</ele>
        <time>2018-04-21T15:12:42Z</time>
      </trkpt>
      <trkpt lat="43.17715" lon="2.55522">
        <ele>112.13</ele>
        <time>2018-04-21T15:12:46Z</time>
      </trkpt>
      <trkpt lat="43.17716" lon="2.55523">
        <ele>112.13</ele>
        <time>2018-04-21T15:12:47Z</time>
      </trkpt>
      <trkpt lat="43.17733" lon="2.55531">
        <ele>110.21</ele>
        <time>2018-04-21T15:13:04Z</time>
      </trkpt>
      <trkpt lat="43.1775" lon="2.55539">
        <ele>108.29</ele>
        <time>2018-04-21T15:13:21Z</time>
      </trkpt>
      <trkpt lat="43.17763" lon="2.55545">
        <ele>107.81</ele>
        <time>2018-04-21T15:13:34Z</time>
      </trkpt>
      <trkpt lat="43.17775" lon="2.55552">
        <ele>106.84</ele>
        <time>2018-04-21T15:13:49Z</time>
      </trkpt>
      <trkpt lat="43.17775" lon="2.55551">
        <ele>106.84</ele>
        <time>2018-04-21T15:13:56Z</time>
      </trkpt>
      <trkpt lat="43.17777" lon="2.55552">
        <ele>107.32</ele>
        <time>2018-04-21T15:13:57Z</time>
      </trkpt>
      <trkpt lat="43.17792" lon="2.55554">
        <ele>106.36</ele>
        <time>2018-04-21T15:14:12Z</time>
      </trkpt>
      <trkpt lat="43.17799" lon="2.55555">
        <ele>105.88</ele>
        <time>2018-04-21T15:14:26Z</time>
      </trkpt>
      <trkpt lat="43.17813" lon="2.55557">
        <ele>106.36</ele>
        <time>2018-04-21T15:14:38Z</time>
      </trkpt>
      <trkpt lat="43.17827" lon="2.55562">
        <ele>105.4</ele>
        <time>2018-04-21T15:14:50Z</time>
      </trkpt>
      <trkpt lat="43.17842" lon="2.55574">
        <ele>105.4</ele>
        <time>2018-04-21T15:15:04Z</time>
      </trkpt>
      <trkpt lat="43.17846" lon="2.55576">
        <ele>105.4</ele>
        <time>2018-04-21T15:15:07Z</time>
      </trkpt>
      <trkpt lat="43.17847" lon="2.55577">
        <ele>104.92</ele>
        <time>2018-04-21T15:15:08Z</time>
      </trkpt>
      <trkpt lat="43.17862" lon="2.55587">
        <ele>104.44</ele>
        <time>2018-04-21T15:15:23Z</time>
      </trkpt>
      <trkpt lat="43.17876" lon="2.55591">
        <ele>103.96</ele>
        <time>2018-04-21T15:15:37Z</time>
      </trkpt>
      <trkpt lat="43.17883" lon="2.55592">
        <ele>103.48</ele>
        <time>2018-04-21T15:15:44Z</time>
      </trkpt>
      <trkpt lat="43.17891" lon="2.55594">
        <ele>103</ele>
        <time>2018-04-21T15:15:51Z</time>
      </trkpt>
      <trkpt lat="43.17907" lon="2.556">
        <ele>103</ele>
        <time>2018-04-21T15:16:05Z</time>
      </trkpt>
      <trkpt lat="43.17909" lon="2.55601">
        <ele>103</ele>
        <time>2018-04-21T15:16:06Z</time>
      </trkpt>
      <trkpt lat="43.17917" lon="2.55603">
        <ele>102.52</ele>
        <time>2018-04-21T15:16:13Z</time>
      </trkpt>
      <trkpt lat="43.17919" lon="2.55603">
        <ele>102.52</ele>
        <time>2018-04-21T15:16:15Z</time>
      </trkpt>
      <trkpt lat="43.1792" lon="2.55603">
        <ele>102.52</ele>
        <time>2018-04-21T15:16:16Z</time>
      </trkpt>
      <trkpt lat="43.17921" lon="2.55604">
        <ele>102.52</ele>
        <time>2018-04-21T15:16:17Z</time>
      </trkpt>
      <trkpt lat="43.17922" lon="2.55604">
        <ele>102.04</ele>
        <time>2018-04-21T15:16:18Z</time>
      </trkpt>
      <trkpt lat="43.17926" lon="2.55605">
        <ele>102.04</ele>
        <time>2018-04-21T15:16:22Z</time>
      </trkpt>
      <trkpt lat="43.17927" lon="2.55605">
        <ele>102.04</ele>
        <time>2018-04-21T15:16:23Z</time>
      </trkpt>
      <trkpt lat="43.17941" lon="2.5561">
        <ele>101.56</ele>
        <time>2018-04-21T15:16:35Z</time>
      </trkpt>
      <trkpt lat="43.17942" lon="2.55611">
        <ele>101.08</ele>
        <time>2018-04-21T15:16:36Z</time>
      </trkpt>
      <trkpt lat="43.17945" lon="2.55613">
        <ele>101.08</ele>
        <time>2018-04-21T15:16:39Z</time>
      </trkpt>
      <trkpt lat="43.17948" lon="2.55615">
        <ele>101.08</ele>
        <time>2018-04-21T15:16:41Z</time>
      </trkpt>
      <trkpt lat="43.17949" lon="2.55615">
        <ele>101.08</ele>
        <time>2018-04-21T15:16:42Z</time>
      </trkpt>
      <trkpt lat="43.17967" lon="2.55628">
        <ele>100.11</ele>
        <time>2018-04-21T15:16:58Z</time>
      </trkpt>
      <trkpt lat="43.17972" lon="2.55632">
        <ele>100.6</ele>
        <time>2018-04-21T15:17:04Z</time>
      </trkpt>
      <trkpt lat="43.17973" lon="2.55634">
        <ele>100.11</ele>
        <time>2018-04-21T15:17:05Z</time>
      </trkpt>
      <trkpt lat="43.17976" lon="2.55638">
        <ele>99.63</ele>
        <time>2018-04-21T15:17:09Z</time>
      </trkpt>
      <trkpt lat="43.17974" lon="2.55658">
        <ele>99.15</ele>
        <time>2018-04-21T15:17:24Z</time>
      </trkpt>
      <trkpt lat="43.17976" lon="2.55694">
        <ele>99.63</ele>
        <time>2018-04-21T15:17:47Z</time>
      </trkpt>
      <trkpt lat="43.17977" lon="2.55699">
        <ele>98.67</ele>
        <time>2018-04-21T15:17:50Z</time>
      </trkpt>
      <trkpt lat="43.17977" lon="2.55703">
        <ele>98.19</ele>
        <time>2018-04-21T15:17:52Z</time>
      </trkpt>
      <trkpt lat="43.17977" lon="2.55707">
        <ele>98.67</ele>
        <time>2018-04-21T15:17:56Z</time>
      </trkpt>
      <trkpt lat="43.17977" lon="2.55709">
        <ele>98.67</ele>
        <time>2018-04-21T15:17:57Z</time>
      </trkpt>
      <trkpt lat="43.17979" lon="2.55727">
        <ele>98.67</ele>
        <time>2018-04-21T15:18:08Z</time>
      </trkpt>
      <trkpt lat="43.17979" lon="2.55732">
        <ele>98.67</ele>
        <time>2018-04-21T15:18:11Z</time>
      </trkpt>
      <trkpt lat="43.1798" lon="2.55735">
        <ele>98.19</ele>
        <time>2018-04-21T15:18:14Z</time>
      </trkpt>
      <trkpt lat="43.1798" lon="2.55737">
        <ele>98.19</ele>
        <time>2018-04-21T15:18:15Z</time>
      </trkpt>
      <trkpt lat="43.1798" lon="2.55739">
        <ele>98.19</ele>
        <time>2018-04-21T15:18:16Z</time>
      </trkpt>
      <trkpt lat="43.17981" lon="2.55746">
        <ele>98.19</ele>
        <time>2018-04-21T15:18:21Z</time>
      </trkpt>
      <trkpt lat="43.17981" lon="2.55748">
        <ele>98.19</ele>
        <time>2018-04-21T15:18:22Z</time>
      </trkpt>
      <trkpt lat="43.17982" lon="2.55764">
        <ele>98.19</ele>
        <time>2018-04-21T15:18:33Z</time>
      </trkpt>
      <trkpt lat="43.17982" lon="2.55765">
        <ele>98.19</ele>
        <time>2018-04-21T15:18:34Z</time>
      </trkpt>
      <trkpt lat="43.17981" lon="2.55792">
        <ele>97.71</ele>
        <time>2018-04-21T15:18:49Z</time>
      </trkpt>
      <trkpt lat="43.1798" lon="2.55802">
        <ele>97.23</ele>
        <time>2018-04-21T15:19:03Z</time>
      </trkpt>
      <trkpt lat="43.17981" lon="2.55805">
        <ele>96.75</ele>
        <time>2018-04-21T15:19:13Z</time>
      </trkpt>
      <trkpt lat="43.17981" lon="2.55809">
        <ele>97.71</ele>
        <time>2018-04-21T15:19:27Z</time>
      </trkpt>
      <trkpt lat="43.17984" lon="2.5582">
        <ele>97.71</ele>
        <time>2018-04-21T15:19:37Z</time>
      </trkpt>
      <trkpt lat="43.17985" lon="2.55821">
        <ele>98.19</ele>
        <time>2018-04-21T15:19:38Z</time>
      </trkpt>
      <trkpt lat="43.18" lon="2.55822">
        <ele>95.79</ele>
        <time>2018-04-21T15:19:53Z</time>
      </trkpt>
      <trkpt lat="43.18022" lon="2.5582">
        <ele>95.31</ele>
        <time>2018-04-21T15:20:09Z</time>
      </trkpt>
      <trkpt lat="43.1804" lon="2.55818">
        <ele>93.87</ele>
        <time>2018-04-21T15:20:22Z</time>
      </trkpt>
      <trkpt lat="43.18057" lon="2.55815">
        <ele>93.87</ele>
        <time>2018-04-21T15:20:37Z</time>
      </trkpt>
      <trkpt lat="43.18062" lon="2.55814">
        <ele>93.87</ele>
        <time>2018-04-21T15:20:43Z</time>
      </trkpt>
      <trkpt lat="43.18067" lon="2.55814">
        <ele>94.35</ele>
        <time>2018-04-21T15:20:47Z</time>
      </trkpt>
      <trkpt lat="43.18068" lon="2.55814">
        <ele>94.35</ele>
        <time>2018-04-21T15:20:48Z</time>
      </trkpt>
      <trkpt lat="43.18069" lon="2.55814">
        <ele>94.35</ele>
        <time>2018-04-21T15:20:49Z</time>
      </trkpt>
      <trkpt lat="43.18079" lon="2.55811">
        <ele>94.35</ele>
        <time>2018-04-21T15:21:02Z</time>
      </trkpt>
      <trkpt lat="43.18086" lon="2.55811">
        <ele>93.87</ele>
        <time>2018-04-21T15:21:09Z</time>
      </trkpt>
      <trkpt lat="43.18087" lon="2.5581">
        <ele>93.87</ele>
        <time>2018-04-21T15:21:10Z</time>
      </trkpt>
      <trkpt lat="43.18089" lon="2.5581">
        <ele>93.39</ele>
        <time>2018-04-21T15:21:11Z</time>
      </trkpt>
      <trkpt lat="43.1809" lon="2.55809">
        <ele>93.39</ele>
        <time>2018-04-21T15:21:12Z</time>
      </trkpt>
      <trkpt lat="43.18092" lon="2.55809">
        <ele>93.39</ele>
        <time>2018-04-21T15:21:13Z</time>
      </trkpt>
      <trkpt lat="43.18093" lon="2.55809">
        <ele>93.39</ele>
        <time>2018-04-21T15:21:14Z</time>
      </trkpt>
      <trkpt lat="43.18109" lon="2.55805">
        <ele>92.9</ele>
        <time>2018-04-21T15:21:28Z</time>
      </trkpt>
      <trkpt lat="43.18122" lon="2.55803">
        <ele>92.9</ele>
        <time>2018-04-21T15:21:39Z</time>
      </trkpt>
      <trkpt lat="43.18123" lon="2.55803">
        <ele>93.39</ele>
        <time>2018-04-21T15:21:40Z</time>
      </trkpt>
      <trkpt lat="43.1814" lon="2.55802">
        <ele>92.42</ele>
        <time>2018-04-21T15:21:54Z</time>
      </trkpt>
      <trkpt lat="43.18155" lon="2.55801">
        <ele>92.42</ele>
        <time>2018-04-21T15:22:07Z</time>
      </trkpt>
      <trkpt lat="43.18173" lon="2.55801">
        <ele>90.98</ele>
        <time>2018-04-21T15:22:23Z</time>
      </trkpt>
      <trkpt lat="43.18187" lon="2.55802">
        <ele>90.98</ele>
        <time>2018-04-21T15:22:36Z</time>
      </trkpt>
      <trkpt lat="43.1819" lon="2.55802">
        <ele>90.98</ele>
        <time>2018-04-21T15:22:39Z</time>
      </trkpt>
      <trkpt lat="43.18204" lon="2.55804">
        <ele>90.98</ele>
        <time>2018-04-21T15:22:52Z</time>
      </trkpt>
      <trkpt lat="43.18218" lon="2.55806">
        <ele>90.02</ele>
        <time>2018-04-21T15:23:06Z</time>
      </trkpt>
      <trkpt lat="43.18233" lon="2.55807">
        <ele>89.54</ele>
        <time>2018-04-21T15:23:20Z</time>
      </trkpt>
      <trkpt lat="43.18247" lon="2.55812">
        <ele>89.06</ele>
        <time>2018-04-21T15:23:34Z</time>
      </trkpt>
      <trkpt lat="43.18262" lon="2.55821">
        <ele>88.58</ele>
        <time>2018-04-21T15:23:49Z</time>
      </trkpt>
      <trkpt lat="43.18271" lon="2.55828">
        <ele>89.06</ele>
        <time>2018-04-21T15:23:59Z</time>
      </trkpt>
      <trkpt lat="43.18277" lon="2.55831">
        <ele>89.54</ele>
        <time>2018-04-21T15:24:04Z</time>
      </trkpt>
      <trkpt lat="43.18297" lon="2.55839">
        <ele>90.02</ele>
        <time>2018-04-21T15:24:22Z</time>
      </trkpt>
      <trkpt lat="43.18312" lon="2.55842">
        <ele>90.5</ele>
        <time>2018-04-21T15:24:38Z</time>
      </trkpt>
      <trkpt lat="43.18328" lon="2.5584">
        <ele>89.54</ele>
        <time>2018-04-21T15:24:50Z</time>
      </trkpt>
      <trkpt lat="43.18338" lon="2.55839">
        <ele>90.5</ele>
        <time>2018-04-21T15:25:01Z</time>
      </trkpt>
      <trkpt lat="43.18351" lon="2.55843">
        <ele>91.94</ele>
        <time>2018-04-21T15:25:15Z</time>
      </trkpt>
      <trkpt lat="43.18359" lon="2.55847">
        <ele>92.42</ele>
        <time>2018-04-21T15:25:29Z</time>
      </trkpt>
      <trkpt lat="43.18371" lon="2.55853">
        <ele>93.39</ele>
        <time>2018-04-21T15:25:44Z</time>
      </trkpt>
      <trkpt lat="43.18374" lon="2.55858">
        <ele>94.83</ele>
        <time>2018-04-21T15:25:59Z</time>
      </trkpt>
      <trkpt lat="43.18378" lon="2.5586">
        <ele>95.31</ele>
        <time>2018-04-21T15:26:16Z</time>
      </trkpt>
      <trkpt lat="43.1838" lon="2.55859">
        <ele>95.31</ele>
        <time>2018-04-21T15:26:29Z</time>
      </trkpt>
      <trkpt lat="43.18404" lon="2.55861">
        <ele>96.75</ele>
        <time>2018-04-21T15:28:30Z</time>
      </trkpt>
      <trkpt lat="43.18419" lon="2.55862">
        <ele>95.31</ele>
        <time>2018-04-21T15:28:43Z</time>
      </trkpt>
      <trkpt lat="43.18428" lon="2.55866">
        <ele>95.31</ele>
        <time>2018-04-21T15:28:56Z</time>
      </trkpt>
      <trkpt lat="43.18434" lon="2.5588">
        <ele>95.31</ele>
        <time>2018-04-21T15:29:08Z</time>
      </trkpt>
      <trkpt lat="43.18437" lon="2.55894">
        <ele>95.31</ele>
        <time>2018-04-21T15:29:22Z</time>
      </trkpt>
      <trkpt lat="43.18441" lon="2.55895">
        <ele>92.9</ele>
        <time>2018-04-21T15:29:34Z</time>
      </trkpt>
      <trkpt lat="43.18445" lon="2.55895">
        <ele>90.98</ele>
        <time>2018-04-21T15:29:43Z</time>
      </trkpt>
      <trkpt lat="43.1845" lon="2.55892">
        <ele>89.54</ele>
        <time>2018-04-21T15:29:51Z</time>
      </trkpt>
      <trkpt lat="43.18454" lon="2.55889">
        <ele>88.58</ele>
        <time>2018-04-21T15:30:00Z</time>
      </trkpt>
      <trkpt lat="43.18455" lon="2.55888">
        <ele>88.58</ele>
        <time>2018-04-21T15:30:01Z</time>
      </trkpt>
      <trkpt lat="43.1846" lon="2.55881">
        <ele>86.18</ele>
        <time>2018-04-21T15:30:09Z</time>
      </trkpt>
      <trkpt lat="43.18459" lon="2.55868">
        <ele>85.69</ele>
        <time>2018-04-21T15:30:20Z</time>
      </trkpt>
      <trkpt lat="43.1846" lon="2.5586">
        <ele>84.73</ele>
        <time>2018-04-21T15:30:26Z</time>
      </trkpt>
      <trkpt lat="43.18459" lon="2.55849">
        <ele>84.25</ele>
        <time>2018-04-21T15:30:35Z</time>
      </trkpt>
      <trkpt lat="43.1846" lon="2.55847">
        <ele>84.25</ele>
        <time>2018-04-21T15:30:36Z</time>
      </trkpt>
      <trkpt lat="43.1846" lon="2.55846">
        <ele>83.77</ele>
        <time>2018-04-21T15:30:37Z</time>
      </trkpt>
      <trkpt lat="43.18463" lon="2.55826">
        <ele>82.33</ele>
        <time>2018-04-21T15:30:51Z</time>
      </trkpt>
      <trkpt lat="43.18472" lon="2.55811">
        <ele>81.37</ele>
        <time>2018-04-21T15:31:02Z</time>
      </trkpt>
      <trkpt lat="43.18473" lon="2.55809">
        <ele>81.85</ele>
        <time>2018-04-21T15:31:03Z</time>
      </trkpt>
      <trkpt lat="43.18473" lon="2.55808">
        <ele>81.85</ele>
        <time>2018-04-21T15:31:04Z</time>
      </trkpt>
      <trkpt lat="43.18474" lon="2.55807">
        <ele>81.37</ele>
        <time>2018-04-21T15:31:05Z</time>
      </trkpt>
      <trkpt lat="43.18475" lon="2.55805">
        <ele>81.85</ele>
        <time>2018-04-21T15:31:06Z</time>
      </trkpt>
      <trkpt lat="43.18481" lon="2.55783">
        <ele>80.89</ele>
        <time>2018-04-21T15:31:21Z</time>
      </trkpt>
      <trkpt lat="43.18488" lon="2.55763">
        <ele>80.89</ele>
        <time>2018-04-21T15:31:36Z</time>
      </trkpt>
      <trkpt lat="43.18491" lon="2.55755">
        <ele>80.89</ele>
        <time>2018-04-21T15:31:41Z</time>
      </trkpt>
      <trkpt lat="43.18491" lon="2.55753">
        <ele>80.89</ele>
        <time>2018-04-21T15:31:42Z</time>
      </trkpt>
      <trkpt lat="43.18497" lon="2.55743">
        <ele>80.41</ele>
        <time>2018-04-21T15:31:55Z</time>
      </trkpt>
      <trkpt lat="43.185" lon="2.55741">
        <ele>80.41</ele>
        <time>2018-04-21T15:31:58Z</time>
      </trkpt>
      <trkpt lat="43.18515" lon="2.55742">
        <ele>80.41</ele>
        <time>2018-04-21T15:32:13Z</time>
      </trkpt>
      <trkpt lat="43.18525" lon="2.55758">
        <ele>80.41</ele>
        <time>2018-04-21T15:32:27Z</time>
      </trkpt>
    </trkseg>
  </trk>
</gpx>